GFSCGP_sfc_temp_000.txt.gz
Temp
95 88 84 91 93 94 93 89 84 88 89 86 85 84 88 93 93 90 91 90 91 92 94 95 94 93 94 93 88 84 85 87 86 83 81 81 80 82 84 85 84 85 85 83
89 84 94 98 96 94 93 89 87 92 95 91 83 82 89 92 92 92 91 90 92 93 92 92 93 94 94 91 88 88 86 86 85 83 83 84 83 82 82 84 84 86 85 83
85 90 97 96 93 90 91 88 88 87 92 93 89 80 75 89 94 94 95 94 94 93 91 91 91 92 93 91 89 88 87 85 86 86 84 81 83 84 83 84 79 83 84 84
89 97 94 92 91 92 84 94 92 91 86 77 89 71 74 82 87 91 93 93 94 93 93 92 92 92 93 90 91 88 88 87 87 87 86 82 81 78 82 83 80 81 84 83
87 91 91 88 91 95 87 96 92 91 86 84 83 76 75 86 81 87 92 94 95 96 95 94 93 93 94 92 91 89 87 86 85 84 84 82 80 80 82 82 82 81 79 80
92 100 97 94 97 96 97 92 92 90 86 73 81 80 74 73 81 85 86 94 95 97 96 96 96 94 93 93 92 90 85 83 84 84 84 83 83 81 79 79 78 79 80 81
89 91 98 99 91 96 94 86 73 70 71 70 85 80 80 86 91 89 82 80 96 98 97 95 93 92 90 89 90 87 83 81 83 84 84 84 83 83 81 79 80 79 78 80
79 77 91 97 93 89 88 86 75 63 67 73 84 73 80 94 97 92 92 96 98 96 96 94 93 91 90 89 88 86 82 80 82 83 83 82 83 81 81 80 79 78 78 79
80 80 96 97 98 96 86 81 92 80 83 75 79 83 91 94 94 95 96 98 96 97 97 96 95 93 90 89 87 84 82 81 82 83 81 81 81 81 81 81 81 79 81 81
89 78 93 95 97 97 91 94 79 81 66 64 76 77 78 83 87 92 93 95 97 98 97 98 96 93 90 91 89 85 84 81 82 83 82 82 81 81 81 81 79 80 79 80
94 88 86 93 87 85 88 84 86 86 80 70 68 71 87 86 90 91 94 96 96 98 97 97 96 93 90 91 89 86 84 83 82 83 82 82 82 82 81 80 80 80 80 80
95 90 80 85 95 97 94 87 86 75 72 78 75 75 94 93 94 94 94 96 97 98 97 96 96 94 91 89 89 87 86 85 84 83 82 81 81 82 82 80 80 81 79 79
93 85 76 79 88 93 87 89 89 88 85 73 72 74 92 94 93 95 94 95 94 94 95 94 95 93 90 89 87 86 87 87 87 84 80 81 80 79 79 79 80 80 79 78
91 88 80 75 80 87 81 86 89 87 76 77 78 79 85 89 90 90 93 94 94 92 93 92 91 91 89 87 85 85 86 89 88 85 82 79 78 79 79 79 80 80 78 78
93 80 84 86 88 89 87 86 86 82 83 76 80 80 82 83 89 90 92 93 93 93 92 90 91 91 87 86 84 85 85 86 86 82 82 80 80 80 79 78 79 79 78 78
92 80 83 80 87 87 84 88 88 87 86 85 86 84 86 92 91 91 92 92 91 92 93 93 90 90 87 85 84 82 84 84 84 79 80 81 80 79 78 79 79 78 78 79
85 82 77 72 83 83 77 85 87 88 89 87 79 86 89 87 89 89 90 91 90 91 92 91 92 87 87 86 85 80 84 83 81 80 81 80 80 79 79 79 78 78 78 77
82 78 79 74 77 65 83 94 93 89 90 92 88 89 87 89 91 93 93 91 91 92 92 92 95 93 90 90 88 85 85 82 81 79 80 80 80 79 78 78 77 77 77 76
69 76 74 71 72 78 83 87 86 76 79 92 91 90 91 92 92 89 93 96 94 94 93 93 96 95 90 89 87 84 83 83 82 80 79 80 80 78 78 77 76 76 75 74
81 75 72 74 67 64 80 88 91 85 71 85 85 87 87 90 80 82 90 94 94 95 95 94 95 95 91 89 89 84 82 81 80 80 80 81 80 79 78 77 76 75 77 74
77 77 73 72 69 76 89 88 88 63 61 81 87 85 85 83 85 90 94 93 95 94 94 94 93 91 87 88 86 81 82 81 83 84 83 81 81 79 80 78 74 72 72 71
73 69 71 74 69 66 89 81 72 78 84 87 87 86 87 89 90 91 91 93 92 92 93 93 90 86 87 86 83 80 79 82 84 83 83 82 80 80 78 78 75 72 71 70
72 67 61 67 61 69 86 82 85 87 83 84 85 87 88 88 88 90 89 89 91 91 91 92 89 85 85 85 86 83 84 86 86 85 82 82 82 80 80 77 73 75 69 67
73 75 74 64 59 59 79 83 84 86 85 87 89 88 89 86 88 88 88 88 89 91 89 90 87 85 83 84 82 82 82 83 83 81 81 80 77 77 75 74 76 67 69 69
70 62 63 74 62 74 78 82 83 85 87 87 88 89 88 88 87 88 88 88 84 86 82 80 77 73 68 68 67 70 75 76 78 79 79 77 78 75 76 60 57 69 57 58
84 72 70 66 72 75 75 82 85 83 83 85 84 85 89 88 87 89 85 85 84 79 81 75 72 70 65 67 71 74 76 78 78 76 78 77 76 68 74 66 62 46 46 44

GFSCGP_sfc_temp_003.txt.gz
Temp
82 72 67 75 79 82 81 79 75 81 87 80 76 76 80 83 83 81 79 80 81 82 83 85 86 86 85 83 80 79 79 76 76 74 74 73 72 73 74 76 77 77 77 77
75 69 81 87 86 84 82 79 73 80 87 79 75 76 81 81 82 83 82 81 82 82 81 83 84 85 84 82 79 78 78 78 77 75 75 75 74 75 75 76 76 77 77 76
73 78 89 86 84 83 79 75 77 75 82 84 77 68 67 80 80 84 85 85 84 82 81 81 82 83 84 82 80 79 78 77 77 77 76 75 74 74 73 75 74 75 77 77
78 87 86 84 82 83 68 84 85 83 75 63 75 55 61 70 74 82 83 83 84 83 83 82 81 80 82 82 82 79 78 78 79 78 75 74 70 68 71 71 72 73 75 75
76 81 82 81 84 86 78 86 82 80 71 66 70 61 66 69 67 77 81 84 86 84 84 83 83 83 83 84 82 80 78 77 77 74 73 70 68 70 70 70 70 70 72 73
81 91 87 85 90 89 89 80 76 75 66 55 65 63 58 65 71 81 84 86 87 86 85 85 86 85 83 85 83 80 77 75 75 74 73 73 71 69 68 69 68 69 71 70
79 82 88 91 79 84 80 65 55 52 53 54 67 65 62 77 82 80 81 80 83 88 85 84 84 83 82 82 81 79 76 73 73 74 74 73 71 71 71 71 68 68 67 68
65 65 81 90 80 75 73 68 56 50 51 59 72 60 67 83 84 82 87 84 85 87 87 85 84 84 82 83 80 79 76 73 73 73 72 72 72 71 70 70 68 69 67 69
67 69 87 89 89 84 74 65 74 62 62 57 62 68 76 81 80 82 85 84 82 83 86 86 85 84 83 82 79 78 76 74 73 73 71 72 73 71 70 70 70 68 69 73
75 63 81 87 89 88 77 80 63 60 50 50 61 63 62 69 73 79 78 80 81 84 86 86 86 84 83 83 80 78 77 76 75 73 73 73 72 72 71 70 69 70 70 71
81 69 75 82 75 73 71 68 66 65 60 53 52 57 70 73 76 77 79 82 81 86 86 86 86 85 83 83 80 78 77 76 75 73 73 73 71 71 71 70 70 70 70 70
83 68 67 75 82 87 79 73 68 56 56 58 57 61 80 78 80 79 80 82 81 82 88 87 86 84 83 82 79 79 78 77 75 73 73 72 72 73 70 70 70 71 70 70
82 73 63 64 77 83 78 77 72 69 64 57 55 59 77 79 79 79 79 79 80 82 82 85 85 83 82 82 78 78 79 77 77 74 73 71 72 73 70 70 70 70 70 70
80 69 64 59 68 77 72 78 75 69 58 59 61 66 70 74 75 78 79 80 80 80 79 84 82 83 83 83 79 78 77 79 76 76 73 71 71 71 70 70 70 70 70 69
81 63 67 71 78 79 80 79 78 69 67 61 66 68 69 73 77 78 82 83 82 80 77 79 80 82 82 81 78 75 79 78 79 75 74 73 70 70 70 70 70 70 70 70
74 64 66 65 76 79 76 82 79 80 78 73 72 70 74 83 78 77 81 80 79 77 80 79 79 78 81 80 77 75 77 77 77 75 74 73 73 71 70 70 69 69 69 69
71 66 61 57 69 71 63 72 75 77 82 78 69 71 73 73 75 74 76 80 79 78 77 76 77 78 81 80 80 77 75 71 76 74 72 73 73 71 70 71 69 68 68 68
65 63 61 57 60 51 67 80 81 74 75 76 76 78 79 75 78 77 78 79 80 80 81 78 79 76 81 81 76 71 71 70 74 69 72 71 71 71 71 70 68 69 68 68
68 61 56 54 55 62 71 77 73 68 65 76 73 77 82 82 76 75 78 79 79 80 78 79 79 77 81 78 78 72 70 75 70 68 70 71 72 71 69 68 68 68 67 67
65 62 55 49 47 49 66 78 80 73 58 75 77 73 77 76 66 67 78 82 82 82 81 80 80 77 81 80 79 72 71 73 73 71 72 72 73 70 69 69 69 69 68 67
60 58 53 50 48 57 72 78 82 58 59 75 76 75 73 67 69 74 79 79 82 82 82 82 79 77 80 81 79 72 71 69 73 75 72 73 72 72 71 70 68 66 66 61
59 57 52 53 52 51 74 73 64 65 68 73 74 73 73 73 74 78 78 78 80 79 80 82 76 76 76 80 76 69 70 74 75 73 73 72 72 75 73 66 66 65 65 62
53 59 56 56 55 62 66 64 72 72 69 72 73 75 75 76 76 77 76 74 76 78 78 78 77 75 75 74 71 67 65 66 63 71 73 73 73 71 67 65 66 64 62 62
63 62 56 57 57 60 63 66 67 68 72 72 74 76 74 72 76 75 75 74 74 75 76 76 71 66 63 68 66 63 63 63 63 61 65 70 67 67 67 62 61 60 57 58
57 59 55 57 61 64 65 68 68 71 72 74 77 76 76 76 74 72 72 69 68 68 70 70 67 66 63 65 64 64 64 62 64 61 70 68 67 63 56 52 53 57 49 51
61 55 52 50 58 57 59 65 75 74 75 76 75 75 77 75 71 73 70 69 68 66 67 66 64 65 63 63 62 64 64 68 68 68 66 63 64 59 57 53 50 45 46 43

GFSCGP_sfc_temp_006.txt.gz
Temp
75 68 64 70 72 74 73 70 72 77 80 73 71 71 75 78 79 78 77 77 79 79 82 82 83 83 81 79 77 77 76 74 74 73 72 72 71 72 72 74 75 75 75 75
69 64 74 79 78 76 72 71 71 75 80 73 70 70 76 78 78 79 78 77 79 76 78 81 81 81 79 79 77 75 75 74 74 73 72 72 72 72 73 74 74 74 75 75
65 72 82 79 76 74 70 70 72 74 79 75 71 64 68 76 80 81 81 81 81 77 77 79 79 79 80 78 75 76 74 75 74 74 73 73 72 71 70 71 71 73 75 74
69 81 79 76 75 75 64 79 81 77 74 60 72 53 62 72 73 76 78 79 80 78 79 79 79 78 79 79 79 77 75 74 75 74 73 72 69 67 67 68 70 71 73 73
69 75 75 74 77 80 74 80 78 76 72 63 64 56 67 66 64 69 75 79 81 79 80 79 80 80 81 81 80 78 76 74 75 73 73 69 66 66 66 67 68 67 67 70
74 82 78 79 84 82 85 77 69 65 60 52 63 60 56 62 71 75 76 81 82 81 80 81 82 81 81 82 81 78 75 73 72 71 69 68 67 65 66 65 65 65 65 67
69 76 81 84 72 78 75 62 52 52 50 51 58 61 66 70 79 77 77 80 83 82 81 80 80 79 78 79 79 78 75 71 71 70 69 68 68 67 66 66 65 65 65 65
60 60 76 81 76 72 68 65 52 47 48 54 61 57 69 75 81 81 83 83 84 81 82 81 81 80 79 80 79 78 74 73 71 70 70 69 68 68 67 67 66 65 65 66
56 60 78 81 85 77 70 61 67 57 50 52 57 65 72 75 77 80 78 79 81 81 81 81 82 81 80 80 79 78 75 75 73 71 68 68 68 67 67 67 67 66 66 68
65 58 72 81 79 79 77 74 60 54 49 46 54 58 59 65 71 74 76 76 78 82 82 82 82 81 81 82 80 79 77 76 74 72 71 70 70 68 68 67 67 66 67 67
72 61 70 69 68 70 67 63 61 60 54 50 48 54 66 72 73 73 75 80 76 79 82 82 82 83 81 82 80 78 77 76 75 73 68 69 69 69 68 67 67 67 67 67
70 60 62 68 76 78 72 68 62 55 53 52 53 56 73 74 74 78 79 79 76 80 81 83 83 82 80 80 79 77 77 76 75 73 70 71 70 68 67 67 68 67 67 67
75 58 58 60 64 68 72 69 63 59 55 53 52 56 72 73 71 75 74 75 76 75 76 82 82 81 79 80 78 77 77 77 75 71 70 67 68 68 67 67 67 67 67 67
76 58 61 60 60 66 65 71 68 63 54 54 56 61 65 70 72 72 74 75 74 74 78 79 80 81 80 80 78 77 77 76 73 71 70 68 69 69 67 67 68 67 67 66
72 60 60 65 74 73 76 75 69 63 65 63 63 64 66 68 71 72 75 76 76 76 73 77 79 79 79 79 78 76 77 73 73 71 71 69 71 70 68 67 69 67 66 66
63 61 63 68 72 76 74 74 75 74 71 67 66 64 70 74 74 72 77 75 75 75 76 74 75 79 79 80 77 76 76 74 71 70 71 68 70 68 69 71 68 66 66 66
63 60 57 57 67 69 65 70 72 74 72 72 63 69 70 68 72 71 72 75 75 76 77 75 74 75 79 80 78 74 74 71 70 70 69 67 68 67 71 72 67 67 66 65
59 58 54 57 58 52 66 75 78 70 70 69 71 70 75 72 72 72 72 74 76 78 78 76 74 72 79 82 78 72 69 70 69 68 68 70 69 69 72 69 67 67 65 66
62 57 52 51 51 58 66 69 70 68 66 70 68 72 73 73 73 69 74 75 76 76 76 76 75 74 72 80 76 72 69 69 68 67 68 69 71 71 70 67 66 67 65 64
66 60 57 50 52 49 56 67 73 71 56 71 70 69 71 72 62 65 70 76 76 77 77 78 76 72 71 73 74 72 69 68 67 67 70 72 72 71 69 68 66 69 65 65
54 53 49 47 46 53 65 69 72 54 56 67 71 68 67 67 68 70 73 75 75 77 79 78 75 75 72 74 73 70 68 67 68 69 69 68 71 71 71 69 66 65 64 61
51 50 47 49 50 47 66 68 59 61 64 70 70 69 68 67 70 71 73 75 77 73 75 77 74 71 73 74 73 67 65 64 64 63 63 63 65 67 70 67 65 63 62 61
51 52 50 50 49 56 60 63 59 61 66 68 68 70 70 70 69 72 72 71 74 75 75 74 72 67 68 69 66 61 59 62 62 61 61 63 61 61 64 65 63 61 60 59
58 60 53 55 57 58 61 64 65 66 65 67 68 67 69 68 70 73 72 70 69 68 67 66 65 63 61 63 62 61 62 62 61 60 60 62 60 59 63 63 62 61 59 57
56 54 54 54 59 60 65 65 67 69 69 69 70 70 69 69 69 69 69 67 64 63 63 64 64 62 60 61 61 61 62 61 60 61 61 61 62 62 58 55 54 56 49 52
54 55 51 49 56 55 58 61 66 67 67 66 67 71 73 73 71 70 70 67 63 61 63 62 62 62 61 60 60 60 62 61 59 58 59 61 62 59 54 51 49 46 45 43

GFSCGP_sfc_temp_009.txt.gz
Temp
71 66 61 67 70 71 71 66 67 72 74 69 67 66 71 74 74 73 74 74 76 77 79 80 81 81 79 77 76 74 73 73 73 72 71 71 71 72 72 72 74 74 73 74
65 61 71 75 74 73 72 68 66 72 75 70 65 65 73 74 74 75 75 75 76 77 75 78 78 79 78 76 75 74 75 72 73 72 71 71 71 71 72 72 73 73 74 73
61 68 76 75 72 71 66 65 66 68 72 71 68 61 66 73 75 77 78 78 79 76 75 76 77 77 78 75 74 74 73 72 73 73 72 71 71 70 69 70 70 71 73 73
66 75 75 71 71 72 58 74 75 72 69 57 68 51 60 68 70 74 76 76 78 77 78 78 77 76 77 76 77 75 73 72 73 73 72 71 69 67 66 67 68 70 71 70
64 70 69 69 72 76 70 75 73 71 67 60 60 55 58 65 63 70 75 76 78 78 79 78 78 78 79 79 77 75 73 72 73 72 72 70 66 65 66 66 67 66 66 68
71 76 74 74 78 79 77 71 65 58 57 51 60 58 54 62 68 72 76 77 79 78 79 79 81 80 79 79 78 76 73 73 72 72 71 69 67 65 64 64 64 63 63 65
64 70 73 78 68 72 70 60 50 48 48 48 57 56 60 68 76 77 76 77 79 79 78 78 78 77 77 77 77 76 74 72 72 70 68 67 67 65 65 64 64 63 63 64
54 57 69 74 71 66 64 61 51 45 44 52 56 53 64 75 79 81 81 80 80 79 79 78 78 78 78 78 77 77 74 74 70 69 67 66 65 64 64 64 63 63 63 65
52 56 71 75 78 74 63 57 64 54 45 48 52 60 70 72 73 78 78 79 78 79 78 78 79 78 79 79 77 77 76 75 71 70 69 66 66 65 65 65 65 64 64 67
62 53 66 73 75 74 72 69 56 51 45 43 51 55 58 66 66 72 75 76 78 79 78 78 79 79 79 80 79 78 77 75 73 72 71 69 66 67 66 65 65 65 65 66
61 58 60 68 64 65 63 58 55 56 50 47 46 52 63 70 67 70 74 78 79 78 78 79 79 80 80 80 80 78 76 75 73 73 68 67 67 66 66 65 65 65 65 65
65 58 59 62 68 71 68 65 63 58 50 47 50 54 70 71 70 74 75 77 74 78 78 79 80 80 80 79 79 78 77 76 74 73 68 69 68 67 66 65 66 65 65 65
64 53 50 55 57 62 63 63 58 55 51 49 51 54 69 68 69 71 71 72 73 75 74 78 79 79 79 78 79 78 77 76 75 70 69 67 66 65 66 67 67 66 65 65
73 52 60 58 59 63 61 66 63 61 52 51 54 60 63 68 70 69 70 72 72 75 75 77 78 78 79 79 79 77 77 78 74 70 70 67 67 67 69 69 68 67 66 66
69 60 56 67 71 67 68 68 65 62 65 63 62 61 66 68 70 71 72 71 71 71 74 76 77 77 77 77 77 76 77 76 74 72 72 69 68 67 68 69 69 68 68 68
61 58 59 61 66 70 68 71 70 69 62 63 62 61 68 72 67 68 74 72 71 70 72 73 76 74 73 76 76 76 76 75 72 71 72 68 66 66 68 68 69 69 69 68
57 60 53 60 61 65 58 67 68 68 70 68 61 67 66 64 69 70 70 73 73 72 71 71 72 72 73 74 77 74 74 74 71 72 70 67 67 67 67 69 69 69 69 67
57 55 52 61 56 51 63 67 73 67 67 66 66 67 69 70 75 70 68 71 72 73 73 71 71 71 72 74 75 72 72 70 69 69 67 68 66 68 68 70 70 69 68 66
55 53 48 50 51 61 63 67 64 65 62 67 66 66 70 69 70 69 70 69 73 73 72 72 72 71 69 71 73 71 69 69 68 68 67 67 68 67 68 67 69 71 65 64
56 54 54 45 50 50 59 66 67 65 56 69 69 67 68 70 65 62 67 71 70 72 74 73 73 73 69 68 69 68 66 67 67 68 67 67 67 67 65 67 68 66 65 65
50 49 47 47 47 53 59 62 67 56 55 65 65 64 66 62 62 66 69 70 71 72 73 73 70 75 72 67 67 65 65 65 65 65 65 65 65 65 65 65 64 65 63 62
50 49 47 46 47 46 64 62 58 59 60 64 63 63 63 64 67 69 67 69 72 74 74 75 72 73 69 68 66 62 62 63 64 63 62 61 62 63 63 62 61 63 63 61
49 52 48 49 48 56 57 56 59 61 61 61 65 64 66 68 66 68 68 69 71 72 69 70 71 69 65 65 64 61 61 62 62 62 61 60 61 62 63 61 60 60 61 60
56 57 51 53 55 56 58 61 62 63 61 63 65 66 68 67 70 70 70 67 66 65 65 64 63 62 60 61 62 61 61 61 61 61 60 61 61 61 61 61 60 61 60 59
54 57 55 52 58 60 62 61 61 64 65 67 68 68 67 69 69 71 72 71 69 67 63 62 60 60 59 60 60 61 61 62 62 61 61 60 60 59 58 54 54 57 52 53
54 52 51 49 57 56 58 62 66 67 67 67 68 68 69 69 67 68 68 66 63 63 60 60 58 58 59 60 60 61 61 61 60 59 59 60 59 59 56 52 49 45 44 43

GFSCGP_sfc_temp_012.txt.gz
Temp
67 62 59 64 68 69 67 65 65 67 72 66 63 63 67 71 72 71 71 72 73 74 78 79 79 79 77 77 74 74 73 73 74 72 71 72 72 73 73 74 75 75 74 75
62 59 68 72 71 69 68 64 64 68 71 69 62 63 68 70 71 72 72 72 73 75 73 75 76 77 76 75 74 73 74 73 73 72 72 73 73 73 73 74 74 75 75 74
58 65 73 72 67 68 63 63 62 68 68 67 65 59 62 68 71 73 74 75 75 75 73 73 75 75 76 74 73 73 73 73 73 73 72 72 72 71 71 72 73 73 74 74
63 71 71 68 67 68 58 70 71 67 66 55 65 51 57 65 67 70 73 74 75 75 77 75 75 75 76 75 76 74 74 72 73 73 72 72 70 69 69 70 71 72 73 72
62 65 67 65 69 72 68 72 69 67 61 57 57 54 58 64 61 68 72 75 76 77 77 76 76 77 78 78 76 75 72 72 73 73 73 72 69 69 68 68 69 69 69 70
67 72 71 72 74 75 74 68 62 56 54 48 57 58 55 56 66 71 74 76 77 78 78 78 78 78 77 78 77 75 72 72 72 73 72 72 70 67 66 66 67 67 67 68
61 66 69 74 67 67 66 58 48 46 46 46 55 53 64 66 72 75 75 76 78 79 77 77 76 76 75 75 75 75 73 72 72 73 72 72 70 67 67 66 67 65 66 67
52 53 66 71 68 64 62 60 49 44 43 50 53 51 62 77 76 77 77 78 78 78 77 77 77 77 77 76 75 75 73 73 72 73 72 71 69 68 67 67 66 66 67 68
50 53 67 71 72 72 59 55 61 50 43 47 50 58 69 72 72 72 74 73 75 77 77 78 78 78 78 77 76 75 73 73 72 73 71 68 67 66 66 66 66 66 66 68
59 50 63 69 71 68 67 65 56 48 43 40 48 51 57 63 68 70 69 72 75 77 77 78 78 78 78 79 78 77 76 74 74 73 72 69 68 67 67 66 66 65 66 68
60 54 57 63 63 64 59 56 53 53 48 45 44 49 61 67 69 70 71 75 76 77 77 77 78 79 79 80 79 77 76 75 74 73 71 71 68 69 67 67 67 67 66 67
62 59 55 59 64 67 66 61 59 55 47 46 48 53 68 70 69 69 72 75 75 76 77 77 78 78 78 78 79 78 77 77 76 74 70 70 69 68 68 67 67 67 67 66
61 51 51 51 55 58 60 60 53 53 50 46 49 53 67 65 67 67 69 70 70 71 71 75 75 76 76 77 77 78 78 78 77 73 69 68 68 67 67 67 67 66 67 67
69 51 56 55 57 60 57 62 59 58 48 49 51 60 64 68 67 66 67 69 68 71 71 71 73 75 76 76 76 76 77 78 77 73 70 68 67 68 67 66 66 66 67 66
63 55 54 66 64 63 64 64 60 58 58 57 62 59 68 68 68 68 71 68 68 68 69 71 73 74 73 72 73 75 77 76 76 72 70 70 69 68 67 66 66 66 67 67
57 55 54 62 67 66 65 67 63 62 62 59 60 59 67 69 67 68 68 69 69 70 72 71 70 71 70 71 72 74 74 76 75 71 71 71 68 67 67 66 66 66 68 67
54 53 49 54 59 57 53 66 65 64 64 67 59 71 66 65 67 68 67 69 72 72 71 68 69 71 70 70 71 71 73 74 72 71 71 69 66 67 66 66 65 65 67 67
52 49 49 52 51 42 62 66 72 70 66 66 65 66 67 69 71 68 67 69 69 69 69 68 69 70 71 71 71 71 71 71 71 70 70 67 67 66 66 66 66 66 69 69
53 49 47 47 46 53 59 60 63 66 62 65 64 67 68 68 68 66 69 69 69 70 70 71 72 71 69 70 70 70 69 70 69 69 68 68 68 67 67 66 66 67 66 66
57 52 46 42 46 46 54 59 64 60 55 64 64 64 65 66 62 61 65 70 70 70 69 71 71 71 71 70 69 68 68 68 68 68 68 68 68 69 67 67 66 66 66 66
48 47 44 44 45 50 57 60 63 57 56 60 62 63 64 61 62 66 68 69 71 71 71 71 71 70 70 69 68 66 66 66 67 67 67 67 68 66 66 65 66 65 64 63
51 45 45 45 44 44 59 60 57 58 60 61 62 61 61 61 65 66 66 66 68 67 68 69 68 68 70 69 68 65 65 65 66 65 65 65 65 66 65 63 64 64 63 62
49 53 48 48 47 54 56 55 57 59 64 64 64 64 64 64 64 65 65 66 66 66 65 66 65 64 63 65 65 62 62 64 63 62 61 62 63 63 63 62 62 61 62 61
55 56 53 51 56 55 56 59 61 61 61 62 63 64 64 62 63 64 64 64 66 65 64 64 62 60 60 61 62 62 63 63 62 61 61 61 62 61 62 62 60 61 61 61
52 55 53 53 55 57 60 59 59 61 62 63 64 63 62 63 62 63 62 64 64 63 63 62 60 60 60 61 61 62 63 63 62 62 61 61 61 61 59 51 54 60 56 57
50 51 50 51 58 55 58 61 63 62 62 62 64 62 64 64 61 63 62 62 63 62 62 60 59 59 59 60 61 62 64 65 63 62 61 60 60 59 56 54 52 45 44 44

GFSCGP_sfc_temp_015.txt.gz
Temp
80 77 73 79 82 84 82 78 77 77 80 78 77 77 76 79 79 79 80 79 81 82 86 87 86 87 86 85 84 83 82 82 83 83 82 82 83 83 83 82 84 84 83 83
74 72 80 83 83 80 79 77 77 78 80 80 76 75 78 79 78 80 80 79 80 82 84 84 85 86 85 84 83 82 82 82 82 84 83 84 83 85 86 85 83 84 84 83
73 77 80 78 78 76 77 77 76 77 77 77 76 74 75 78 80 81 82 83 83 82 83 83 83 84 85 83 83 82 82 82 82 83 83 81 82 82 83 83 83 84 84 83
75 81 77 77 77 80 75 80 80 77 75 69 78 67 73 78 75 77 80 82 83 83 85 86 85 84 85 84 85 84 83 82 82 81 81 80 82 81 84 83 84 84 83 83
72 74 74 75 78 80 79 81 80 79 77 73 70 69 78 74 73 76 80 82 84 87 86 86 86 86 86 86 86 84 83 82 82 81 82 81 81 84 84 82 80 81 80 81
78 80 81 80 83 82 81 77 74 75 76 63 73 70 74 72 75 80 83 84 85 87 88 88 89 88 86 88 86 85 82 80 81 81 81 80 80 81 80 80 80 81 81 81
73 75 81 83 79 81 80 77 65 62 61 62 75 68 74 83 84 86 87 84 86 88 88 87 86 86 85 84 84 84 81 79 80 80 81 81 80 80 79 79 81 80 80 80
64 62 74 82 81 76 76 78 68 56 59 65 66 63 73 85 90 87 89 90 88 87 88 86 86 85 85 84 83 83 81 80 80 81 80 81 81 83 82 80 82 82 82 82
64 65 76 80 83 83 74 69 83 71 65 66 70 71 78 83 84 86 86 87 87 87 88 88 88 87 86 84 83 83 81 80 81 81 81 80 80 80 81 79 77 80 79 82
71 63 77 80 83 81 78 82 69 69 59 56 65 66 74 79 83 87 85 86 88 88 88 89 89 87 87 87 86 84 83 81 82 82 82 82 81 76 79 79 76 78 79 79
77 72 70 75 74 75 74 72 71 76 71 64 61 68 81 83 86 88 89 88 89 88 88 89 88 88 87 87 87 85 84 83 83 82 82 81 79 78 76 78 77 72 77 76
76 73 66 71 78 81 82 76 76 68 62 67 70 72 85 84 89 90 90 90 90 88 88 88 88 88 87 86 87 86 87 85 85 84 82 81 78 74 77 71 76 78 74 74
72 68 61 64 73 77 72 77 79 79 77 66 65 70 83 82 81 84 84 89 84 83 85 86 87 86 85 86 85 86 87 88 88 85 83 80 77 74 74 76 74 75 74 74
75 71 66 63 67 75 69 72 74 75 68 69 69 75 81 84 82 84 83 83 84 81 82 84 84 85 84 85 84 84 86 89 88 87 84 80 77 77 75 70 69 67 68 70
74 64 67 71 76 75 74 74 74 70 74 69 74 72 81 85 86 85 88 85 80 80 81 82 83 83 83 83 83 84 85 86 87 84 82 79 78 77 74 71 68 67 66 66
70 65 66 66 74 75 72 76 76 75 76 75 78 74 85 88 86 83 84 83 80 80 81 82 83 83 82 83 82 83 83 84 84 83 81 80 77 75 72 71 71 69 66 67
68 66 63 61 71 70 64 72 75 76 78 76 71 79 86 80 80 83 84 83 82 83 83 83 82 82 82 83 83 82 82 83 82 81 80 78 76 73 73 73 70 69 65 66
63 60 62 61 64 52 71 81 81 78 79 80 82 83 84 84 87 86 84 84 84 86 86 84 85 84 84 86 85 83 84 81 80 79 78 77 75 74 73 73 70 69 69 65
68 62 60 57 61 67 69 72 74 74 74 81 79 82 83 82 81 79 79 83 84 83 83 84 87 87 85 83 83 81 80 81 80 79 78 75 75 74 72 71 69 68 68 69
63 60 60 57 52 55 61 66 70 69 67 77 77 78 80 79 76 81 77 81 81 83 83 82 83 84 84 82 84 81 79 79 78 78 77 76 75 74 72 69 68 69 70 70
59 55 55 55 52 62 63 65 69 62 69 72 75 77 75 75 74 74 78 78 80 81 81 82 84 82 81 81 81 79 78 78 79 78 77 75 74 71 69 69 69 71 70 68
59 56 51 52 52 53 66 66 62 65 69 71 74 73 72 74 76 77 78 78 79 78 79 80 78 77 79 79 79 76 75 73 73 73 73 71 72 72 70 68 69 69 69 68
58 63 51 55 55 62 67 63 68 71 71 73 73 74 75 74 74 76 75 75 75 75 74 78 76 74 75 76 77 73 68 71 72 71 70 71 72 73 73 72 71 69 69 65
61 66 59 55 59 63 64 69 70 72 70 72 74 74 73 70 74 74 75 75 74 74 73 74 71 68 67 70 73 69 69 72 72 70 70 72 72 71 73 74 74 72 70 70
56 61 59 58 60 60 64 65 66 68 70 71 72 73 73 70 69 72 72 72 73 73 73 73 72 70 66 68 69 71 71 72 71 71 72 72 74 72 63 59 63 71 69 67
54 54 57 58 61 61 64 64 65 64 66 69 69 69 71 73 71 72 70 71 72 70 70 68 69 68 66 68 68 69 70 70 71 70 72 72 72 68 67 66 57 44 45 44

GFSCGP_sfc_temp_018.txt.gz
Temp
89 83 80 87 90 91 90 87 85 89 92 87 87 87 87 90 91 90 91 89 90 91 94 95 94 95 94 93 91 89 88 88 89 88 89 90 90 91 88 89 90 89 88 89
84 78 88 92 91 89 89 86 86 90 89 87 87 85 90 90 88 90 91 90 90 92 93 92 93 94 94 92 90 89 88 87 87 90 87 92 91 93 94 92 89 89 89 88
80 85 91 88 87 85 87 85 86 85 86 89 88 83 86 91 92 91 93 94 93 92 92 92 92 93 94 92 90 89 87 87 88 88 90 88 89 89 90 91 91 91 90 89
83 91 86 84 83 87 81 91 89 87 82 76 87 75 85 90 89 89 90 93 94 93 94 95 94 93 93 93 93 90 89 87 88 88 89 86 88 88 92 92 93 92 90 89
79 83 81 80 84 90 85 93 88 88 83 83 82 77 84 88 86 90 92 93 95 97 96 95 96 95 95 95 94 92 89 87 88 87 87 88 85 91 92 91 88 87 87 88
85 91 88 87 90 91 92 88 87 88 85 73 81 79 80 86 86 92 95 95 95 97 97 97 98 97 96 96 95 94 89 87 87 87 86 85 86 87 90 88 88 90 90 88
80 82 88 90 85 90 88 84 72 69 70 70 85 79 81 92 95 96 98 97 97 98 98 97 96 96 94 94 93 93 89 85 87 87 86 85 85 86 85 86 88 89 90 90
72 69 82 88 86 83 83 84 74 61 67 72 82 73 82 94 98 100 100 102 100 98 98 97 96 96 95 94 93 91 89 86 87 87 86 86 86 89 89 88 91 91 92 91
74 73 87 88 89 90 83 78 90 80 81 75 79 81 89 94 95 97 98 98 99 98 99 98 98 97 96 94 92 91 89 87 87 88 86 85 86 86 89 88 87 90 88 92
81 71 85 86 90 90 88 90 77 80 65 63 74 76 78 85 90 95 97 98 100 101 100 100 100 98 97 97 95 92 90 87 88 89 88 88 87 87 87 87 85 87 87 87
86 78 78 83 79 80 82 80 82 84 79 69 67 74 90 89 93 95 99 100 101 103 101 100 101 101 98 98 97 94 92 89 89 89 89 88 88 88 87 86 81 83 85 84
85 80 71 76 87 90 88 82 83 73 70 77 76 77 97 96 96 98 99 102 105 104 104 102 102 101 99 96 98 96 95 93 92 92 89 88 88 88 87 84 85 81 83 82
85 76 68 71 81 85 81 84 86 85 84 74 70 75 95 95 95 97 97 101 101 98 99 100 101 98 97 97 95 96 96 97 97 94 91 89 88 87 86 85 81 82 81 78
79 79 72 69 72 81 74 79 83 84 76 76 77 80 88 92 92 95 97 99 100 97 95 96 97 97 96 95 94 94 96 99 98 97 93 89 87 86 86 85 81 80 75 78
81 70 76 78 81 82 81 79 79 77 79 75 80 80 86 91 93 95 99 100 99 95 93 92 95 95 94 93 92 92 94 95 97 94 93 90 88 86 85 82 79 80 75 73
81 70 74 72 79 80 77 82 82 81 81 81 82 81 93 96 96 95 97 99 97 96 93 92 92 94 92 92 91 92 92 92 92 92 90 90 87 84 83 80 78 78 77 73
75 73 70 66 77 76 70 78 81 82 84 82 76 84 91 91 92 94 95 97 97 98 95 93 93 93 93 94 92 91 90 92 90 88 89 88 86 82 79 78 77 76 75 74
72 70 72 68 71 58 78 88 87 83 85 88 87 88 91 92 95 97 98 97 98 99 99 96 97 96 95 96 95 92 92 89 88 86 87 87 84 80 77 75 74 76 76 72
78 72 69 65 65 73 77 78 77 78 78 88 87 89 92 95 96 92 97 97 96 98 99 99 99 98 94 94 93 90 89 88 87 86 85 85 84 80 76 75 73 74 76 74
77 74 71 67 61 59 67 73 77 76 68 88 90 89 90 93 84 87 93 92 93 95 95 94 96 96 94 93 93 88 87 86 85 86 86 85 83 81 77 76 74 75 75 73
67 68 66 67 64 70 69 73 77 63 70 77 83 91 91 88 90 87 88 89 92 92 91 92 92 91 90 91 89 86 87 86 89 89 87 84 83 79 76 76 76 72 71 73
65 64 67 68 62 59 72 73 66 69 78 80 81 84 89 88 84 85 85 85 87 87 89 91 88 87 88 88 87 85 85 87 87 86 85 81 77 77 78 74 72 71 72 74
65 73 70 70 70 70 73 69 72 78 76 79 81 83 84 85 84 84 84 85 86 87 88 89 86 84 86 87 86 84 81 83 82 81 79 74 73 75 75 72 71 72 71 71
71 77 72 67 67 70 72 73 74 77 78 80 82 84 85 82 84 83 83 83 84 85 85 86 85 83 80 82 81 80 80 79 79 74 72 73 72 70 71 74 72 71 72 70
67 69 69 67 69 71 71 70 70 72 77 78 81 82 81 81 80 81 79 79 81 82 83 84 83 81 79 79 78 79 78 79 77 76 76 76 77 72 64 61 55 68 62 60
56 56 69 67 72 68 56 64 68 69 71 76 77 78 81 81 79 79 76 76 78 80 80 81 80 80 78 79 78 77 79 80 79 78 80 81 74 72 74 74 72 45 47 45

GFSCGP_sfc_temp_021.txt.gz
Temp
92 86 81 88 91 92 92 90 88 93 97 92 89 90 92 96 96 96 96 94 95 95 98 99 98 99 98 97 94 92 90 90 91 90 89 88 90 91 93 94 92 90 90 88
87 81 91 94 94 92 91 89 89 94 96 93 91 89 94 95 94 96 96 96 95 96 97 97 97 98 97 95 93 91 90 90 89 90 89 94 94 96 96 93 90 91 90 90
85 88 94 92 91 89 90 88 89 89 94 95 90 85 90 96 97 97 98 100 99 97 97 97 96 96 97 94 93 91 90 90 90 90 91 91 92 93 93 94 93 91 91 92
88 95 90 89 88 91 84 94 93 92 79 77 92 76 86 93 93 95 96 98 100 99 100 100 98 96 97 96 95 93 91 89 90 89 90 88 90 89 93 94 96 95 92 92
85 88 88 85 88 93 87 96 92 92 89 84 84 80 83 92 90 94 97 99 100 102 101 101 100 98 98 98 97 95 91 89 90 89 88 91 88 93 95 95 90 89 89 91
89 97 93 92 94 94 96 92 92 92 89 73 84 77 83 82 91 95 99 100 100 102 103 102 103 102 99 100 98 96 91 88 89 89 88 87 89 88 92 91 90 90 92 90
85 87 94 95 88 93 91 87 75 72 73 72 86 81 78 95 97 99 99 102 103 103 103 102 100 100 99 97 97 97 91 87 89 89 89 87 88 88 88 89 90 90 92 92
76 73 87 93 89 85 87 87 76 63 69 76 87 77 85 99 102 104 104 106 106 103 103 102 100 100 99 98 96 95 91 88 89 89 88 88 88 90 90 90 93 92 94 94
78 77 92 92 93 92 87 82 92 82 84 78 83 87 93 98 99 100 101 103 104 104 103 103 103 102 100 98 96 94 92 89 89 90 88 88 87 88 90 89 89 93 92 95
85 76 89 91 94 92 89 94 81 84 68 67 78 80 82 89 91 97 99 101 104 106 105 105 104 102 102 101 99 97 94 90 90 91 90 89 89 88 89 90 89 89 91 90
89 83 82 89 84 82 84 85 86 87 82 72 70 78 95 92 94 95 99 102 105 106 106 106 105 105 103 102 100 98 95 92 91 91 90 89 89 89 89 90 90 88 89 88
89 84 75 81 91 93 90 85 86 80 72 80 79 80 99 99 99 100 101 104 106 107 108 107 107 106 104 102 102 99 98 95 94 93 91 90 90 89 89 88 90 88 86 87
88 79 72 74 85 89 83 86 90 89 87 76 74 78 98 99 99 100 100 102 104 106 106 108 108 105 104 102 99 101 100 99 98 94 93 91 89 89 88 88 89 88 86 82
84 83 75 72 75 84 79 82 86 87 79 79 79 82 91 94 95 98 99 102 104 104 103 103 106 106 104 102 98 98 100 101 100 98 95 90 89 89 90 89 88 87 85 83
85 74 80 82 84 85 84 82 83 81 83 78 82 83 89 94 96 98 100 101 101 101 103 101 102 104 102 100 98 97 100 99 100 97 95 92 90 90 89 88 87 87 83 83
85 73 78 76 83 83 81 85 84 84 84 84 85 84 96 98 100 98 99 100 99 101 103 103 100 100 101 99 98 97 97 99 98 96 95 93 90 89 88 87 86 84 83 81
78 77 72 68 79 79 72 80 83 85 87 85 78 85 93 93 95 97 97 99 99 100 103 104 100 98 100 99 98 96 96 97 95 94 94 93 90 88 86 86 84 82 81 80
76 74 74 70 73 60 80 90 89 85 87 90 90 90 92 93 97 99 101 100 100 102 103 105 105 101 101 102 101 98 97 94 92 91 92 92 90 87 85 82 81 79 79 79
82 76 70 66 67 73 78 82 82 79 80 90 90 92 94 96 97 95 102 103 103 103 106 107 108 106 102 101 99 96 94 93 91 89 90 90 89 87 84 81 80 79 78 78
79 77 73 69 63 61 76 80 84 83 73 90 90 88 92 94 86 92 100 103 104 105 105 105 107 105 102 100 100 93 92 90 89 89 89 90 89 87 83 82 80 79 78 78
68 69 66 68 66 73 78 81 84 68 72 82 85 86 87 86 94 98 101 102 103 103 101 103 103 101 97 97 97 91 91 89 91 91 90 89 88 85 84 79 80 78 74 74
66 65 67 70 65 60 82 82 74 75 80 83 85 87 87 89 95 99 93 93 95 97 98 99 97 96 95 95 91 89 88 90 91 90 89 86 85 86 84 80 79 73 74 72
68 75 72 74 74 77 80 77 80 82 80 82 85 88 90 92 91 92 89 90 92 93 94 96 93 90 90 89 89 87 87 89 88 87 82 83 82 81 79 76 72 70 73 74
78 83 78 71 72 71 77 79 81 83 81 85 88 90 90 88 88 87 88 89 90 91 90 90 89 87 86 88 87 85 85 85 84 81 77 76 74 75 76 74 73 72 71 73
51 58 70 70 72 73 74 76 79 80 83 83 82 83 83 83 81 81 81 85 87 88 89 89 86 84 83 83 83 84 83 83 81 78 75 73 73 74 72 67 72 75 69 65
51 51 50 64 74 72 68 74 78 78 79 81 82 81 81 80 79 80 78 82 85 84 85 85 83 82 82 81 81 81 83 82 79 78 78 76 75 76 79 76 71 46 48 45

GFSCGP_sfc_temp_024.txt.gz
Temp
90 82 78 84 87 89 88 87 86 90 91 91 86 73 71 83 93 94 93 93 93 93 96 98 97 97 96 94 90 88 87 86 87 87 85 84 84 85 86 87 82 83 86 87
85 77 87 91 90 88 87 85 86 92 90 90 89 82 81 91 93 95 94 93 94 95 95 95 95 96 95 92 89 87 86 86 86 87 85 85 84 87 86 88 87 86 84 84
80 85 92 90 87 85 86 84 86 87 92 93 90 85 88 94 95 96 98 98 97 95 95 94 94 94 95 91 89 87 85 86 85 87 85 84 85 87 85 84 83 86 87 87
85 92 89 87 85 88 80 91 90 88 85 75 88 73 82 89 90 93 95 97 97 97 98 98 96 94 95 92 92 87 86 85 86 85 84 83 83 83 85 86 85 86 86 86
82 86 86 84 86 91 85 93 90 90 85 82 79 74 81 87 84 90 94 97 99 100 100 99 98 95 96 95 93 90 86 85 85 85 84 84 84 86 87 86 84 83 84 87
87 96 92 91 93 93 95 90 89 89 86 71 79 75 77 82 80 89 96 98 99 101 101 100 101 98 96 97 94 91 86 84 85 85 84 83 83 83 85 86 83 83 83 84
84 86 94 95 88 92 90 84 73 70 72 71 85 77 79 89 92 93 90 91 101 102 102 99 98 98 94 93 93 91 86 83 84 85 84 83 84 83 83 86 84 83 84 83
74 71 86 93 88 85 85 84 74 61 67 72 85 76 82 92 95 93 90 91 103 101 101 100 98 97 95 93 92 91 85 83 84 84 84 84 84 86 86 85 87 86 86 86
76 75 92 92 94 91 84 78 89 78 81 75 81 85 93 95 93 93 94 99 100 101 102 102 101 100 98 93 91 89 86 84 84 85 84 84 83 84 85 84 84 86 84 87
84 74 88 91 94 93 87 92 77 79 64 64 76 77 80 85 81 90 95 97 102 103 104 103 103 100 98 97 94 91 88 85 85 86 85 86 85 84 85 85 84 83 85 86
87 82 81 89 83 82 83 80 82 84 79 70 68 76 94 90 91 92 95 98 102 104 104 103 103 102 98 98 95 93 90 87 86 86 86 85 85 85 84 86 85 84 84 83
88 82 75 80 91 93 89 83 82 73 70 78 77 79 99 96 96 98 98 100 103 103 106 105 105 102 99 97 96 94 93 91 88 87 86 85 85 85 84 84 86 85 83 83
89 79 70 73 84 89 84 86 86 85 83 73 72 76 95 96 92 94 98 100 98 98 101 104 104 100 98 96 94 94 94 94 93 88 87 86 85 84 84 84 84 85 84 82
87 82 74 71 75 83 79 83 85 84 75 76 78 81 87 90 90 93 96 99 101 101 100 102 102 99 99 96 93 92 93 96 94 91 89 85 84 84 85 84 83 84 84 82
86 73 79 80 83 85 83 83 83 79 80 75 81 82 87 91 91 93 96 99 98 98 98 97 100 100 96 95 92 93 94 93 94 90 88 86 86 85 84 84 84 84 84 82
85 72 76 76 82 82 80 84 85 84 83 83 84 82 94 97 98 95 90 95 95 96 99 98 96 97 97 95 92 92 93 93 92 89 88 87 86 85 84 84 84 83 83 82
78 76 71 67 78 79 72 80 83 84 86 84 77 84 93 91 91 93 91 96 95 97 97 98 97 95 94 98 94 91 92 93 91 89 88 87 86 84 84 84 83 82 82 80
75 71 72 69 72 58 79 89 89 85 87 89 88 89 91 91 93 95 95 94 92 99 99 100 103 100 98 102 101 95 95 91 89 88 88 88 86 85 84 83 82 81 82 80
82 74 68 64 66 72 78 84 84 81 80 90 88 90 93 95 95 91 98 98 97 97 99 100 105 105 99 98 97 93 92 91 90 88 88 88 87 84 83 82 81 81 80 78
79 77 71 67 62 59 76 87 92 87 72 89 87 87 89 89 80 87 95 99 99 101 102 101 102 104 104 97 101 92 91 89 88 88 88 88 87 85 83 82 81 81 79 77
66 68 65 66 64 70 78 86 89 67 71 83 85 86 86 82 86 88 93 93 100 99 99 101 101 99 95 96 96 89 89 87 89 90 89 87 86 84 84 82 80 79 77 76
62 61 64 66 62 58 85 82 70 78 82 84 85 86 85 87 89 91 92 94 96 95 100 99 97 98 95 93 89 87 85 87 87 87 86 85 84 85 83 79 77 77 75 73
61 69 66 69 69 72 80 77 81 85 82 83 84 88 88 88 89 93 91 92 94 94 94 98 96 89 91 91 87 85 84 85 86 84 83 83 82 82 79 77 74 72 73 72
70 74 68 67 75 77 80 80 84 85 84 86 87 87 89 88 89 88 89 89 91 91 89 89 87 84 84 86 86 84 84 85 84 82 80 79 76 75 74 73 72 70 70 70
57 59 68 71 74 73 78 80 82 83 82 79 78 78 77 79 79 82 83 82 84 85 86 84 82 82 82 82 83 84 83 82 79 77 77 76 75 74 68 61 63 72 63 63
55 55 55 57 60 66 72 79 81 78 78 80 78 76 76 72 68 69 76 80 81 80 81 79 77 77 78 79 78 80 81 79 77 75 74 73 73 73 70 67 62 47 48 46

GFSCGP_sfc_temp_027.txt.gz
Temp
78 69 67 71 76 77 77 75 74 80 88 83 75 73 79 83 80 81 83 83 84 85 88 89 90 89 87 86 83 83 80 79 81 79 78 75 75 77 78 78 80 79 80 78
72 68 76 82 81 79 77 74 74 83 87 80 76 72 77 81 81 82 85 84 85 85 87 87 88 88 87 84 83 82 81 78 82 81 78 77 76 76 77 78 78 79 80 79
70 73 84 81 78 77 76 73 74 77 81 83 77 68 71 82 84 85 87 87 87 86 85 85 87 87 87 84 82 82 81 79 80 80 79 76 76 76 78 80 78 82 80 79
74 82 81 78 76 79 69 82 82 80 76 67 79 61 66 75 80 82 86 87 87 87 88 88 87 86 87 84 84 83 81 80 80 79 78 75 75 74 76 82 81 77 80 79
72 77 76 76 78 83 76 84 82 81 75 68 70 65 67 75 74 80 83 87 89 89 89 88 88 89 88 87 84 82 82 81 82 81 79 78 74 79 77 74 76 77 77 78
77 86 83 80 85 85 86 80 79 78 73 58 68 67 67 70 77 78 80 86 90 91 91 90 91 90 89 88 86 83 81 80 81 80 78 78 76 76 75 74 75 77 75 75
74 78 84 87 77 82 81 69 61 57 60 57 71 67 68 81 82 85 87 87 90 92 92 91 89 88 88 87 86 83 81 80 81 80 80 79 77 77 76 76 76 74 74 73
63 61 77 84 80 71 75 72 62 48 54 60 69 61 70 86 88 90 91 89 89 92 93 91 90 89 88 88 85 83 80 80 81 81 80 80 81 78 78 77 77 78 78 78
64 64 82 85 86 83 70 68 75 59 63 57 65 71 79 85 85 86 87 90 91 90 92 92 92 91 89 88 85 84 80 81 81 81 81 80 80 81 78 77 77 77 78 80
71 59 78 83 86 83 78 74 65 68 53 53 64 65 65 73 79 81 84 87 88 85 86 91 93 91 89 89 88 86 82 81 81 82 82 81 81 80 80 77 77 77 78 77
77 70 70 78 75 73 69 72 66 67 67 56 55 64 73 75 81 80 84 89 89 90 92 93 94 93 90 90 88 86 83 82 81 82 82 82 81 81 80 79 77 78 78 76
79 71 63 69 80 85 81 74 67 60 52 59 61 64 82 85 83 86 87 88 90 93 95 96 95 93 89 89 89 86 83 82 82 83 82 81 81 81 80 81 79 79 79 75
79 71 59 63 71 79 76 78 75 73 62 60 54 64 85 85 83 84 83 87 89 86 85 94 95 92 90 89 88 88 86 83 84 83 82 81 81 80 80 80 81 80 80 77
74 75 68 61 65 68 68 75 77 73 63 62 66 66 73 76 79 81 87 90 92 85 86 85 94 92 91 90 88 88 87 86 85 83 82 81 81 81 81 81 81 78 80 79
66 64 72 73 75 75 75 75 77 72 73 62 68 68 73 78 79 79 84 84 91 87 84 81 92 91 90 89 87 88 88 88 86 83 82 82 82 82 81 81 80 81 78 79
58 57 70 67 76 76 73 77 78 78 77 74 72 70 73 78 82 82 81 89 85 83 86 84 84 91 90 89 87 87 87 87 88 84 83 83 82 81 80 80 80 79 80 78
53 52 56 58 68 70 65 73 75 75 79 76 69 75 77 76 77 80 80 81 91 85 86 85 84 84 90 89 89 86 87 88 87 85 84 83 82 81 80 80 79 78 78 77
56 55 58 56 59 51 67 79 81 77 78 80 76 76 77 76 78 80 82 81 82 85 88 85 89 83 82 91 90 89 88 87 85 84 83 83 82 81 80 80 79 79 79 79
67 58 56 51 55 59 69 74 73 71 70 78 76 78 80 81 79 75 79 82 84 84 88 85 85 86 85 85 90 88 87 86 86 83 83 83 82 81 80 79 79 80 78 74
67 67 58 53 50 51 61 76 82 79 60 75 75 74 75 76 65 68 73 80 79 83 84 91 88 86 84 83 89 86 86 85 84 85 84 84 83 82 80 80 79 79 77 76
55 57 56 54 52 58 70 78 83 61 60 72 75 75 74 69 70 75 79 79 76 80 81 83 84 84 81 83 88 85 86 86 86 86 83 83 84 81 81 80 79 77 75 73
47 43 51 55 50 48 72 76 68 65 68 75 75 74 74 73 74 75 78 78 78 76 81 81 80 81 83 81 85 84 83 84 82 81 82 80 80 81 80 78 75 73 72 72
49 52 47 57 56 65 69 66 68 73 72 74 73 74 77 77 75 75 74 77 78 78 76 77 76 75 76 77 85 80 77 80 80 80 78 78 77 77 75 73 72 71 70 70
56 57 53 56 65 66 69 67 67 71 69 72 72 73 71 68 72 73 73 74 74 74 74 75 77 75 74 76 77 78 79 80 80 77 74 73 72 71 71 71 71 69 68 67
51 53 52 53 58 65 70 68 66 68 71 71 70 68 67 67 66 67 68 71 73 73 73 74 74 74 74 76 76 78 78 78 74 72 71 70 69 64 59 54 58 66 58 65
52 48 50 50 53 53 53 60 67 70 70 70 68 67 68 66 64 65 63 67 71 71 71 71 71 72 72 74 73 73 73 73 71 69 69 67 65 63 61 60 57 48 47 46

GFSCGP_sfc_temp_030.txt.gz
Temp
71 63 63 65 67 70 68 66 65 73 79 75 73 75 76 79 79 78 78 79 80 82 85 85 85 85 84 81 81 81 81 80 79 74 73 72 72 74 75 76 78 79 77 77
64 62 69 74 73 72 70 68 68 72 79 74 71 75 78 79 79 79 79 79 80 82 83 84 83 84 84 81 81 81 79 80 79 79 79 75 74 74 75 75 76 77 78 77
64 67 77 74 72 70 70 67 69 68 75 76 72 67 69 77 80 81 82 83 83 82 82 83 83 83 84 83 80 81 79 79 80 79 77 73 73 73 73 74 75 76 80 77
67 75 74 72 70 72 61 76 76 73 67 62 73 55 65 72 74 77 80 81 82 83 85 84 85 82 84 83 83 82 79 78 79 79 79 78 74 72 73 75 79 76 77 77
65 71 71 70 72 76 68 77 74 73 65 61 63 57 60 69 68 71 77 81 83 85 85 84 85 86 85 86 83 82 80 78 79 79 80 79 75 76 74 73 75 73 75 76
72 78 76 75 79 78 80 72 70 65 63 53 65 64 58 69 71 76 79 82 85 85 86 87 88 88 86 86 84 82 80 79 79 79 79 78 77 74 72 71 71 72 76 75
68 72 75 79 70 74 73 59 51 52 53 52 61 58 67 75 78 81 82 82 86 87 87 86 85 86 85 84 83 82 79 79 79 78 79 78 77 76 74 72 73 72 72 70
58 56 71 77 73 68 64 67 55 44 45 51 60 55 67 79 83 85 87 87 88 87 88 87 86 86 86 84 82 81 79 79 79 79 78 79 78 79 77 74 74 77 78 76
54 59 73 79 79 77 65 60 69 53 48 50 56 62 71 77 78 84 86 86 86 88 89 88 87 87 87 84 82 81 79 80 79 80 79 79 79 79 77 74 75 75 77 76
64 53 69 77 79 78 74 69 57 49 50 49 53 57 63 68 74 77 83 85 87 88 90 90 89 88 87 87 84 82 81 80 80 80 80 80 79 80 78 75 75 76 76 76
73 60 63 67 68 67 68 64 56 61 58 54 47 60 69 71 72 76 82 86 87 88 88 91 91 90 89 88 85 82 81 81 80 81 81 80 79 79 80 76 77 77 77 76
68 65 59 65 72 76 76 70 62 60 50 52 62 63 75 76 76 78 82 86 89 91 86 90 92 92 88 86 86 83 81 81 81 81 81 80 80 79 78 79 78 77 77 77
58 58 55 56 66 72 65 70 73 55 54 59 52 58 74 73 74 77 78 81 84 82 81 84 86 89 88 86 86 84 82 82 82 81 81 80 79 79 78 79 80 77 78 75
56 52 56 58 60 65 60 70 69 69 62 59 61 58 67 68 73 74 79 83 83 83 84 85 85 88 88 86 86 85 83 83 83 82 81 79 79 79 79 79 79 78 78 75
47 41 51 58 68 72 69 69 71 67 71 64 67 63 67 70 74 74 79 83 84 87 88 89 90 89 88 86 86 85 85 83 83 81 81 80 80 80 80 79 78 79 78 78
46 41 47 51 65 71 69 72 72 73 73 71 63 63 72 77 73 76 77 80 81 80 82 79 89 92 88 87 85 86 85 83 83 81 80 81 80 79 79 78 78 77 76 77
41 41 42 42 59 67 62 70 70 70 74 73 64 68 70 71 74 74 74 76 82 81 83 78 85 90 90 89 88 85 85 85 83 82 81 80 80 78 78 78 77 76 76 74
46 44 43 42 48 48 70 79 79 71 72 73 74 73 74 76 75 77 76 77 80 82 82 80 81 86 90 91 88 87 86 84 82 81 81 81 79 78 78 77 77 76 77 76
55 51 44 41 42 56 65 69 72 66 67 73 72 75 77 76 72 70 75 74 79 81 80 82 82 83 83 89 88 86 83 83 82 81 81 80 80 78 77 77 76 77 76 76
59 59 51 48 43 45 60 72 77 73 57 70 74 71 73 71 62 64 72 76 77 75 78 80 81 81 88 86 88 86 83 82 81 82 82 81 81 79 78 78 77 78 78 76
46 46 45 48 48 52 64 72 74 59 58 68 69 69 70 66 67 72 72 73 74 77 76 77 75 78 81 85 86 84 83 82 84 85 84 82 81 80 80 79 79 78 77 74
43 42 43 49 47 46 66 65 62 63 63 70 70 68 69 68 69 71 72 72 73 73 75 77 77 75 77 77 84 83 81 85 85 84 83 81 80 81 80 79 78 76 74 73
42 48 47 48 48 56 61 59 63 66 63 63 66 68 70 67 66 68 68 69 70 70 71 72 74 73 72 72 81 81 82 84 80 81 80 79 78 79 79 77 75 73 72 71
52 54 50 51 56 54 55 58 64 65 63 65 66 66 69 66 67 67 68 68 68 69 70 71 71 70 71 72 74 78 77 80 80 80 76 76 76 75 76 75 74 72 70 69
50 52 49 50 55 56 57 57 60 64 66 66 66 65 64 65 63 66 66 67 68 68 68 70 70 71 71 72 72 74 76 79 76 75 75 73 71 68 60 58 65 68 62 67
49 47 48 48 52 52 52 57 64 63 64 64 65 65 65 64 61 63 63 64 66 67 68 68 68 68 69 70 69 71 73 74 72 69 68 66 64 62 61 59 56 50 49 52

GFSCGP_sfc_temp_033.txt.gz
Temp
66 60 56 62 63 66 65 62 62 67 74 70 67 68 72 76 76 76 76 77 76 77 80 82 82 83 82 81 79 79 79 79 78 75 73 70 71 72 72 74 76 75 77 76
60 59 65 69 68 67 65 63 64 67 74 69 69 68 73 75 75 76 77 77 78 78 79 80 80 82 81 79 79 79 79 78 78 78 79 74 72 72 74 74 75 76 77 77
62 62 71 69 66 65 61 61 65 65 68 70 67 61 67 74 76 78 79 80 80 80 80 77 80 80 81 79 79 79 79 79 79 79 76 71 71 72 71 72 73 75 76 77
61 71 70 65 65 66 55 69 70 68 62 56 67 51 60 70 71 74 76 77 79 80 82 82 78 79 81 80 80 80 79 79 79 78 78 78 74 72 70 72 73 73 76 76
61 65 67 64 68 69 65 72 69 66 60 54 60 54 58 68 67 71 75 77 79 81 82 82 82 81 82 83 80 80 78 79 79 78 80 78 76 77 71 71 73 72 73 75
70 72 73 69 73 74 72 67 63 59 56 49 63 58 60 64 69 73 76 79 80 81 83 84 85 84 82 84 82 80 77 77 78 78 78 77 77 74 71 69 70 70 71 73
63 68 69 74 65 67 66 56 47 45 45 49 60 55 65 69 77 79 77 79 82 83 83 83 83 83 82 82 82 80 77 76 78 77 77 77 78 76 75 72 71 70 70 70
53 51 67 71 67 63 60 61 44 39 41 49 55 52 63 76 78 82 85 84 83 83 84 84 84 84 84 82 81 80 77 77 77 77 77 78 78 78 77 74 73 73 73 75
54 55 69 74 73 72 60 58 64 48 43 45 51 59 66 74 75 76 78 81 82 83 84 85 86 85 85 83 81 80 78 79 78 78 78 77 78 77 76 72 74 74 74 76
59 51 64 71 73 71 68 64 54 44 45 44 48 53 58 65 73 72 77 78 82 85 85 86 87 86 86 85 84 82 80 79 79 79 79 79 78 78 77 74 73 72 73 75
54 53 57 65 61 65 59 58 53 56 49 48 42 55 65 68 72 72 75 80 84 85 85 87 87 88 87 87 84 81 81 80 79 79 79 79 78 78 77 75 74 74 74 73
53 47 55 61 66 74 70 63 55 50 49 49 59 57 69 76 74 74 75 79 84 87 88 88 89 89 88 85 84 81 81 80 81 81 80 79 79 78 77 77 75 76 75 74
50 42 43 50 54 60 61 65 68 65 51 57 51 53 69 73 72 73 73 75 80 84 83 86 89 88 86 86 84 82 81 81 82 81 80 79 79 77 77 78 77 75 76 75
50 40 42 45 50 58 57 63 66 64 56 60 60 56 60 66 69 73 71 74 76 80 81 84 86 88 87 86 84 82 81 82 82 81 80 79 79 78 77 79 78 77 77 76
44 35 42 48 53 56 59 65 68 61 65 60 64 61 66 67 69 71 74 73 75 77 82 82 84 83 83 84 83 83 82 81 82 80 79 79 79 80 78 78 78 78 76 77
42 37 41 44 56 58 58 64 68 69 69 65 64 59 68 75 69 70 75 74 73 76 81 81 84 85 86 86 83 84 82 80 82 80 79 80 79 79 78 77 77 76 76 76
38 37 37 34 49 51 52 61 66 69 71 69 63 64 69 69 68 70 71 72 75 76 82 79 79 83 86 88 86 83 83 83 81 80 80 79 79 78 78 78 76 75 75 76
39 37 38 35 41 38 60 70 73 70 70 68 67 69 69 76 76 74 71 73 73 76 77 78 77 80 87 88 87 87 85 82 80 79 79 79 78 78 78 77 76 76 76 74
49 45 36 35 36 47 60 65 66 63 64 69 72 71 70 73 69 68 72 72 75 75 78 81 81 79 81 86 86 84 81 82 80 79 79 79 79 78 77 76 76 76 77 75
49 49 46 39 36 38 51 60 66 66 61 74 70 70 70 68 63 72 71 75 76 74 75 78 76 76 77 79 83 81 79 80 78 79 80 80 79 78 77 77 77 77 78 79
38 40 37 40 40 45 56 59 63 52 62 67 68 72 66 66 73 73 72 72 75 76 75 74 73 76 80 79 82 80 80 79 82 82 82 81 81 79 79 78 78 77 77 78
38 39 37 41 40 38 56 58 51 54 58 65 66 65 65 66 67 70 70 70 71 75 74 73 72 73 72 74 78 79 79 82 83 82 81 80 80 79 79 78 77 76 75 75
39 43 40 47 47 52 54 57 59 60 58 63 67 64 70 66 65 66 66 67 68 68 69 69 69 69 69 67 76 76 79 81 81 79 79 79 79 79 80 76 75 74 74 74
48 48 46 48 53 54 56 58 58 59 59 62 64 65 69 64 65 65 66 66 67 68 69 69 69 69 69 70 69 67 70 73 73 76 77 75 74 74 77 75 75 75 74 73
43 47 47 49 53 56 58 58 57 60 62 63 63 62 61 65 63 65 65 66 67 67 68 68 70 70 70 70 70 70 71 70 70 71 72 70 71 70 65 57 67 74 67 70
47 47 46 45 52 52 52 56 58 58 58 60 61 60 61 61 60 63 63 64 65 66 66 67 67 69 69 69 69 70 70 70 70 69 67 64 63 62 61 61 58 51 54 54

GFSCGP_sfc_temp_036.txt.gz
Temp
62 56 54 57 59 62 62 59 60 64 70 68 65 64 67 73 74 73 72 72 73 74 77 79 79 80 79 78 75 75 74 74 74 73 72 72 73 73 74 75 76 76 76 77
56 56 62 66 64 64 62 59 60 64 72 66 65 66 69 72 73 74 74 73 73 75 76 77 78 79 78 77 76 75 75 75 75 76 76 75 75 73 75 75 76 76 76 77
61 59 67 66 61 61 57 59 59 60 67 66 63 59 63 71 72 75 76 76 77 76 75 75 77 78 79 77 76 76 75 76 76 76 75 72 73 73 72 73 74 75 77 77
58 68 67 61 62 63 50 64 67 65 59 54 63 50 57 66 68 72 74 75 76 77 78 77 78 78 78 78 78 77 76 76 76 76 75 74 75 74 75 73 74 75 76 76
59 62 63 62 65 66 61 69 65 64 58 52 56 52 56 63 63 68 72 75 78 80 80 78 78 79 80 81 79 78 76 76 76 76 76 75 75 75 73 73 74 73 74 76
64 68 69 66 69 69 69 63 58 54 52 46 56 56 52 56 65 69 73 76 78 80 81 82 80 81 81 82 80 78 76 75 76 75 76 75 75 73 72 71 72 73 73 74
60 64 64 69 62 63 64 54 42 41 42 49 54 53 63 64 72 74 74 76 78 80 81 81 80 79 79 78 79 78 75 74 75 75 75 76 75 74 73 73 73 71 72 72
53 49 64 67 64 59 58 53 42 37 38 47 51 50 58 71 75 77 80 80 81 80 81 81 81 81 79 79 78 77 75 74 75 75 75 76 76 77 76 75 75 75 74 75
51 52 65 69 68 70 54 54 59 46 40 43 48 55 66 69 71 74 77 79 79 80 82 82 83 83 82 80 79 77 76 75 75 76 75 75 76 76 76 74 75 75 75 76
54 48 61 69 70 68 62 62 51 42 39 37 44 48 55 61 68 71 71 76 80 81 82 84 84 84 84 83 81 80 78 75 77 77 77 77 76 76 76 75 74 74 74 75
47 50 53 61 60 62 55 55 49 54 45 43 39 48 60 64 70 75 77 76 78 80 82 84 85 85 85 84 82 80 79 77 77 77 77 77 77 77 77 76 75 75 74 74
46 41 48 53 60 69 70 59 52 47 44 47 44 51 65 70 72 72 76 80 77 79 82 84 86 86 85 83 82 81 80 79 78 78 77 77 77 77 76 75 76 75 74 74
48 40 40 47 57 58 57 61 62 59 48 50 47 51 69 66 70 72 70 72 73 75 75 80 83 84 83 82 81 81 80 81 81 79 78 77 77 76 75 76 77 75 74 73
50 37 39 39 43 48 48 57 60 62 56 56 57 56 60 65 67 69 69 71 73 72 73 75 80 83 83 82 81 79 80 82 81 80 78 77 77 76 77 77 77 75 75 74
43 37 38 43 48 51 52 54 57 56 61 56 61 60 62 64 67 71 70 69 71 73 73 73 79 82 81 80 80 80 80 79 80 78 78 77 77 77 77 76 76 76 76 75
40 37 38 40 51 52 49 54 57 59 60 60 63 58 67 72 67 68 70 71 71 71 73 73 77 80 78 80 79 80 79 79 79 78 77 77 77 77 76 75 76 75 75 75
36 35 35 34 45 46 45 55 59 59 62 62 57 63 68 66 66 69 70 69 71 71 73 73 74 77 79 80 81 80 79 80 78 77 77 77 77 76 76 76 75 75 74 75
35 34 35 33 38 33 50 59 63 64 66 66 64 68 70 73 74 73 73 76 74 73 72 74 78 80 82 85 85 82 81 78 77 77 77 77 76 76 76 76 75 75 76 75
43 36 33 32 33 46 52 57 54 50 55 68 67 68 68 75 73 67 69 70 73 72 74 76 81 83 81 77 79 77 77 78 77 76 76 77 77 76 76 75 75 76 76 75
43 45 39 33 32 34 47 57 61 59 47 64 66 71 71 66 62 70 71 71 71 72 72 72 74 75 76 77 79 77 77 76 75 77 77 78 77 76 76 76 76 77 77 76
32 36 33 36 35 41 53 56 61 49 52 57 57 57 67 65 75 76 71 71 72 73 73 73 72 74 73 72 77 76 76 75 78 79 79 78 78 77 77 77 77 77 77 76
32 31 31 34 32 34 56 56 53 53 56 59 59 59 59 65 67 69 70 70 70 73 71 71 70 67 69 72 73 72 72 77 77 77 78 77 77 78 79 77 77 77 75 75
33 39 36 39 40 50 53 54 57 57 58 59 59 60 62 68 65 67 66 67 68 68 68 69 68 69 70 68 68 70 69 74 75 75 74 75 76 77 78 76 75 75 75 75
41 43 41 42 49 52 54 56 57 58 59 61 62 61 65 64 65 65 66 66 67 68 68 69 70 70 70 71 71 70 72 73 72 72 72 72 73 74 76 76 76 75 75 74
39 39 38 43 49 52 55 55 56 59 61 61 62 62 65 66 66 67 66 67 67 67 68 70 70 69 69 70 70 71 72 72 70 70 70 69 69 62 61 60 58 63 59 64
42 39 37 39 48 51 52 54 58 59 59 61 61 62 64 65 64 64 64 64 65 64 66 66 66 66 66 68 68 69 69 70 67 65 64 63 63 64 64 64 62 52 53 53

GFSCGP_sfc_temp_039.txt.gz
Temp
75 69 64 69 72 74 73 71 72 78 82 80 78 79 84 83 83 81 80 79 80 80 84 85 85 86 85 84 82 81 80 80 81 81 81 81 81 83 85 86 85 84 85 85
67 64 73 74 72 71 71 70 72 77 79 78 78 78 82 82 81 82 81 79 80 82 83 83 84 85 84 83 82 81 80 80 80 82 82 84 84 86 86 87 86 86 86 85
67 72 75 71 69 68 70 69 72 72 76 79 76 75 76 79 82 83 84 83 83 82 82 83 83 83 85 83 82 81 80 81 81 82 82 82 84 83 84 85 86 86 86 86
70 77 71 70 68 70 65 74 74 72 70 67 78 66 71 78 76 79 82 82 84 84 84 86 85 84 84 84 84 83 81 81 81 81 81 80 82 82 85 86 87 87 86 86
68 70 68 67 69 73 69 76 73 73 71 71 71 67 75 74 73 77 81 83 85 87 86 85 86 86 87 87 86 84 82 81 82 81 81 81 81 85 87 86 84 83 85 85
75 77 75 73 75 75 78 74 72 71 71 60 69 68 71 74 75 80 82 84 85 87 88 88 88 88 87 88 87 85 81 80 81 81 81 80 81 82 84 82 84 85 86 86
70 70 76 78 71 75 75 70 59 57 57 57 74 67 70 81 83 87 84 84 86 87 88 88 87 86 86 86 86 85 81 79 80 81 81 81 81 81 81 82 84 84 86 86
62 58 71 76 74 69 70 71 62 52 57 63 69 62 71 83 88 88 90 90 89 87 88 88 88 87 86 86 85 84 81 79 80 81 80 81 81 84 84 84 86 86 87 87
63 64 75 76 78 77 69 65 76 66 61 61 68 72 78 81 84 86 86 87 88 88 88 88 89 90 88 86 84 84 81 80 80 81 80 80 81 81 84 83 83 86 85 88
68 61 73 75 79 78 73 77 62 66 54 53 63 64 70 75 79 84 86 86 88 90 90 90 91 91 90 89 87 86 83 80 81 82 82 82 82 82 83 83 82 84 85 84
63 65 64 73 70 69 68 68 70 71 66 59 59 66 78 78 82 83 86 88 91 91 91 91 91 92 91 91 89 86 84 83 82 82 82 82 82 83 83 84 83 83 83 84
58 63 62 65 77 81 76 71 71 62 57 64 66 68 81 83 85 87 88 91 92 92 93 92 93 92 91 90 91 88 87 86 84 84 82 82 82 82 83 83 84 84 82 83
59 56 57 61 69 72 70 74 74 74 73 61 59 66 84 81 82 85 85 87 87 85 88 91 93 91 90 90 87 88 88 89 88 85 84 83 82 82 82 82 83 84 82 83
59 55 56 59 61 60 58 66 72 72 65 65 65 70 77 81 81 83 84 86 87 85 86 87 88 90 90 89 86 86 88 90 89 87 85 82 82 82 83 83 82 83 82 82
56 50 52 55 56 57 57 59 62 63 68 65 69 70 75 79 82 84 88 86 84 84 85 85 87 88 87 87 86 86 87 87 88 85 84 82 82 82 82 82 82 83 83 82
54 50 51 51 57 58 56 60 61 62 64 65 68 68 80 84 84 85 86 87 84 84 88 88 86 86 86 86 85 85 85 86 86 84 83 82 82 82 81 81 81 81 82 82
48 50 48 46 54 55 52 60 62 64 68 68 62 71 79 78 79 80 82 85 84 86 86 88 87 86 86 87 86 85 85 86 84 82 83 83 82 81 80 81 81 80 80 82
46 46 49 48 50 41 62 69 68 67 71 73 73 75 78 80 84 85 84 84 88 89 90 89 90 89 89 91 92 87 88 84 82 82 83 83 82 80 81 81 80 80 81 80
50 48 46 44 47 54 58 64 65 63 66 71 73 76 80 84 84 82 88 88 86 89 91 91 94 94 91 91 89 87 86 84 83 82 82 82 82 81 81 80 80 81 81 81
50 49 46 45 41 42 59 68 75 68 56 71 67 69 75 80 73 80 87 88 87 87 89 89 90 89 90 87 92 86 84 83 82 83 83 83 83 81 80 80 80 81 82 82
40 41 39 42 42 50 62 66 67 54 61 67 69 69 68 66 76 82 88 88 86 88 87 87 86 85 85 86 87 83 84 82 84 86 86 84 83 82 82 80 80 78 80 82
42 39 39 41 39 37 66 66 58 64 67 68 69 71 68 69 71 74 76 82 86 84 86 86 84 83 82 82 82 82 81 84 86 85 84 83 82 84 84 80 78 77 77 77
39 47 44 47 48 58 64 60 64 70 64 67 68 70 71 69 70 73 75 81 82 82 80 82 80 78 78 79 82 81 80 83 83 82 82 82 82 83 83 79 74 75 75 78
49 53 45 47 53 56 60 64 65 68 66 69 69 69 69 66 70 73 77 80 77 76 74 78 79 74 72 75 78 80 80 82 82 82 81 82 81 81 82 84 84 80 79 79
48 49 47 46 50 53 56 60 63 65 68 69 70 68 65 68 73 76 76 71 73 73 73 76 77 76 76 76 74 78 80 81 80 80 80 80 77 71 68 67 72 72 66 72
48 45 42 43 53 52 54 60 64 64 65 69 66 62 66 72 73 73 68 68 69 69 70 70 71 70 70 71 71 71 73 75 72 69 69 68 68 69 75 72 64 51 51 50

GFSCGP_sfc_temp_042.txt.gz
Temp
81 75 72 79 81 83 84 82 80 86 91 87 86 87 90 94 92 91 90 88 89 89 92 93 93 94 93 92 89 87 86 86 87 87 88 88 89 90 92 93 92 91 90 90
77 71 81 84 84 81 81 79 80 86 88 86 86 85 91 94 92 92 92 89 90 91 91 91 91 92 92 90 89 87 86 85 86 89 89 91 90 93 93 94 92 91 91 90
75 79 84 81 79 76 77 77 79 80 86 88 85 82 86 92 94 94 96 95 93 92 91 91 91 91 93 90 89 87 86 86 86 88 89 88 90 90 91 92 92 92 91 92
78 85 80 79 77 78 73 83 82 81 78 74 86 72 84 90 90 91 94 95 94 94 94 95 93 92 92 91 91 89 87 86 86 86 88 85 87 88 91 92 94 94 92 92
74 78 78 76 77 82 77 86 81 80 78 78 79 75 82 89 86 89 93 95 95 96 96 95 95 94 95 94 93 91 88 86 87 86 86 87 86 91 93 93 91 89 91 91
81 87 85 82 83 84 84 81 80 79 78 68 77 77 78 84 85 90 94 96 95 97 97 97 98 97 95 96 95 93 88 86 86 86 84 86 86 87 91 90 91 92 93 93
76 79 84 85 79 83 81 76 66 64 65 65 81 76 79 89 94 94 95 96 97 97 98 97 95 96 95 94 93 93 89 84 86 86 86 85 86 86 87 88 90 91 93 94
68 65 79 84 80 77 76 77 70 58 64 70 80 71 79 92 96 96 98 101 100 98 98 97 96 96 95 94 94 92 89 85 86 86 86 86 86 89 90 90 93 93 95 95
71 71 84 84 85 84 76 73 84 76 76 71 79 80 88 92 93 94 96 98 100 99 98 98 99 98 96 94 93 92 89 86 86 87 86 86 86 86 90 89 89 93 92 96
77 70 82 83 85 86 83 84 72 76 61 60 73 74 77 83 86 92 94 98 100 101 100 100 100 99 99 98 95 93 91 87 87 88 88 88 88 87 88 90 88 89 92 91
76 76 76 81 76 76 77 76 78 80 76 67 66 75 90 87 89 90 95 98 100 101 101 101 101 101 100 100 98 95 92 89 88 89 89 88 89 89 88 89 89 89 89 90
75 75 70 74 84 87 84 78 79 70 66 73 74 78 92 92 95 95 96 98 102 103 104 104 104 103 101 99 100 97 95 93 91 91 89 88 89 88 89 88 90 90 89 89
71 69 65 69 78 82 78 80 83 82 81 69 68 75 90 90 90 93 95 98 99 100 102 104 105 103 100 100 97 98 97 97 96 92 91 89 88 88 88 88 88 90 88 89
64 69 68 67 70 77 72 78 80 80 72 74 74 78 84 87 88 91 93 95 97 97 96 98 100 102 102 99 98 96 98 99 98 96 92 89 88 88 89 89 88 89 89 88
66 62 63 70 66 67 74 76 78 76 77 72 78 78 83 88 90 91 93 94 94 94 95 96 97 99 99 98 96 95 96 97 98 95 93 90 88 89 88 88 88 89 88 89
64 58 60 60 66 65 64 70 73 77 79 78 79 79 90 92 91 91 92 92 93 95 97 97 97 98 98 97 96 95 94 95 95 94 91 90 89 88 87 87 87 87 87 87
57 59 56 56 66 65 59 67 70 73 76 76 71 79 86 85 85 87 88 91 92 94 96 98 98 97 98 100 98 95 94 94 92 91 91 89 89 87 87 87 86 86 86 87
55 55 58 57 60 48 69 81 77 73 76 79 79 81 84 85 88 90 92 91 92 95 97 98 102 104 101 103 105 99 98 92 90 88 89 89 88 87 87 86 86 85 87 86
60 56 54 52 54 62 68 70 70 70 71 80 79 82 85 88 88 87 93 95 95 96 99 100 105 106 105 105 104 99 94 94 90 89 88 89 89 87 86 85 85 86 86 86
60 57 54 55 48 48 66 76 78 77 63 79 79 79 80 85 78 85 94 97 97 99 99 99 101 104 104 102 104 99 94 92 89 89 89 90 89 88 86 86 85 86 86 86
51 51 48 50 50 59 71 73 75 58 64 77 78 78 77 76 80 82 86 87 91 91 93 97 97 97 98 99 97 95 93 91 92 93 92 90 90 88 87 87 86 86 86 87
50 48 49 50 48 46 72 71 63 69 71 73 74 76 75 78 80 83 84 84 86 88 90 95 95 94 96 94 91 90 88 91 92 92 91 90 88 89 90 86 86 85 84 83
47 55 54 55 56 66 71 71 73 73 70 71 72 75 77 77 79 81 82 83 85 86 91 96 93 91 90 89 88 87 88 90 90 89 88 88 88 88 89 85 84 85 84 86
56 61 54 54 59 62 66 69 71 72 71 72 74 75 77 76 79 79 80 83 85 88 90 90 89 88 86 87 88 88 88 88 87 86 86 87 86 85 87 89 89 88 88 86
56 59 55 55 59 61 64 67 68 69 71 72 74 76 76 77 78 78 78 81 85 87 87 88 87 86 84 83 86 88 87 87 86 86 87 87 89 85 87 88 84 89 90 82
57 53 51 50 60 60 61 67 68 67 68 68 70 72 75 77 76 77 77 82 82 79 80 84 81 78 77 75 75 83 87 87 87 86 88 90 90 89 87 83 74 50 50 46

GFSCGP_sfc_temp_045.txt.gz
Temp
86 79 75 81 85 86 88 86 85 90 96 91 89 88 90 96 97 96 95 93 93 94 96 97 97 97 97 95 92 91 90 89 91 90 89 90 90 91 93 95 94 93 92 92
80 75 84 88 88 85 85 85 86 91 95 92 89 88 93 95 96 97 97 94 94 95 95 95 95 96 95 93 92 90 89 89 89 91 90 92 92 94 94 95 94 93 93 92
79 82 87 86 85 82 83 82 85 85 91 94 89 85 88 96 99 99 100 98 97 95 95 94 94 94 96 93 92 90 88 88 88 89 91 91 92 92 93 93 94 94 93 93
83 90 85 84 82 85 78 88 88 86 85 78 89 74 85 92 93 95 98 99 98 97 97 97 96 95 95 95 94 92 89 88 88 88 89 86 88 88 92 93 95 95 93 93
79 84 83 80 82 87 82 90 86 86 83 83 83 79 85 91 88 93 97 100 101 100 99 98 97 96 97 97 95 93 89 87 88 87 87 89 87 92 94 95 91 90 91 92
85 93 90 87 89 89 90 86 86 85 82 71 79 81 82 88 90 95 98 100 101 102 101 100 100 99 98 99 97 95 90 87 87 88 86 87 86 87 91 92 93 94 94 94
81 84 89 91 84 89 86 81 70 67 69 68 83 79 82 93 97 98 98 100 102 103 102 100 99 98 97 97 96 96 89 86 87 88 87 86 87 87 88 90 92 93 95 95
73 69 84 89 86 82 81 81 71 60 66 72 82 74 82 96 100 103 103 104 104 103 103 101 100 99 98 97 96 95 90 87 88 87 86 86 87 91 90 91 95 95 96 97
75 74 88 89 90 89 81 77 88 79 82 77 81 84 92 97 97 99 99 102 103 103 103 103 102 102 100 98 96 94 92 88 88 88 87 87 87 87 90 88 90 94 93 98
82 73 86 88 91 89 87 89 75 79 66 66 77 79 81 87 91 96 97 99 102 104 104 104 104 102 102 101 99 97 93 90 89 89 89 89 88 88 89 90 89 90 92 94
84 80 80 87 81 79 81 81 82 84 80 71 70 78 94 92 93 94 98 100 102 105 104 105 105 105 103 103 101 98 96 93 91 90 90 89 89 90 89 90 91 90 91 92
83 79 72 80 88 90 88 83 82 74 71 79 80 81 97 99 98 98 97 101 104 106 107 107 106 105 104 102 102 100 99 96 95 92 90 90 90 90 90 89 91 91 90 90
78 73 67 73 83 86 81 85 88 85 85 74 73 79 94 95 95 99 98 101 102 104 105 107 107 105 104 104 101 102 101 100 98 94 93 91 90 90 89 89 90 91 89 90
66 72 70 71 76 82 75 81 85 86 77 78 79 82 86 90 92 93 97 101 102 102 104 106 106 106 105 104 101 101 102 103 101 98 95 91 89 89 91 90 90 90 90 89
71 63 71 77 82 81 81 80 83 80 82 76 83 82 88 91 91 94 97 97 97 98 99 100 102 104 105 103 101 100 102 102 102 98 96 92 91 90 90 89 90 90 90 90
70 61 69 70 79 74 73 81 82 84 83 84 85 85 95 97 97 94 94 95 95 96 98 99 100 101 102 104 102 101 99 100 100 97 95 93 91 90 89 89 89 89 89 89
61 64 64 60 72 71 65 75 79 83 86 85 79 86 94 92 92 91 92 93 94 96 98 100 101 101 101 104 103 101 100 99 97 95 95 93 91 89 88 89 88 87 87 89
59 59 62 61 65 54 74 84 83 80 83 88 88 89 91 91 93 95 95 94 94 96 98 100 104 105 106 106 108 103 103 97 94 93 92 93 91 89 89 88 87 87 88 87
66 60 58 56 61 68 74 79 79 76 75 85 84 86 88 90 91 90 96 97 96 97 99 102 106 108 107 109 107 105 102 100 95 92 91 92 92 89 88 87 87 88 88 88
65 63 58 59 55 55 71 80 83 82 69 86 86 85 86 89 80 86 95 97 97 98 99 97 102 106 107 106 109 106 102 98 94 92 92 92 92 90 88 88 87 88 88 88
56 56 53 55 54 64 76 80 83 62 66 81 85 85 85 82 83 85 89 90 92 92 93 95 96 96 98 101 101 100 101 98 96 97 95 92 92 89 89 88 88 87 87 88
54 52 53 56 53 50 78 76 68 70 76 77 77 78 78 80 82 85 86 87 88 89 91 94 94 95 97 99 97 95 93 97 97 96 94 92 90 92 93 88 88 87 86 85
53 59 57 59 60 70 77 75 79 80 73 75 75 77 78 78 80 83 84 85 86 87 89 94 93 95 96 96 96 91 90 95 95 93 91 91 90 90 91 87 86 87 86 87
62 66 59 59 64 67 71 75 76 76 74 76 77 77 78 76 79 81 83 84 84 85 88 92 93 92 92 94 92 90 91 93 92 89 89 90 89 88 89 91 90 89 90 88
61 62 59 59 63 65 68 71 72 73 75 75 76 77 77 76 78 80 80 81 82 82 87 92 90 90 92 92 90 92 91 91 89 89 90 89 91 87 89 88 83 91 85 77
62 58 55 55 64 65 66 71 73 72 71 73 74 74 76 76 75 78 79 81 79 81 86 86 87 88 82 81 82 87 90 89 88 87 90 92 94 90 92 85 78 49 50 46

GFSCGP_sfc_temp_051.txt.gz
Temp
75 67 65 70 73 74 74 72 71 78 84 84 79 72 73 71 71 69 68 67 80 84 85 86 87 88 88 85 84 83 79 80 80 78 77 74 75 76 77 79 79 80 80 81
70 64 74 78 78 75 74 71 71 78 85 82 79 73 72 72 72 71 68 66 69 84 85 87 87 89 87 83 84 79 80 79 80 80 80 75 75 76 77 78 79 80 80 80
66 71 80 78 75 73 72 70 71 72 81 83 78 71 70 75 73 69 69 67 70 78 85 85 87 86 86 83 82 81 80 79 80 80 79 76 76 75 75 76 77 79 80 80
71 78 76 74 73 75 65 78 78 77 73 65 79 59 65 69 68 68 71 72 75 76 86 86 87 86 85 83 83 83 80 79 80 79 80 79 79 76 74 76 77 78 80 80
68 73 73 71 74 79 71 80 77 77 71 65 71 67 68 71 66 67 69 75 77 80 86 87 87 87 87 86 83 82 81 80 81 81 81 78 75 73 75 75 76 76 78 79
74 83 78 77 81 81 82 76 74 74 69 58 67 64 67 68 70 69 74 75 77 80 88 89 89 89 87 86 84 82 80 80 81 80 77 78 75 74 73 73 74 75 77 80
71 74 80 83 74 79 76 68 56 54 56 55 64 61 64 78 82 76 77 78 80 86 89 88 87 87 86 85 84 82 80 78 79 80 80 75 76 75 75 75 76 74 76 80
59 58 73 81 75 70 71 69 53 44 49 55 65 60 67 81 86 92 90 89 89 90 90 89 88 87 87 87 84 82 79 79 80 79 79 80 77 80 80 76 76 79 79 81
60 61 79 80 83 79 69 65 71 55 56 52 59 67 76 84 83 86 91 92 89 90 90 89 89 89 88 87 84 83 79 79 80 80 79 79 80 77 80 80 76 77 78 81
67 57 75 79 82 82 74 75 61 63 48 48 58 63 65 73 79 80 83 90 91 91 91 91 90 89 88 89 87 85 81 80 80 80 80 80 80 80 78 80 78 78 78 79
55 62 65 75 72 70 70 67 68 60 57 49 48 60 79 78 80 81 84 85 93 91 91 91 90 91 89 90 88 85 82 80 80 80 80 80 80 80 81 77 79 79 77 79
53 52 58 63 75 82 77 71 70 61 53 56 55 62 79 78 86 86 86 86 89 93 93 93 92 91 89 88 88 86 84 82 82 82 81 80 81 80 79 80 78 80 81 77
51 47 49 58 66 74 73 76 73 66 61 57 56 57 82 81 86 88 82 87 85 86 92 93 92 91 89 89 89 87 87 84 84 82 82 80 80 80 79 80 81 80 81 82
54 49 48 51 60 66 68 74 75 69 63 61 63 62 75 77 78 79 81 83 83 84 92 93 92 91 91 90 89 88 88 89 85 84 82 81 80 81 82 81 81 82 81 81
48 43 54 60 66 69 70 74 75 70 69 64 66 66 71 71 77 77 80 82 84 83 90 90 93 92 92 90 89 89 89 89 89 84 83 82 82 82 82 82 82 81 82 81
47 44 51 54 67 69 69 75 77 75 75 72 73 69 76 78 79 78 79 80 79 80 82 87 88 93 92 91 89 89 89 90 90 88 84 85 83 83 82 82 82 82 81 82
42 47 45 45 60 62 56 68 75 76 78 76 66 70 76 73 78 76 76 80 80 81 83 84 85 85 91 93 91 89 90 91 89 87 87 86 84 82 82 82 82 81 81 82
43 45 45 45 52 43 61 73 77 77 78 79 78 78 77 77 75 77 78 79 79 81 81 82 82 82 81 87 91 92 91 88 88 87 85 86 84 82 82 82 81 82 83 82
53 49 42 41 48 55 65 69 70 65 63 68 73 80 81 81 77 74 78 79 77 76 77 78 79 80 81 80 81 88 88 86 85 86 83 85 84 83 82 81 82 83 83 82
56 55 45 47 43 45 57 67 73 74 52 67 70 73 81 76 64 64 75 78 78 79 79 79 80 80 80 79 82 79 87 88 86 85 82 82 85 84 82 82 83 83 83 83
46 48 45 47 45 50 60 66 71 56 52 66 67 68 68 64 66 69 75 75 77 77 77 79 79 78 78 79 78 78 81 80 83 86 83 82 83 83 84 84 84 83 82 82
45 43 44 46 45 40 62 65 55 60 63 66 66 66 66 67 69 70 71 71 73 73 76 77 75 75 77 78 77 75 77 80 82 81 80 79 79 82 82 81 82 82 82 80
42 44 36 45 47 58 62 62 67 68 65 63 62 65 66 66 66 67 67 68 70 71 71 74 73 73 76 78 76 75 77 79 80 79 78 78 79 80 82 79 80 80 81 80
50 55 46 47 54 57 61 64 64 65 63 65 66 65 66 64 66 65 66 65 66 67 70 71 72 71 74 78 79 76 78 78 78 77 77 76 78 76 78 78 81 81 80 79
47 50 43 45 51 51 55 57 60 59 61 65 67 67 66 65 64 64 63 63 63 64 66 69 69 71 73 74 77 77 77 77 76 75 77 77 78 77 75 59 57 75 64 69
49 43 38 36 45 44 46 54 57 55 56 60 62 65 66 66 64 64 61 61 62 62 64 66 66 70 72 75 75 75 76 76 75 75 76 75 75 77 73 63 59 48 47 45

GFSCGP_sfc_temp_054.txt.gz
Temp
66 60 57 63 65 64 66 64 64 71 79 75 72 68 69 71 73 73 72 73 73 75 80 82 83 84 84 80 80 81 81 79 78 74 73 71 72 73 74 75 78 77 77 78
59 58 67 70 69 67 67 64 65 73 78 76 71 68 72 71 72 74 71 71 74 76 78 80 81 83 83 80 80 80 80 79 79 80 79 74 72 72 75 75 76 77 78 78
62 65 73 71 68 67 66 63 66 66 73 75 71 65 67 70 70 73 73 75 77 76 78 79 81 82 83 81 80 79 79 78 79 78 76 71 73 72 73 73 73 77 78 78
65 73 71 68 67 70 60 73 72 71 66 58 74 52 62 65 67 67 71 73 76 78 76 82 82 82 83 83 82 81 79 78 79 77 77 77 77 74 72 73 73 75 78 77
64 68 68 66 69 74 67 74 71 71 62 56 66 56 59 65 64 63 68 74 78 80 79 79 83 84 85 85 83 81 78 78 79 77 78 78 77 75 71 72 74 72 75 77
68 76 73 71 76 76 77 70 68 67 59 51 64 59 56 58 65 66 71 74 79 77 81 80 86 86 85 85 84 82 78 77 78 78 78 77 76 71 71 70 72 71 73 76
65 67 75 77 69 73 72 58 51 45 49 49 63 57 61 68 70 73 72 74 78 79 80 81 84 84 83 82 82 81 78 76 77 78 77 76 76 74 73 72 72 71 72 72
53 52 67 75 70 66 64 64 47 40 43 53 57 52 61 75 77 78 78 77 81 78 82 82 85 86 83 82 81 81 78 78 78 78 77 78 74 77 77 75 72 75 74 78
35 55 71 75 77 73 65 60 63 49 44 47 53 60 69 74 75 80 78 78 78 79 81 83 87 87 85 82 81 80 79 79 79 78 78 76 77 78 77 74 76 75 73 78
42 37 65 73 76 76 71 68 55 49 45 40 50 54 61 68 71 79 80 77 80 81 82 85 87 87 86 84 83 81 80 79 80 80 80 80 78 76 78 77 72 73 73 76
44 39 52 62 65 66 60 65 59 59 50 50 44 54 67 69 71 72 78 81 83 83 83 87 88 87 88 86 84 82 80 80 79 80 79 79 78 79 76 76 77 78 74 75
46 41 35 53 69 70 73 61 64 58 48 48 50 60 74 76 77 80 78 84 86 85 87 89 89 88 87 86 85 82 81 80 80 80 79 78 78 78 77 77 75 77 76 75
42 40 31 46 53 63 60 68 61 57 54 50 55 59 72 73 75 76 83 82 86 86 88 89 88 87 86 86 85 83 82 81 81 80 79 78 78 77 76 78 79 76 77 77
43 37 35 31 43 52 55 65 65 67 57 56 58 61 69 75 75 73 79 80 87 88 88 88 87 87 86 86 85 84 83 82 81 80 79 78 78 78 78 78 78 79 77 77
39 32 37 41 48 52 54 64 67 62 63 61 63 63 67 70 73 72 74 76 84 86 88 87 87 87 86 85 86 85 84 83 82 80 79 78 78 79 79 78 78 78 78 79
40 32 37 38 54 57 57 66 66 69 67 64 63 64 71 72 73 71 75 77 81 85 87 88 88 88 87 86 85 85 84 83 83 81 80 80 79 79 78 78 78 78 78 78
37 34 32 33 51 58 52 60 63 68 71 69 60 66 68 70 70 69 71 74 73 78 87 88 89 89 89 88 87 85 85 86 83 81 81 80 80 78 78 79 79 78 78 78
40 35 33 35 44 41 55 62 63 60 61 61 61 68 72 68 70 71 71 74 75 78 78 77 79 85 89 90 89 88 87 85 84 81 81 81 80 79 79 79 78 79 80 78
46 41 33 38 41 50 53 56 55 55 54 62 61 68 72 74 73 69 71 73 71 72 72 74 77 78 79 80 83 86 85 85 84 83 82 81 81 80 79 78 79 80 80 80
44 45 38 39 40 39 50 58 66 65 46 62 63 62 69 74 58 59 67 71 71 72 72 73 75 76 75 74 78 83 84 84 83 84 84 84 83 81 80 80 80 81 81 81
35 39 40 42 42 46 47 55 68 46 48 60 63 61 61 59 60 62 68 68 70 71 70 72 72 72 70 71 75 74 76 78 82 82 83 82 84 83 82 81 81 81 80 81
34 34 33 37 38 34 49 52 44 50 59 60 61 60 60 60 63 65 65 66 67 67 70 71 69 70 74 76 73 72 74 76 77 79 78 77 80 83 83 81 81 81 80 79
33 37 35 37 38 49 51 48 56 57 55 55 56 61 61 61 60 62 61 62 64 65 67 69 68 68 72 73 75 74 72 74 76 75 75 75 77 78 79 79 79 79 79 79
47 49 39 37 44 46 52 56 57 55 55 55 56 58 61 59 60 59 61 61 62 63 64 66 67 67 67 70 72 73 74 75 74 73 73 74 73 73 74 79 79 79 78 78
43 44 39 36 42 46 52 53 52 52 54 53 56 57 60 60 59 58 58 59 60 62 63 64 63 63 65 66 69 72 73 73 73 73 73 72 73 71 71 64 64 74 70 72
42 37 35 35 43 43 44 49 52 49 50 51 52 54 58 60 59 59 58 58 59 60 61 61 62 64 65 65 67 69 72 72 71 71 73 73 73 72 66 61 57 48 48 45

GFSCGP_sfc_temp_057.txt.gz
Temp
61 53 54 60 62 60 60 59 60 66 72 67 66 65 66 69 70 69 69 70 71 74 77 80 80 81 81 80 78 78 77 77 76 72 72 70 71 71 72 73 76 75 75 76
55 53 63 65 64 61 60 57 58 66 73 69 67 66 68 69 69 70 69 70 72 73 76 78 79 81 80 78 80 77 78 78 77 78 78 72 71 72 73 73 74 75 76 76
55 59 68 65 62 60 59 58 59 61 68 72 67 62 63 68 71 72 72 72 74 73 74 76 78 79 81 76 78 78 78 78 78 79 73 70 71 71 71 71 72 74 76 76
59 69 66 63 61 64 53 67 67 66 61 56 68 48 58 64 65 69 72 72 74 75 76 77 78 78 80 79 79 79 79 79 79 77 77 76 77 75 74 71 71 73 75 76
60 63 63 61 64 67 61 68 66 65 57 55 63 53 55 65 62 66 70 74 74 76 78 77 79 80 82 83 79 79 78 78 79 76 79 76 73 74 68 70 71 71 73 75
60 70 68 68 70 70 71 64 61 57 53 48 59 60 53 59 64 67 72 74 75 77 79 80 81 82 81 83 80 79 77 77 78 76 77 76 75 69 68 68 70 69 70 74
50 61 67 71 64 68 67 55 43 41 43 48 57 56 62 66 71 71 72 75 75 78 79 79 79 80 81 81 80 79 76 76 77 76 76 75 75 71 71 70 72 69 68 70
33 45 61 69 65 60 60 56 43 36 38 45 57 49 58 72 75 76 79 79 79 79 80 79 80 81 81 82 81 79 76 76 77 76 76 76 76 74 75 74 71 71 73 74
35 38 53 59 70 69 60 56 61 47 41 46 54 54 66 70 72 73 74 78 77 79 80 78 81 83 83 82 81 79 77 77 77 76 77 76 76 76 75 73 74 74 72 75
41 33 47 54 64 70 66 64 50 47 40 38 46 50 56 64 68 71 72 74 77 79 80 81 81 83 83 83 82 81 79 78 78 77 78 77 76 76 77 74 72 71 72 73
40 38 41 49 54 59 61 59 55 56 49 48 40 50 61 66 72 70 74 76 78 78 80 80 82 85 84 84 82 81 80 79 79 78 78 77 76 76 77 74 74 74 72 73
43 38 35 39 55 56 53 60 55 55 46 45 47 56 70 70 71 75 75 78 81 81 82 82 83 85 85 82 81 81 81 80 80 80 79 78 77 76 76 75 75 74 74 72
42 37 30 40 46 53 52 64 65 59 50 48 52 55 69 67 70 70 72 76 80 79 81 83 83 85 85 84 81 81 81 80 81 80 79 78 77 76 75 75 76 75 75 74
45 36 32 31 37 41 40 46 52 59 56 51 57 56 66 70 70 70 72 74 80 80 81 83 83 85 85 85 82 81 80 81 81 80 78 77 77 76 76 76 76 76 76 75
40 33 35 36 40 42 42 44 48 47 58 58 62 57 65 67 69 71 71 72 76 81 82 82 84 85 85 84 83 82 81 80 81 79 77 77 77 77 77 76 76 76 76 76
39 33 35 33 41 43 41 49 52 54 61 60 59 61 66 65 64 65 65 70 77 81 82 84 85 85 85 84 84 83 81 80 81 79 77 78 77 76 76 76 75 75 75 76
35 34 31 27 45 50 46 51 53 59 55 57 56 58 65 59 63 62 62 66 78 82 83 85 86 86 86 86 85 83 82 82 80 79 78 78 77 76 76 76 76 74 74 75
37 34 33 26 39 40 49 54 57 55 55 56 56 59 62 63 64 65 66 64 66 73 83 86 88 87 88 88 86 86 83 81 79 78 78 78 77 76 76 76 75 75 75 75
42 36 30 29 38 48 51 49 45 46 50 57 56 61 66 68 69 63 66 67 66 67 69 70 80 82 83 85 85 83 81 81 79 78 78 78 78 77 76 76 76 77 76 76
41 38 34 35 35 36 45 50 55 57 42 54 55 57 59 64 53 54 63 66 67 68 68 70 73 74 74 74 84 83 80 79 78 79 79 79 79 78 77 77 77 78 78 78
34 34 33 33 35 41 50 50 58 40 40 50 52 52 56 54 53 58 62 64 66 67 67 71 72 71 70 70 83 81 81 80 81 79 78 78 80 79 79 78 79 78 78 78
34 32 34 36 35 34 52 50 44 45 49 50 51 51 52 56 58 59 61 61 63 63 66 68 69 69 71 73 74 71 72 74 77 78 79 78 78 79 80 78 78 78 77 76
33 35 34 33 37 47 49 49 53 53 49 49 49 51 53 55 56 58 57 58 60 61 63 65 66 68 69 70 72 72 71 72 73 72 73 74 76 80 81 78 78 76 77 77
41 44 36 37 44 44 49 53 52 53 52 52 52 52 53 53 56 57 57 57 58 59 61 62 64 65 65 67 70 70 71 72 72 71 71 71 72 72 74 77 79 78 78 76
38 39 36 39 44 46 52 52 51 50 53 53 54 54 54 54 56 56 56 56 57 58 58 59 59 61 61 63 66 68 70 71 70 70 70 71 71 70 71 70 67 75 77 74
40 38 35 36 44 41 44 49 52 49 48 51 52 52 54 56 57 56 56 55 56 56 56 58 58 60 60 61 63 65 67 69 68 68 68 68 70 71 70 66 60 48 48 47

GFSCGP_sfc_temp_060.txt.gz
Temp
58 50 51 56 59 56 57 55 57 62 70 66 64 66 63 67 67 66 66 67 69 71 75 77 77 78 77 76 74 73 72 70 72 71 70 70 71 72 73 73 75 75 76 76
52 49 59 62 60 58 57 53 54 62 70 66 63 64 65 65 66 68 67 67 69 71 74 75 77 77 77 75 75 74 73 71 74 75 73 73 72 72 74 74 74 76 76 76
50 55 64 62 57 56 53 55 54 57 65 69 63 58 61 65 68 69 70 70 72 71 72 74 76 76 78 75 75 74 74 73 74 74 72 71 72 72 72 73 73 75 76 76
55 64 62 59 57 58 45 62 63 61 57 56 65 47 55 61 63 66 68 69 71 72 74 75 76 76 77 77 78 76 75 74 75 74 73 72 72 72 71 72 73 74 75 76
53 58 59 57 60 63 57 64 61 61 55 53 59 52 55 61 58 63 68 70 72 74 75 75 76 77 79 79 78 78 75 74 74 74 75 74 73 72 71 71 73 73 74 76
56 64 61 63 66 66 66 59 56 52 50 44 56 57 52 54 62 65 69 72 73 74 76 77 78 80 79 81 78 78 74 74 74 74 74 73 73 70 70 70 71 71 73 74
48 54 61 66 56 64 62 54 40 38 39 45 56 56 59 62 67 70 70 72 74 76 77 77 76 77 78 78 78 77 74 73 74 74 74 74 74 71 71 71 71 70 71 72
33 42 52 55 58 56 57 51 40 32 34 47 50 47 56 73 71 74 76 76 76 76 77 77 77 78 78 79 78 76 74 74 74 74 73 74 74 74 74 72 72 73 72 73
33 37 51 56 57 55 54 52 57 43 38 40 53 52 64 68 73 75 73 73 75 76 77 77 80 80 79 79 78 76 75 74 74 75 74 74 74 74 74 72 72 73 72 75
36 30 45 51 56 59 53 58 48 43 37 34 43 47 58 61 65 69 68 70 75 77 77 79 80 80 81 81 81 79 77 75 75 76 76 76 75 74 75 73 72 72 72 74
36 35 39 46 46 49 53 53 51 53 48 42 37 47 58 63 70 72 69 72 75 78 78 79 80 81 81 82 82 80 78 76 76 76 76 76 75 75 75 74 73 73 72 72
38 38 33 36 50 53 48 45 52 50 44 46 44 51 66 67 69 75 77 73 76 78 80 81 81 81 81 81 82 81 79 78 78 77 76 76 76 75 75 74 74 74 73 73
39 34 29 35 40 45 42 47 45 49 49 49 49 49 67 67 67 69 69 71 74 76 78 79 80 80 81 81 80 80 79 79 80 78 77 76 76 75 74 75 74 74 74 73
44 34 32 27 33 39 36 42 44 40 42 49 53 55 63 69 66 68 68 69 71 74 77 78 78 79 81 80 79 78 79 80 80 79 77 76 75 75 76 76 75 74 74 73
37 31 31 34 38 40 39 39 41 40 44 41 55 55 61 66 70 70 67 68 69 71 74 77 79 79 80 80 78 78 79 79 79 77 77 76 76 76 75 74 75 76 74 75
38 27 36 33 39 40 39 43 44 46 47 48 51 56 59 63 64 62 60 62 63 68 75 77 79 79 80 81 78 78 78 78 78 76 76 76 76 75 74 74 74 74 74 75
34 32 32 26 38 39 36 43 49 51 51 51 50 54 56 58 58 57 58 61 62 65 72 78 79 80 82 82 80 78 77 79 77 76 76 76 75 74 75 75 74 73 73 74
34 32 34 26 36 30 43 53 55 51 49 48 50 55 59 59 60 60 61 60 61 63 71 78 82 83 84 85 84 79 79 77 76 75 75 75 75 74 74 74 74 74 74 73
39 35 31 27 32 41 49 48 46 42 46 49 47 50 57 63 64 61 62 62 63 64 65 75 83 83 82 83 82 79 77 77 76 75 75 75 75 74 74 73 74 75 75 74
38 38 32 33 29 34 40 48 54 52 40 51 49 48 50 60 51 54 62 64 63 66 68 69 74 77 78 78 83 77 76 75 74 76 76 77 76 76 74 75 75 76 76 76
31 32 29 30 32 39 43 49 56 42 40 49 49 48 49 51 53 60 63 64 65 64 65 69 71 70 70 78 79 75 75 75 77 77 77 76 77 76 76 76 76 76 76 76
32 31 32 33 33 34 45 50 43 46 50 49 48 49 49 52 58 61 62 62 62 61 63 67 67 68 71 72 74 72 73 74 74 76 76 76 76 78 78 76 76 76 76 75
32 34 33 33 34 42 45 47 48 49 49 49 47 50 50 53 54 57 58 59 61 61 62 65 67 67 68 72 73 71 71 73 74 73 74 74 76 77 78 76 76 76 76 76
38 40 34 36 41 43 46 51 53 50 50 51 50 50 54 54 54 54 56 57 58 60 61 63 64 64 64 66 68 70 71 72 73 73 73 74 73 73 75 77 78 77 77 76
38 39 35 37 43 45 47 48 50 51 51 51 52 54 55 55 56 54 54 54 56 58 59 61 61 61 61 63 64 66 68 71 71 71 72 73 74 72 74 74 73 77 78 74
42 39 36 36 43 42 43 47 50 50 49 49 50 52 54 56 55 57 54 55 55 56 57 59 59 60 60 61 61 63 65 67 69 69 70 70 72 73 73 71 67 49 50 48

GFSCGP_sfc_temp_063.txt.gz
Temp
68 63 59 66 68 70 68 66 67 72 79 77 76 77 75 74 75 74 74 74 75 77 81 82 83 83 83 83 81 80 79 80 81 80 81 82 82 84 84 85 84 85 85 85
61 59 68 70 68 66 67 64 66 73 77 72 76 75 78 74 73 75 74 74 74 77 79 80 81 82 83 82 81 80 79 79 80 82 82 84 84 85 86 86 84 85 86 85
61 65 69 66 64 63 65 64 65 68 72 73 74 71 72 74 76 76 76 77 74 77 78 79 80 81 83 81 81 80 79 80 80 82 82 81 82 83 84 84 85 86 86 86
63 70 65 65 63 66 60 69 68 67 65 61 74 63 70 74 71 73 76 76 77 78 80 82 82 82 83 82 83 82 81 80 81 81 81 80 83 82 85 85 86 86 86 86
62 64 64 62 64 68 64 71 67 67 64 64 67 64 73 74 70 72 76 78 79 81 81 82 82 83 84 85 84 83 81 80 81 80 81 82 82 85 85 85 83 83 84 85
63 69 70 69 70 70 72 68 68 67 65 54 63 65 68 71 73 75 78 79 80 82 82 83 85 85 84 86 84 84 80 79 80 80 81 80 81 81 82 83 84 86 86 86
55 61 70 72 66 70 68 64 54 51 51 52 69 62 66 78 79 82 80 80 81 82 82 82 82 83 83 84 84 84 81 78 80 80 81 81 81 81 80 81 84 85 86 86
50 52 59 60 66 64 64 64 56 46 50 57 67 58 67 80 84 83 86 85 84 82 83 82 83 83 83 84 83 82 80 79 80 80 80 81 81 84 84 83 86 86 87 87
47 48 57 59 60 64 64 59 70 61 59 57 64 67 75 79 82 85 83 83 83 83 83 83 84 84 84 84 83 82 81 79 80 81 80 80 81 81 83 83 82 86 84 87
47 45 54 56 61 64 63 72 58 60 48 48 59 61 64 72 76 81 84 85 85 85 85 86 86 85 86 86 85 84 82 80 81 82 82 82 81 81 82 82 81 83 84 83
50 46 51 55 56 59 58 59 63 65 61 54 53 60 76 76 79 81 84 86 86 87 86 87 87 87 86 87 87 85 83 82 82 82 81 81 82 82 82 82 82 83 83 82
49 46 42 48 60 60 57 54 61 55 54 60 60 62 80 81 84 85 87 88 88 88 89 88 89 87 86 86 87 86 86 84 84 83 82 82 82 82 82 82 83 83 82 82
48 40 39 47 54 54 52 56 56 56 61 56 54 59 79 81 79 83 84 87 86 85 86 86 88 86 86 86 85 86 86 86 87 84 83 82 82 82 81 82 82 83 82 82
50 41 42 41 45 47 44 47 52 50 53 57 60 64 73 77 79 82 82 82 83 83 84 85 86 86 86 85 84 85 87 88 87 86 85 82 81 82 83 82 82 82 82 82
47 39 42 45 47 46 44 44 48 47 51 51 63 64 71 77 79 82 83 80 80 81 83 83 85 86 84 84 84 85 87 85 87 84 83 82 82 82 82 82 82 82 82 82
45 40 42 40 48 47 43 46 48 50 52 52 56 59 72 74 75 75 73 73 75 77 81 84 84 85 84 84 84 84 84 85 85 82 82 82 82 82 81 81 81 81 81 81
40 39 39 37 46 43 40 48 51 54 57 57 55 66 68 69 67 65 66 68 69 72 75 78 84 85 84 85 85 83 84 85 82 82 82 82 81 80 80 81 81 80 81 81
38 36 38 36 40 28 52 62 62 58 53 55 57 60 61 70 68 68 68 66 67 69 72 75 80 87 87 89 88 86 86 83 81 81 81 82 81 80 81 80 79 80 81 81
48 39 36 33 33 42 48 51 57 55 49 54 53 57 60 68 71 71 68 68 67 68 71 74 80 88 89 89 87 84 84 83 82 81 81 81 81 81 81 79 80 81 80 80
44 44 36 34 28 31 41 51 55 57 48 55 55 55 58 69 66 63 66 66 67 70 73 76 82 90 89 89 88 83 81 82 81 82 82 82 82 81 80 80 80 81 81 82
32 33 31 34 29 36 41 47 55 41 47 55 56 56 59 60 63 64 65 64 68 71 73 79 87 88 86 88 85 82 82 81 83 84 84 82 82 81 81 81 81 81 81 82
33 31 31 33 29 28 42 45 46 51 55 54 55 57 58 61 61 61 62 63 66 68 71 75 77 80 84 85 82 81 80 83 83 83 83 82 81 83 84 81 81 81 80 80
32 35 34 35 35 43 43 44 54 56 53 52 53 58 58 59 58 59 59 61 63 64 67 71 72 70 72 78 83 80 80 81 82 82 81 81 82 82 84 81 80 81 81 82
37 40 35 37 41 42 43 50 53 56 55 53 55 56 58 56 58 60 60 59 60 63 64 67 70 68 69 71 72 71 77 81 81 80 81 81 81 80 83 84 84 84 84 84
39 40 37 37 41 44 45 49 50 52 56 54 54 55 55 56 57 59 60 60 61 61 62 64 65 65 65 69 70 72 73 79 80 81 82 81 82 80 83 84 85 85 86 82
42 38 35 35 42 43 44 49 53 53 55 54 53 53 55 57 56 58 60 61 62 61 62 62 62 63 63 64 66 70 71 73 75 76 80 75 78 82 84 84 81 52 54 50

GFSCGP_sfc_temp_066.txt.gz
Temp
77 71 69 76 78 80 79 78 78 82 88 84 82 84 84 85 86 85 85 84 85 86 89 90 90 91 91 91 88 87 86 86 87 88 88 89 89 90 92 93 92 91 91 91
72 67 77 80 80 77 76 73 75 81 85 84 84 83 89 86 84 86 85 84 85 86 88 88 89 90 90 88 88 86 86 85 85 89 89 91 91 93 94 94 92 92 92 91
70 74 79 77 74 71 73 73 75 76 81 84 82 80 83 89 87 88 88 87 88 87 87 87 87 88 90 88 87 86 85 85 85 88 89 88 90 91 90 91 92 93 92 92
72 79 73 73 70 73 69 78 77 75 73 70 82 69 79 86 84 85 87 87 88 88 89 90 89 88 90 89 90 88 86 85 86 86 87 85 88 88 92 93 94 94 92 92
69 71 71 69 71 77 71 80 76 75 72 73 76 72 79 86 82 84 87 88 90 89 90 91 90 90 91 91 91 89 86 85 86 85 86 87 86 92 93 93 90 89 90 91
72 79 76 76 78 77 79 75 75 75 73 63 72 73 75 81 83 86 89 90 90 91 91 92 93 93 91 93 92 91 86 84 85 85 84 85 86 88 91 90 91 92 93 93
68 70 76 78 73 77 75 71 62 59 60 60 76 71 75 87 91 91 90 91 92 93 92 91 91 91 90 90 90 90 87 83 85 85 85 85 85 86 86 87 90 91 93 94
61 59 71 77 73 71 71 72 64 54 60 65 75 67 75 87 92 95 95 96 95 93 94 92 91 91 91 90 90 89 87 84 85 85 85 85 85 89 90 88 93 93 95 95
59 59 68 68 76 75 71 66 78 70 74 68 74 75 84 88 88 90 91 94 95 94 94 93 93 93 92 91 90 89 88 85 85 86 85 85 86 86 89 89 89 93 92 95
60 53 66 68 69 72 71 79 65 68 55 55 67 70 72 78 83 88 90 91 94 96 96 95 95 93 93 93 92 90 89 85 86 88 87 87 87 87 88 89 88 89 91 90
61 57 60 64 64 66 67 65 69 73 68 60 60 69 85 83 85 86 90 94 96 96 97 97 96 96 95 95 93 91 89 87 87 88 88 88 88 88 88 89 88 88 88 89
60 58 53 59 69 70 68 67 70 62 60 67 67 71 90 88 89 91 91 95 98 100 100 99 100 97 95 93 94 93 92 90 89 90 88 87 88 88 88 87 89 89 87 88
59 54 48 53 63 68 61 66 69 70 71 63 62 66 86 86 86 89 92 94 96 97 98 100 100 98 95 94 93 93 93 93 93 91 90 89 88 88 88 88 88 89 87 87
57 55 50 51 53 58 52 58 61 63 59 62 65 70 79 82 84 87 89 91 93 93 95 97 97 98 96 93 92 92 93 96 95 93 91 88 87 88 88 89 88 88 88 87
57 47 52 54 56 55 55 55 57 56 59 58 66 69 76 82 84 86 89 90 89 90 91 93 96 96 95 93 92 91 93 94 95 93 92 89 88 88 88 88 88 88 88 87
54 46 51 48 54 54 53 57 59 59 59 60 63 64 77 83 84 83 85 84 84 87 89 92 93 94 94 93 91 91 91 93 94 91 91 90 88 88 87 87 87 87 87 87
49 48 46 43 53 53 47 56 59 61 64 61 57 67 76 78 80 80 78 79 80 82 84 86 90 93 94 94 92 91 91 93 91 90 89 89 87 86 86 87 86 86 86 87
45 45 47 43 48 37 55 66 66 64 66 68 67 71 75 78 82 80 78 76 77 80 81 83 88 91 95 98 97 92 93 91 89 88 88 88 87 86 86 86 85 85 86 86
52 43 40 39 43 50 55 54 51 52 60 70 68 70 75 75 80 79 77 77 77 78 80 82 86 89 91 96 97 93 91 91 89 88 87 88 87 86 86 85 85 86 86 86
51 49 37 41 34 33 43 48 52 51 53 66 66 67 69 72 67 78 74 75 76 78 81 82 85 89 91 91 99 93 90 90 87 87 88 89 88 87 86 86 85 86 86 86
37 37 32 37 36 44 55 48 47 37 51 63 65 66 69 70 71 71 71 71 74 76 80 82 88 89 91 94 96 91 90 88 89 90 89 88 88 86 87 86 86 86 86 88
36 34 35 38 34 31 49 45 38 45 60 58 62 66 67 68 68 66 67 67 70 74 78 77 85 93 94 93 93 88 86 88 89 89 89 88 87 88 89 86 86 86 85 84
33 42 37 41 41 45 46 44 47 49 52 54 57 62 65 64 63 63 63 63 64 70 76 78 77 78 82 89 89 85 86 88 88 87 87 86 86 86 89 85 84 86 85 88
34 38 34 35 42 41 43 46 47 49 50 56 57 58 60 60 61 65 61 61 62 63 66 72 75 74 73 75 76 76 84 87 86 85 85 86 85 84 87 89 89 89 90 88
38 40 36 36 41 44 45 47 49 51 54 55 56 56 57 59 58 60 60 60 60 61 61 64 68 68 67 71 74 76 80 85 85 85 86 86 88 85 87 89 91 91 93 87
41 37 35 35 42 41 44 48 51 50 52 54 54 55 57 57 56 58 60 61 60 61 61 60 62 63 65 68 72 73 75 72 85 84 87 89 91 89 91 90 88 53 56 52

GFSCGP_sfc_temp_069.txt.gz
Temp
81 75 73 79 83 84 86 84 82 89 94 88 86 86 74 91 93 90 90 89 90 91 94 95 95 96 96 94 91 90 89 89 89 89 88 90 91 93 92 97 95 92 94 93
78 72 81 85 85 82 82 80 82 88 93 90 87 83 83 91 91 92 90 89 90 92 92 92 93 94 94 92 90 89 88 88 88 90 90 92 92 94 96 96 93 94 93 93
75 79 84 82 81 79 80 79 80 81 88 89 87 82 86 85 92 94 93 92 93 92 92 91 91 92 93 91 90 88 88 87 87 89 91 91 93 92 93 88 93 93 94 93
78 85 80 79 78 81 74 83 82 81 80 75 87 71 82 80 86 90 92 93 94 93 94 94 93 92 93 92 92 90 88 87 87 88 88 86 89 89 94 94 95 94 94 94
75 77 77 75 78 82 76 85 81 81 79 79 79 75 83 86 79 87 92 93 95 96 95 95 94 93 94 94 93 92 88 87 87 86 88 89 87 92 94 96 91 92 91 93
77 86 83 81 83 83 83 80 80 81 78 67 75 77 78 81 85 87 94 96 95 97 96 97 97 96 95 96 94 92 88 85 86 86 86 87 86 89 92 92 92 92 94 93
74 75 82 83 77 83 79 75 64 62 64 63 79 75 79 90 94 94 95 95 97 98 97 96 95 95 93 93 94 93 88 84 85 87 86 87 88 87 89 90 92 91 94 96
66 65 76 82 76 75 76 76 66 55 61 67 78 71 78 92 98 99 101 99 99 98 98 96 96 95 94 94 94 93 88 85 86 87 86 85 87 91 91 91 94 95 97 97
66 66 78 79 82 80 75 70 81 72 78 71 77 79 88 93 93 95 97 99 95 99 99 97 98 98 96 94 93 92 90 86 86 87 86 86 86 87 90 90 90 94 94 98
68 59 76 77 78 78 76 83 69 71 58 59 72 75 76 83 87 92 94 96 97 100 100 100 99 98 97 97 96 94 92 88 87 88 88 88 87 87 89 90 89 90 93 93
69 64 66 73 68 68 71 70 71 76 72 63 64 74 90 87 88 90 94 96 98 101 101 101 101 100 99 99 97 95 93 91 88 89 88 87 88 89 88 91 90 90 91 92
68 65 58 66 75 79 76 73 74 65 63 71 71 74 94 94 94 94 94 97 100 101 103 103 103 101 99 97 98 97 95 93 92 90 89 88 88 89 89 88 91 91 89 90
66 58 52 57 68 74 68 72 73 76 76 66 65 70 90 92 92 94 94 96 98 99 101 103 104 101 99 98 97 97 97 96 95 91 91 90 89 89 88 89 89 91 89 89
61 59 56 54 58 65 63 68 71 71 65 67 68 74 84 86 87 89 92 95 97 98 100 102 102 102 100 99 96 96 97 98 97 94 93 89 88 89 90 90 89 90 90 88
61 52 57 60 63 63 62 64 66 64 68 62 71 72 80 85 87 90 92 93 94 94 96 99 102 103 102 99 96 96 97 97 97 94 93 91 89 89 89 89 89 89 90 89
61 48 53 52 60 61 58 61 63 64 66 65 67 67 80 82 83 86 88 90 89 90 94 95 98 99 101 100 97 96 95 97 96 93 92 91 90 88 88 88 88 88 88 88
47 49 46 44 55 58 51 59 62 64 68 67 62 70 77 77 78 82 86 85 85 87 90 91 94 97 99 101 99 96 94 96 94 93 92 91 89 88 87 88 87 87 87 88
47 45 43 42 50 37 59 70 70 65 67 72 71 74 76 78 81 84 88 84 83 86 87 89 93 95 99 102 104 99 97 93 93 91 92 91 90 88 88 87 87 86 88 87
60 49 40 37 43 52 58 64 58 51 56 67 69 75 77 79 81 81 88 88 85 85 86 88 91 94 94 98 102 98 96 94 92 91 91 91 91 88 87 87 86 87 87 88
58 58 41 42 37 36 56 60 60 60 51 69 73 74 77 78 70 77 85 85 83 85 86 87 89 92 93 93 99 99 94 93 90 92 91 91 91 88 87 87 87 88 88 88
41 40 39 41 39 47 61 60 62 45 51 54 62 75 76 73 76 80 78 78 80 81 85 87 87 89 90 93 94 93 94 92 93 94 93 91 90 88 88 88 88 88 87 88
41 37 38 41 38 34 61 58 49 56 51 51 61 65 71 74 70 73 72 73 76 79 83 85 86 86 89 95 93 90 91 93 93 92 92 90 89 91 91 87 87 87 86 85
35 41 38 43 45 54 54 53 59 59 47 48 54 63 65 65 66 68 69 70 72 74 78 81 80 79 80 82 93 91 90 91 91 90 89 89 88 89 90 87 86 87 86 88
38 41 36 41 46 43 46 51 55 55 49 50 56 57 60 63 62 65 67 68 68 70 72 75 75 74 71 74 77 81 90 91 87 87 87 88 87 87 89 90 90 90 90 88
37 39 35 37 40 41 44 47 47 48 51 51 58 57 58 60 58 60 63 63 66 68 69 70 69 68 66 70 70 75 73 81 87 87 88 88 89 86 88 91 92 92 92 89
42 37 34 35 40 38 42 45 48 51 51 54 54 54 57 57 56 58 59 62 64 64 66 66 67 67 65 65 66 67 70 71 78 82 87 90 91 89 91 91 87 55 62 54

GFSCGP_sfc_temp_072.txt.gz
Temp
81 75 69 75 79 81 82 81 80 85 92 89 86 80 74 72 73 71 86 87 88 89 91 94 95 96 93 91 87 87 85 83 84 85 84 84 84 85 86 81 86 87 84 87
77 69 79 83 84 81 80 78 79 87 92 90 87 83 71 72 69 73 76 88 89 90 90 91 92 94 92 89 86 85 84 82 83 85 84 85 86 87 84 85 86 88 90 87
72 78 83 81 80 78 79 76 78 80 88 91 88 81 67 70 72 73 72 91 91 91 90 90 90 92 92 88 85 84 84 83 83 84 84 85 86 85 86 87 86 88 89 89
77 83 81 79 77 80 73 84 82 81 79 73 87 69 77 73 75 69 81 90 91 92 92 92 91 91 91 89 88 84 84 83 83 84 83 83 83 82 85 83 85 87 89 88
74 78 78 76 79 82 76 85 82 81 77 77 78 74 79 83 78 69 68 85 93 93 93 93 92 91 93 92 89 87 84 83 83 82 83 83 82 86 84 87 85 84 86 89
78 86 84 81 84 84 85 81 80 80 76 65 74 75 76 80 76 74 69 71 94 95 95 95 94 93 93 94 90 88 83 81 82 81 82 82 81 84 85 85 84 86 86 87
73 75 82 84 77 83 81 74 61 60 62 61 77 73 76 88 86 79 78 82 93 96 95 95 92 92 90 90 90 88 82 80 81 81 81 83 82 82 83 84 86 85 86 86
64 63 76 82 78 74 76 74 63 52 58 64 76 69 76 90 95 92 85 86 90 89 95 94 93 92 90 91 89 87 82 80 81 82 80 81 83 85 85 86 87 88 88 88
63 65 81 83 83 80 73 69 79 68 72 66 72 77 85 91 92 95 89 82 78 83 96 95 96 95 92 91 89 87 83 81 81 83 81 80 82 83 84 85 86 87 87 91
66 56 73 79 83 81 76 80 67 70 55 55 67 71 74 81 86 92 94 92 81 76 86 97 97 96 94 93 92 90 87 82 83 83 83 83 82 83 84 83 85 85 87 87
68 62 62 72 71 70 71 69 72 72 69 59 58 68 88 85 88 90 94 96 83 83 85 97 97 97 96 95 94 92 90 85 83 84 83 83 83 83 83 85 84 85 85 87
69 63 56 63 75 80 76 71 72 63 60 65 68 70 91 90 94 94 94 97 99 79 87 79 84 97 97 95 94 93 92 90 87 85 83 83 84 83 83 83 85 86 85 85
65 59 51 55 65 73 69 72 73 74 72 62 62 68 88 91 93 94 93 95 96 96 76 71 67 77 96 95 93 93 93 93 91 87 86 84 84 84 83 82 84 85 84 85
63 58 53 49 58 63 62 68 72 71 64 65 67 72 81 82 80 88 91 95 96 96 93 77 74 74 94 94 92 92 93 95 93 89 87 84 83 84 85 84 82 85 85 84
61 50 55 58 61 62 62 64 66 65 68 63 69 70 78 69 71 79 85 93 92 93 96 96 97 94 82 93 91 92 94 92 93 89 87 85 85 85 84 84 83 83 85 85
58 46 52 51 57 58 57 63 64 65 69 70 70 67 78 72 76 78 82 81 86 86 89 89 92 90 90 92 92 92 92 92 92 88 87 86 85 84 84 84 84 83 84 84
51 46 44 41 54 54 49 58 63 64 68 68 62 69 75 75 76 76 76 73 80 85 87 87 89 91 91 89 92 92 92 93 90 88 87 86 85 84 83 84 83 83 82 84
50 44 41 39 45 33 54 68 68 65 67 70 70 72 74 75 79 81 80 76 81 85 85 86 88 90 93 98 97 95 95 90 89 87 87 87 85 84 83 83 83 83 83 83
61 51 40 35 38 47 54 63 59 57 62 71 70 70 72 77 79 78 84 84 83 86 87 87 89 91 90 90 92 91 93 91 90 88 87 87 86 84 84 82 82 83 83 83
57 56 43 42 35 33 53 59 66 64 51 69 64 63 66 69 62 74 78 80 80 82 83 84 87 89 90 90 94 90 92 90 87 88 88 88 87 85 84 83 83 83 84 84
42 44 39 37 38 46 60 59 63 45 51 62 62 59 60 60 65 76 74 77 78 79 81 85 86 85 85 87 82 86 87 90 90 91 91 88 88 86 85 84 84 84 84 84
37 37 39 41 37 35 60 58 50 55 59 61 61 61 57 59 66 71 73 73 75 75 78 81 81 79 80 79 76 84 83 88 89 89 88 87 87 89 89 84 84 84 83 82
36 37 34 38 43 54 56 52 57 57 55 57 59 60 59 56 62 67 69 71 72 73 74 76 76 76 74 74 75 75 82 87 87 87 86 87 87 87 87 84 83 83 83 83
42 42 36 38 49 46 48 53 55 55 54 58 60 59 56 54 60 63 66 67 69 70 70 71 71 70 68 70 70 72 73 73 86 85 85 86 85 84 85 87 86 85 85 83
38 39 37 37 42 41 47 45 45 46 50 53 56 55 52 57 58 61 64 65 66 65 67 68 66 65 65 66 67 70 70 72 86 86 87 86 87 83 85 86 86 86 87 85
42 37 34 34 39 38 39 43 45 46 48 55 53 51 56 57 56 59 63 64 64 64 65 65 65 63 63 63 63 66 68 70 74 83 86 86 87 86 86 85 81 56 64 59

GFSCGP_sfc_temp_075.txt.gz
Temp
72 61 58 64 68 70 70 68 67 73 81 77 77 66 68 70 68 66 66 70 77 81 85 88 89 87 86 83 82 80 79 78 79 75 74 75 75 77 78 79 81 81 79 78
64 59 70 76 75 72 70 67 67 74 82 75 74 66 70 69 68 70 71 72 76 82 84 86 88 87 84 82 80 79 79 77 79 77 76 76 77 79 78 80 79 80 81 79
62 68 77 75 71 70 69 64 67 68 77 78 73 62 65 69 72 71 73 77 74 82 82 85 85 86 84 81 80 78 78 77 77 80 76 76 77 76 77 76 80 79 81 80
67 76 75 71 69 72 59 75 76 74 68 56 70 52 59 66 66 71 72 67 70 68 85 86 85 84 83 81 82 79 78 78 77 78 77 74 74 73 77 80 77 79 81 80
64 70 70 69 72 76 68 76 72 72 65 57 67 55 60 67 62 66 71 69 70 69 81 85 86 86 85 83 82 80 78 79 80 77 78 75 74 76 77 78 78 78 78 80
68 78 73 71 78 78 79 71 69 65 58 49 60 55 62 61 68 66 67 66 68 68 78 87 88 88 85 84 83 81 78 78 78 77 75 75 75 75 77 79 78 78 77 79
64 67 74 78 68 73 70 56 45 45 47 49 59 57 63 70 76 69 65 65 70 77 76 85 85 86 85 83 82 81 79 76 78 77 76 74 76 75 75 76 81 80 76 76
50 51 66 74 67 62 62 58 48 40 42 51 61 53 63 78 82 77 72 73 77 80 79 87 86 86 86 84 82 80 79 78 78 78 78 75 75 78 76 76 77 80 82 81
50 53 69 73 74 72 62 56 63 52 55 51 56 63 75 78 77 78 76 77 76 80 84 86 88 87 87 85 83 81 79 79 78 78 78 77 75 79 75 77 78 79 79 81
55 45 60 68 70 71 65 66 51 51 41 43 51 57 57 67 73 77 77 78 80 77 73 76 72 88 87 88 86 84 80 78 79 79 79 78 77 79 77 78 77 78 79 80
53 48 52 60 55 57 60 55 54 54 51 48 45 53 69 70 72 77 79 81 83 77 75 73 73 72 87 89 87 84 80 79 79 80 79 79 78 77 74 77 77 77 78 78
56 48 42 51 63 67 64 59 58 48 46 50 48 52 78 77 73 76 82 84 82 79 78 72 73 72 71 87 88 86 82 80 80 80 80 79 80 78 78 75 76 77 77 77
52 44 37 44 52 56 55 61 61 55 52 49 46 52 75 70 71 72 73 74 79 75 73 71 69 71 71 76 88 87 85 82 81 81 80 80 79 79 79 80 75 78 77 77
57 43 40 37 45 52 50 55 58 55 49 51 55 59 61 65 68 71 73 74 75 77 74 73 70 69 69 72 84 88 87 84 83 82 80 80 80 80 80 81 80 76 79 77
48 38 44 49 53 54 54 53 54 53 53 44 56 59 61 65 68 71 73 75 75 75 71 69 67 77 77 70 69 72 87 88 84 82 81 80 81 81 81 81 79 80 79 81
49 38 43 42 50 52 51 54 55 55 58 57 59 61 69 66 73 73 74 71 72 72 77 77 74 72 73 72 72 75 75 88 88 83 81 82 81 81 81 80 80 79 78 81
43 38 36 32 45 46 41 51 53 56 59 59 52 55 67 62 67 70 72 68 69 71 75 73 70 76 73 72 75 72 72 85 87 86 83 82 82 80 80 80 80 78 79 79
45 39 39 31 39 27 45 56 59 57 60 62 62 61 64 62 66 70 74 71 70 72 73 75 76 77 81 80 77 72 73 76 87 84 84 83 82 81 80 80 80 80 80 80
51 44 33 30 33 41 46 54 55 51 50 57 54 57 60 63 65 65 66 70 72 69 73 75 78 76 74 75 75 71 70 71 77 83 84 83 82 81 80 80 80 81 81 80
48 43 37 34 30 30 45 54 62 58 41 56 57 55 53 57 48 53 63 71 71 74 76 73 75 77 74 72 71 72 71 71 75 82 83 84 83 82 80 80 81 82 82 82
36 37 34 34 32 38 48 55 62 41 38 52 54 54 53 48 50 57 63 69 71 70 70 71 72 72 69 70 70 70 71 72 80 82 85 83 84 83 82 82 82 82 81 82
35 32 33 35 32 28 49 50 40 44 49 51 51 52 53 53 55 59 61 64 67 67 68 69 68 68 68 67 66 64 65 68 70 83 83 84 83 84 84 82 82 82 81 80
33 37 33 35 35 45 46 43 47 47 44 46 48 51 53 53 52 55 58 61 64 65 65 65 64 64 64 64 63 62 64 67 68 69 82 81 83 84 85 82 81 80 81 80
40 42 35 35 44 42 42 45 44 46 45 47 49 48 49 51 51 53 56 61 63 60 63 64 61 60 60 61 62 62 64 65 65 69 78 83 82 81 85 83 83 82 81 80
39 39 37 37 40 41 44 43 43 44 46 46 48 48 48 52 50 52 55 60 60 58 59 62 58 58 58 60 59 61 61 63 63 67 79 83 84 80 83 83 82 82 84 81
41 38 34 32 41 39 40 44 45 43 43 44 44 48 52 53 51 54 54 58 57 55 56 57 59 59 58 56 57 58 60 60 62 64 72 78 80 78 82 82 74 56 62 60

GFSCGP_sfc_temp_078.txt.gz
Temp
66 57 52 59 62 64 63 59 60 68 75 70 66 64 64 68 69 68 70 72 72 78 85 85 87 83 82 81 79 78 75 74 74 72 72 72 73 74 74 76 78 76 75 77
59 53 64 70 70 67 64 60 60 67 73 69 63 61 66 66 67 71 70 74 74 77 80 81 84 83 80 79 78 77 77 75 75 74 73 74 73 74 76 77 78 78 76 77
56 63 72 69 66 65 61 56 60 62 71 68 64 60 61 66 68 70 71 75 74 77 79 79 82 82 80 80 76 77 76 76 76 75 73 73 74 74 73 74 75 76 78 78
60 71 70 66 64 65 52 68 69 68 60 53 63 46 58 64 61 66 68 72 73 77 81 82 82 82 81 80 79 78 77 76 77 75 73 72 71 71 73 74 77 76 78 77
59 65 64 64 67 70 63 72 67 65 56 54 57 52 50 63 60 64 67 70 71 76 81 82 82 83 82 82 80 78 78 76 78 78 75 74 71 73 74 75 75 75 75 77
64 71 68 66 72 71 74 66 61 56 53 45 50 53 49 57 63 66 69 71 73 74 75 76 84 84 82 83 81 79 77 77 76 77 73 73 72 72 72 74 75 74 74 75
59 63 66 71 62 67 64 53 43 42 43 42 47 52 55 64 71 70 70 73 76 80 78 78 78 82 80 80 80 78 77 75 77 75 75 75 74 73 73 74 78 75 73 73
45 48 59 67 58 54 55 52 44 37 38 43 53 48 58 69 74 77 75 76 77 78 78 79 81 83 81 80 80 78 76 76 77 76 75 75 75 74 75 74 79 79 79 78
44 48 64 67 65 60 58 50 56 47 42 43 49 58 67 72 70 74 73 73 76 76 72 77 82 85 82 80 80 79 77 77 77 77 77 73 75 73 76 74 75 78 81 80
48 43 53 62 65 63 55 59 49 45 37 35 45 49 53 61 63 69 67 69 73 74 75 77 82 83 82 82 81 80 79 78 77 78 78 78 75 73 73 74 74 75 78 77
46 44 48 55 50 48 51 48 47 45 44 39 38 46 58 60 62 63 68 72 73 77 75 77 81 84 83 82 82 80 80 79 77 78 78 78 77 73 72 73 75 75 76 76
47 41 38 45 56 60 55 50 44 38 41 43 44 47 64 65 66 69 70 73 75 78 79 80 80 81 83 82 82 80 80 79 79 79 78 77 78 77 72 74 74 75 75 75
48 38 33 40 45 51 49 52 43 44 39 41 41 46 64 64 68 70 69 71 71 79 76 73 78 75 73 75 78 82 80 79 78 79 79 78 78 77 78 76 72 74 74 74
53 37 35 30 35 45 44 50 51 42 34 38 43 52 58 61 66 69 67 70 70 67 67 65 65 66 69 71 70 73 80 80 78 77 79 77 78 78 79 80 75 73 76 73
44 34 36 39 46 48 48 48 50 45 43 37 46 49 55 57 64 66 65 67 68 69 68 66 66 66 66 67 69 72 80 82 81 80 75 77 78 79 79 80 79 76 72 78
42 35 37 35 46 44 44 48 50 51 52 49 51 50 58 57 63 65 66 63 66 67 69 69 71 70 71 71 70 72 76 84 82 79 78 74 79 78 78 78 79 78 76 76
38 35 32 26 40 40 36 44 47 49 53 50 44 50 56 55 60 57 60 65 66 69 69 69 69 67 68 72 74 72 69 71 77 80 80 79 76 78 78 78 78 77 77 80
37 34 32 27 32 23 41 51 53 51 52 52 50 51 53 53 56 60 60 60 65 67 66 66 67 67 69 70 72 70 71 72 73 74 80 80 79 78 78 78 77 78 78 78
40 35 29 26 26 36 44 50 50 45 43 50 48 51 53 54 57 57 59 62 66 67 66 68 69 67 67 68 70 71 71 70 71 73 76 79 80 78 78 77 78 78 77 78
40 38 32 30 27 26 37 45 54 54 38 48 49 48 49 51 42 47 57 61 64 67 67 67 68 67 65 65 67 68 68 68 69 70 74 77 78 76 78 78 78 80 80 78
30 32 27 33 31 34 41 46 49 38 39 47 48 47 47 44 46 52 57 60 64 66 66 67 66 64 64 64 65 64 64 63 65 68 71 75 83 81 81 80 80 80 79 80
33 30 31 32 32 28 44 44 37 39 40 44 45 44 44 46 49 53 55 58 60 62 65 65 63 63 63 64 64 62 62 63 64 65 67 69 82 83 82 80 80 80 79 78
32 33 29 32 33 42 44 39 45 42 42 42 43 45 47 45 45 48 51 54 59 61 62 63 61 61 61 62 61 59 61 62 62 63 65 69 75 79 83 80 79 79 79 78
36 42 35 35 40 40 43 46 47 46 43 45 46 46 44 44 46 46 50 52 56 58 58 60 58 58 58 58 59 59 60 60 60 60 63 66 74 78 80 82 81 80 80 78
38 38 37 35 39 40 42 44 45 45 46 46 47 47 45 44 45 47 49 51 53 54 54 56 57 56 57 56 56 57 57 58 59 60 63 63 75 78 78 82 82 81 83 80
40 37 32 29 38 36 38 42 46 44 44 46 45 45 47 47 48 50 50 51 52 51 53 52 53 54 55 54 54 55 56 56 56 58 62 61 64 79 80 81 78 56 62 60

GFSCGP_sfc_temp_081.txt.gz
Temp
62 55 51 57 60 62 60 56 55 62 70 65 65 63 64 67 71 68 70 74 75 79 80 82 81 81 80 79 78 76 77 73 73 71 71 70 70 72 73 73 76 75 74 75
56 51 62 66 65 63 59 56 55 63 69 63 60 60 65 64 67 70 71 73 75 79 79 80 80 79 78 77 78 77 77 74 74 72 72 73 72 72 73 74 74 75 75 75
53 61 69 66 61 60 54 53 55 59 65 63 61 57 60 64 66 68 71 71 75 77 77 79 78 78 79 77 76 76 77 75 74 73 72 71 72 72 72 72 73 73 76 75
58 67 67 62 61 61 48 64 65 63 57 51 59 46 55 62 61 64 67 67 69 75 79 79 78 77 77 78 78 78 77 75 75 73 73 72 71 69 71 72 74 75 75 76
58 60 60 60 63 66 59 66 63 62 54 50 54 49 50 60 59 62 67 68 69 73 78 78 79 78 79 80 79 78 76 76 76 74 75 72 70 71 72 73 73 73 74 75
61 67 64 63 68 68 70 61 57 51 50 43 51 50 50 53 60 63 68 70 71 73 76 80 81 81 79 80 79 78 75 75 75 74 72 73 71 71 71 70 72 71 72 73
56 59 62 66 57 62 59 50 41 41 41 41 45 49 55 61 64 67 68 71 72 74 76 79 78 80 79 78 78 77 75 74 75 75 72 72 72 71 71 71 72 71 71 72
43 45 56 64 55 51 50 50 42 37 36 42 47 47 56 66 70 70 73 74 74 74 77 79 79 80 80 79 78 77 75 75 75 75 74 72 71 73 72 72 73 74 75 76
42 44 60 63 62 57 52 46 50 43 38 43 45 53 61 64 66 67 68 70 72 75 76 78 80 81 80 79 78 77 75 76 75 76 76 74 72 71 72 72 73 74 75 77
44 40 49 58 61 59 53 53 44 42 36 35 43 46 49 55 59 64 65 67 68 71 72 74 79 81 81 81 80 79 77 76 76 77 77 77 74 72 71 72 72 73 74 75
42 42 46 52 48 47 47 43 42 41 40 36 37 44 55 56 60 62 64 66 68 70 74 74 79 82 82 81 80 79 78 77 76 77 77 77 76 72 70 72 73 73 73 73
45 38 36 42 52 56 53 43 39 36 34 37 39 44 60 60 63 64 64 66 68 70 73 77 77 81 83 79 80 79 79 78 78 78 77 77 77 74 72 71 73 73 73 73
46 36 32 37 43 47 44 47 39 38 34 32 33 42 63 61 62 63 64 66 67 66 68 70 72 75 79 76 78 80 79 79 78 78 77 77 76 75 75 73 71 73 74 73
50 34 34 31 34 41 40 46 46 39 33 34 38 43 53 56 57 61 61 66 66 66 65 65 65 65 67 68 69 75 79 77 76 75 75 76 76 76 77 77 71 72 73 74
42 33 34 37 42 44 44 45 46 40 40 36 43 44 51 53 54 56 59 62 66 66 67 66 66 65 67 67 68 71 71 78 77 75 72 74 76 77 77 77 77 73 73 75
39 32 33 34 43 43 40 44 46 47 48 46 46 46 49 53 57 55 55 57 61 66 66 67 66 66 66 67 68 69 70 71 76 72 72 72 73 75 76 76 77 75 73 73
36 33 29 26 36 39 34 41 44 45 47 47 42 43 50 49 52 52 53 56 59 61 67 65 65 64 66 68 69 68 69 70 74 77 76 74 73 74 75 75 75 76 76 75
34 32 29 26 30 22 38 47 49 46 46 46 46 47 49 49 54 54 55 55 58 61 62 63 62 63 64 66 69 70 70 70 71 73 74 74 72 74 73 73 74 76 77 76
36 33 27 25 25 33 41 41 41 38 41 46 44 46 48 50 54 55 56 57 59 61 62 65 63 63 63 63 65 66 67 68 70 71 71 72 74 71 73 72 74 72 76 76
37 34 30 27 25 25 35 42 48 45 34 45 45 44 45 46 40 45 52 55 58 61 63 63 64 63 60 61 63 64 63 64 63 65 66 69 74 74 73 73 73 74 73 76
27 28 26 27 25 32 42 44 47 33 32 41 43 44 43 40 42 46 51 53 56 59 63 64 63 61 62 59 59 59 61 60 62 64 65 66 69 74 75 74 73 73 73 73
33 26 27 28 30 26 44 44 37 36 37 40 42 44 43 45 46 47 48 49 52 55 61 61 59 60 62 62 60 58 57 60 61 62 63 64 66 69 74 76 73 74 73 74
32 31 26 29 29 38 40 39 43 46 44 44 44 45 45 44 45 45 45 47 49 52 56 61 58 58 58 59 57 57 56 57 58 59 60 62 64 66 70 78 74 72 73 75
33 39 34 33 35 37 39 42 45 47 45 46 46 46 46 44 46 46 46 46 48 51 54 56 57 55 56 56 58 54 55 56 57 57 59 61 62 62 68 74 75 75 74 75
33 38 34 36 35 37 40 41 42 46 47 46 47 47 46 46 46 47 47 46 47 49 53 54 55 53 55 55 54 56 54 53 54 55 58 61 63 62 64 73 74 77 76 73
36 35 33 30 36 37 37 42 45 45 45 46 45 45 47 47 46 47 47 50 48 49 51 51 50 52 53 52 52 54 52 51 51 52 56 58 60 62 64 70 72 56 57 56

GFSCGP_sfc_temp_084.txt.gz
Temp
58 52 48 54 58 59 58 56 55 59 66 63 62 62 62 65 67 67 69 72 73 74 76 78 78 78 77 78 74 73 72 72 72 71 71 71 71 72 74 74 76 75 75 75
54 48 59 63 62 60 57 54 53 65 68 62 59 58 60 63 65 68 69 71 73 75 75 76 77 77 77 76 74 73 73 71 73 73 72 73 72 73 73 74 75 76 75 75
52 59 66 64 60 59 53 51 53 58 66 62 58 55 56 62 65 68 70 73 73 75 74 75 76 76 77 75 74 74 73 73 74 72 72 71 72 73 73 74 75 75 76 76
56 64 65 60 59 59 44 62 63 60 55 49 57 46 51 58 60 64 65 67 69 72 76 77 76 76 76 76 77 76 75 73 74 72 72 71 71 71 72 73 75 74 76 76
56 60 59 57 60 63 57 64 60 59 52 48 52 49 50 56 57 61 65 67 68 70 74 77 78 77 77 78 77 77 75 74 74 73 73 72 71 72 73 74 74 74 75 76
58 63 61 60 65 65 66 58 53 49 47 42 49 49 49 53 57 64 67 69 70 70 72 75 79 79 78 79 78 77 74 73 73 73 71 71 72 71 71 72 73 74 74 75
54 55 59 62 56 58 57 49 39 39 39 40 42 49 52 59 63 64 66 69 72 73 73 74 76 77 76 76 77 76 73 72 73 73 72 71 72 72 72 72 73 73 73 74
43 44 54 61 53 51 49 48 41 35 35 41 45 45 53 62 64 66 67 69 72 72 75 75 78 77 77 77 76 76 73 73 73 73 72 71 71 74 73 73 73 74 75 76
42 43 58 60 59 55 49 45 46 40 36 41 44 51 59 62 63 64 65 67 68 71 73 75 79 79 78 77 76 75 74 74 74 74 73 71 71 71 73 72 73 74 75 78
42 40 48 55 58 57 52 50 44 41 36 35 41 42 46 53 57 61 62 62 65 68 71 74 77 79 80 79 79 77 76 75 75 76 75 74 72 72 73 73 73 74 75 76
39 42 45 49 44 42 45 42 40 40 38 36 36 40 53 52 55 57 61 64 65 65 67 72 77 79 81 80 80 78 77 75 75 76 76 75 73 71 71 73 74 75 75 75
44 38 34 37 49 51 46 41 37 38 36 35 37 41 57 56 58 60 61 63 66 67 65 69 74 78 80 79 79 78 78 77 77 76 76 76 75 73 72 72 73 75 75 74
46 36 32 35 42 45 43 45 36 35 34 33 37 41 58 56 56 58 57 60 65 66 66 65 67 72 78 78 78 78 78 76 78 76 77 76 75 74 73 73 72 73 74 74
49 34 35 33 35 39 39 44 44 37 34 34 37 42 49 50 51 53 54 58 63 65 64 65 64 65 66 69 73 76 78 74 72 72 73 73 74 74 75 75 73 73 74 74
42 33 34 36 41 42 42 44 44 39 40 37 42 43 46 48 50 52 54 56 59 60 65 66 65 65 66 68 69 72 72 73 72 72 71 71 72 75 74 74 74 74 73 75
38 33 35 36 42 41 39 43 44 44 45 43 44 43 48 51 53 52 52 53 55 59 62 65 65 64 65 67 69 71 71 72 72 71 72 72 72 74 73 73 73 73 73 74
34 31 29 26 35 37 33 38 42 44 44 43 40 41 47 46 49 50 50 52 55 57 62 63 63 62 64 65 68 68 70 70 72 71 73 72 72 72 73 73 73 72 73 74
34 30 28 26 27 23 36 43 45 44 45 45 44 45 46 47 49 51 53 51 54 56 58 61 63 62 62 64 66 67 69 69 70 71 73 72 72 71 71 72 72 72 74 73
35 31 26 25 24 32 38 39 38 36 39 43 41 43 45 46 50 52 52 52 53 56 58 61 63 63 62 61 65 65 65 64 65 65 67 71 72 71 72 71 72 71 73 74
36 33 29 27 26 26 33 42 47 44 32 41 41 40 41 42 39 46 50 51 52 55 56 56 60 63 62 61 61 62 62 61 61 62 64 65 67 69 72 72 72 71 72 74
25 27 26 27 24 31 40 43 45 32 33 40 41 40 40 37 42 45 49 50 52 53 54 55 57 60 61 61 60 60 60 59 61 62 63 64 65 66 69 72 72 72 72 72
27 24 26 30 31 27 43 42 36 37 38 40 42 44 44 44 45 46 47 48 50 49 51 53 52 57 61 61 60 59 57 59 60 61 62 63 64 65 67 69 73 72 71 71
25 30 25 28 28 37 40 39 42 41 40 43 45 46 46 45 44 45 46 47 48 49 50 51 52 54 59 60 59 57 58 59 59 60 60 62 63 65 65 66 68 72 72 71
31 36 34 30 35 36 39 42 43 44 45 47 47 47 47 45 46 45 47 48 49 50 50 51 51 51 55 58 57 57 57 58 58 58 58 60 61 62 63 65 68 72 74 73
32 38 33 30 35 37 40 41 42 44 48 48 48 48 47 46 46 47 47 47 49 50 51 51 50 52 55 56 55 57 56 56 56 56 58 58 61 61 62 64 65 70 76 74
35 33 29 30 37 37 39 43 44 45 46 47 47 46 48 47 45 47 46 48 48 49 51 50 50 53 54 53 54 54 55 54 53 53 56 56 58 59 60 63 65 59 56 54

GFSCGP_sfc_temp_087.txt.gz
Temp
70 66 62 68 70 70 70 70 69 71 75 74 74 74 74 74 74 71 74 76 78 79 83 85 85 85 84 84 81 81 80 81 81 82 82 82 83 83 85 86 85 84 83 82
66 63 69 72 70 69 70 68 68 71 74 73 72 70 70 72 74 74 75 76 78 81 82 82 84 85 84 83 82 80 80 80 81 83 83 84 84 85 86 85 84 84 84 83
63 68 71 70 68 67 68 68 67 69 72 72 71 67 67 69 73 76 77 79 81 81 81 82 82 83 84 83 82 81 80 81 81 82 82 82 83 83 84 84 84 85 85 85
67 72 69 68 68 70 64 71 70 69 69 66 70 65 67 69 70 72 74 77 80 81 83 85 84 83 84 84 84 83 82 81 82 81 82 80 83 83 86 86 87 85 85 85
65 67 67 66 69 72 67 72 71 70 68 67 67 68 70 68 68 72 74 76 80 83 85 85 85 85 86 86 85 84 82 81 82 80 82 82 82 86 87 86 83 83 83 85
68 73 72 72 73 74 74 70 67 67 68 60 66 68 65 67 67 72 78 77 78 82 85 86 88 88 86 87 86 85 82 80 81 81 81 80 81 83 84 84 84 86 86 86
65 64 69 70 69 70 71 68 57 55 56 58 63 65 63 69 70 71 73 79 80 82 83 84 85 85 85 85 85 85 81 79 80 81 81 80 81 82 82 83 85 84 86 86
58 54 63 68 66 67 69 69 60 50 53 59 61 60 61 70 74 74 76 78 81 82 83 83 84 85 85 84 83 83 80 80 80 81 81 81 81 84 85 85 87 88 88 88
57 55 65 66 67 66 63 62 66 60 57 61 63 63 68 71 70 71 72 74 75 79 82 84 85 86 85 85 83 82 81 80 81 81 81 80 80 81 84 83 84 87 86 89
58 54 60 63 66 67 66 65 61 63 51 52 56 56 59 60 63 67 68 69 73 76 77 81 85 86 86 86 85 84 83 80 82 82 82 82 81 81 83 83 82 84 86 86
60 60 56 62 55 53 62 61 58 63 58 57 53 54 63 60 63 63 66 69 72 74 76 76 80 85 87 87 87 85 83 82 82 83 83 82 82 82 82 83 83 84 85 85
56 58 50 52 58 59 59 54 56 60 53 55 61 54 65 64 65 65 65 68 70 73 75 76 79 81 86 86 86 86 86 85 84 84 83 82 83 82 82 81 83 84 83 84
57 52 48 49 57 59 55 56 56 55 58 53 57 54 65 65 64 64 64 66 69 70 70 74 75 76 78 85 85 86 86 87 87 85 82 83 83 82 81 82 82 83 83 84
58 51 50 52 50 54 51 53 56 57 56 53 57 56 60 59 59 61 63 65 67 67 67 67 66 68 73 76 81 84 84 85 85 86 85 82 82 82 83 83 82 82 82 83
57 47 49 49 51 52 51 52 53 53 54 54 54 55 56 57 58 59 62 63 64 60 63 65 64 64 65 69 76 81 84 83 83 82 81 82 82 83 82 82 82 82 82 82
52 45 48 43 49 49 48 51 52 53 54 54 54 54 57 59 61 59 60 61 60 58 59 62 67 67 63 63 66 76 80 82 82 80 80 80 81 81 81 81 81 81 81 81
47 46 44 41 45 47 44 48 50 52 54 52 52 51 56 56 56 57 57 59 57 57 58 59 62 67 68 65 63 67 75 78 79 79 80 80 79 78 79 80 80 80 80 81
47 43 43 40 43 35 47 52 51 51 50 52 52 50 52 53 56 60 58 57 58 58 57 61 64 64 68 70 66 63 69 71 74 76 78 79 78 77 78 79 78 78 80 80
50 47 38 38 40 43 45 47 47 47 48 49 48 49 51 54 58 58 59 58 57 59 60 59 64 64 65 69 68 63 63 66 68 71 71 71 75 77 77 77 78 79 78 80
49 49 46 40 37 36 45 49 52 51 45 48 49 49 50 52 51 60 58 58 58 59 60 59 61 63 63 67 69 65 62 63 63 65 67 67 69 69 73 76 77 78 78 78
41 42 40 40 39 44 50 51 52 42 44 49 49 49 50 48 51 54 57 57 58 57 57 59 59 61 62 63 67 65 64 61 63 65 66 67 67 67 68 71 72 74 75 76
40 38 38 40 37 34 52 50 45 47 50 49 50 51 50 52 53 54 55 55 56 57 57 57 57 59 61 63 64 65 62 63 61 62 69 70 69 71 73 72 73 73 72 72
36 43 39 42 44 49 53 52 52 52 49 51 51 52 52 52 52 53 54 55 56 56 58 59 57 57 59 61 63 64 65 65 61 59 61 67 70 71 72 70 71 72 71 71
42 45 40 41 49 48 50 52 53 53 52 53 54 54 52 51 53 52 51 53 54 56 57 59 58 58 58 59 62 65 65 65 62 58 58 61 64 67 69 71 72 70 72 76
45 45 42 42 46 47 49 52 52 52 54 54 55 54 52 51 52 50 48 49 52 55 57 58 56 57 59 59 59 65 65 64 61 61 59 61 64 64 65 69 66 71 72 69
46 44 40 42 51 51 51 53 53 52 53 54 53 54 54 54 51 50 47 49 50 53 55 54 54 55 58 61 61 61 63 62 61 61 62 58 60 65 63 65 64 56 55 54

GFSCGP_sfc_temp_090.txt.gz
Temp
79 75 72 78 81 83 83 80 77 82 85 82 81 81 78 82 83 75 77 82 86 87 91 92 92 93 92 91 89 88 87 86 88 89 89 89 88 87 92 93 91 89 90 89
74 70 80 83 80 78 79 78 78 80 83 82 81 81 82 77 82 84 80 82 86 88 90 90 91 92 91 90 89 87 86 86 86 90 90 91 91 91 89 93 90 91 90 89
73 77 82 77 76 75 78 78 77 77 80 83 81 78 79 80 83 82 84 84 88 88 89 89 90 91 92 90 88 87 86 86 86 89 89 88 89 90 87 88 90 91 90 91
75 80 76 76 75 78 73 81 79 77 77 72 82 71 79 81 80 81 84 86 89 89 91 92 92 91 92 91 92 89 87 86 87 87 88 86 89 89 92 90 93 91 90 89
72 75 73 73 76 79 76 81 79 78 77 76 76 75 75 81 78 80 83 84 89 91 92 93 93 92 94 94 93 92 88 86 87 87 86 88 86 92 93 93 86 87 88 90
76 83 80 79 81 81 80 77 77 78 78 66 76 76 72 75 73 78 84 85 87 92 93 94 95 95 94 96 95 93 88 85 86 86 86 85 87 88 91 90 88 83 91 92
71 73 77 79 76 80 78 75 64 62 64 65 80 74 69 75 78 80 82 87 88 91 93 93 93 94 93 93 93 93 89 85 84 86 86 86 86 87 87 86 88 83 85 93
65 59 72 76 76 73 75 77 68 56 61 68 76 68 68 77 81 82 85 86 89 90 92 92 92 93 94 93 93 91 89 86 86 86 86 86 86 90 91 90 93 93 92 94
67 62 72 72 76 76 74 71 82 71 75 71 71 69 75 78 78 79 81 83 83 86 91 91 93 93 94 93 92 91 89 87 86 88 86 86 86 86 90 89 90 93 93 93
70 61 70 71 75 76 76 82 68 72 59 59 68 65 67 69 72 76 76 79 82 84 85 88 92 93 94 95 95 93 91 88 87 89 89 88 88 87 88 89 88 89 92 91
74 70 65 71 67 68 71 71 73 77 72 65 61 65 71 69 71 73 75 77 77 75 83 85 87 91 95 95 95 95 92 90 89 89 89 88 89 89 88 89 88 88 89 90
68 72 64 64 67 69 70 70 73 67 64 71 71 60 73 73 74 75 74 74 69 69 71 74 82 88 91 93 95 94 95 93 92 91 89 89 89 89 89 88 89 89 88 89
67 67 58 59 67 68 67 68 71 73 75 67 66 58 72 73 72 73 73 74 69 67 68 71 71 71 78 82 87 93 94 95 95 92 92 89 89 88 88 88 88 89 88 88
66 67 61 60 62 68 62 64 67 71 67 69 69 61 65 68 68 70 72 73 72 70 66 68 71 69 70 73 73 86 91 95 95 95 93 89 88 88 89 89 88 88 88 87
66 58 62 61 62 63 63 62 63 65 66 64 66 64 64 65 66 68 71 71 70 69 69 68 68 70 70 68 69 73 85 91 92 90 90 90 88 88 88 88 88 88 88 88
64 56 59 55 58 59 58 62 61 62 63 64 67 59 67 68 69 67 68 68 67 67 68 70 72 70 72 72 69 67 70 79 89 87 85 87 88 88 87 87 86 86 87 86
59 59 56 54 56 57 54 62 62 62 63 65 62 61 65 64 63 64 64 66 66 66 67 68 71 72 72 75 76 68 66 72 78 84 85 84 85 85 85 86 85 84 85 86
57 56 59 57 54 44 56 62 62 62 60 63 62 60 61 62 65 69 66 64 65 66 67 69 72 73 75 77 79 74 70 66 68 72 78 81 82 81 82 83 84 83 85 84
62 59 52 49 53 53 54 57 58 59 56 60 61 59 61 64 67 66 66 66 66 66 68 70 72 72 74 75 76 76 75 71 66 64 66 70 79 79 81 79 80 81 82 84
58 59 54 52 46 44 56 58 62 62 54 59 60 59 59 62 62 63 65 67 67 68 68 68 69 72 73 74 75 73 75 74 73 69 65 67 70 72 76 80 80 81 82 82
49 51 48 51 48 54 59 59 62 49 50 58 59 59 59 59 61 63 66 65 67 67 67 68 69 69 70 71 71 69 71 73 73 74 74 67 69 70 72 74 73 77 79 80
49 46 47 51 46 42 62 58 53 55 58 59 59 59 58 59 61 62 63 63 64 64 66 68 67 68 70 70 68 67 68 71 72 73 72 71 69 71 75 76 76 78 75 77
44 55 50 51 54 59 63 61 62 62 60 59 60 61 60 60 61 62 61 61 62 63 64 66 66 65 67 69 68 64 67 70 70 70 69 71 70 73 75 76 76 79 80 77
53 56 47 50 58 58 60 61 62 62 61 61 63 61 61 60 61 61 61 60 59 60 61 64 64 64 64 66 67 68 66 69 67 65 67 69 69 68 72 77 80 82 82 83
57 55 51 52 56 57 60 61 62 61 61 61 62 61 60 61 60 61 59 55 57 54 57 60 57 56 59 62 64 68 69 67 69 67 65 69 69 66 70 73 76 78 80 78
58 54 48 48 60 59 60 62 62 60 60 61 60 60 62 61 60 59 55 56 54 56 52 53 52 52 53 56 61 65 69 68 67 68 71 68 71 70 68 67 71 63 54 52

GFSCGP_sfc_temp_093.txt.gz
Temp
84 79 76 82 85 89 87 84 78 84 90 85 82 76 83 83 84 80 80 83 82 86 94 95 96 97 96 95 91 91 90 88 90 90 91 92 90 86 87 85 92 91 92 91
80 75 85 89 88 86 85 84 80 85 89 88 84 82 85 87 81 78 81 81 83 87 92 93 94 95 95 93 91 89 89 87 89 92 92 94 82 92 93 86 92 93 92 91
77 82 88 85 84 81 84 84 82 82 85 89 86 80 80 85 88 82 86 87 87 86 89 88 92 94 95 92 91 89 88 87 88 92 90 92 91 79 92 85 92 92 93 92
81 88 83 82 80 83 78 88 87 84 80 75 87 73 78 83 82 84 88 89 86 85 90 89 91 93 95 93 93 90 88 87 89 90 91 84 85 87 83 92 84 91 92 92
77 81 80 77 80 84 82 89 84 85 81 82 81 76 76 85 82 84 87 87 86 86 90 90 91 91 93 96 95 93 89 87 89 88 88 89 86 81 88 84 85 84 87 90
83 89 85 83 87 87 87 85 82 83 82 72 80 79 74 76 80 83 90 89 93 92 90 92 94 91 94 98 96 94 89 86 88 88 87 87 89 87 85 85 91 91 91 91
77 78 86 87 82 86 83 79 68 66 68 69 83 79 74 81 84 86 89 91 93 94 91 90 90 89 93 91 96 95 89 86 87 88 88 87 87 89 89 88 90 89 91 79
69 65 79 84 82 78 79 80 71 58 65 71 83 71 71 83 87 89 91 94 95 96 90 90 93 90 91 92 93 95 90 87 87 88 87 88 88 91 91 91 92 93 93 84
71 69 80 82 85 82 78 74 87 78 81 75 76 73 79 84 84 86 87 89 93 94 95 90 89 94 92 91 94 95 93 89 89 89 88 88 88 88 92 93 91 93 85 82
77 66 77 79 82 83 79 86 74 77 64 63 72 68 70 75 77 82 84 79 75 81 86 86 82 90 94 95 96 96 94 91 90 91 90 90 89 89 89 91 90 92 93 88
80 74 70 76 74 75 77 75 79 82 78 69 66 65 79 76 79 79 72 73 74 76 76 80 88 87 88 95 95 97 96 93 91 91 91 90 90 91 90 90 90 90 91 91
77 76 67 70 77 79 80 79 80 70 68 76 72 64 82 80 81 79 70 66 68 71 75 78 80 83 84 79 79 93 96 96 95 93 91 91 91 91 91 89 91 91 89 90
75 70 63 64 72 77 74 78 80 82 81 71 69 63 79 80 78 80 76 74 69 70 72 76 78 77 78 77 79 76 85 96 99 95 94 92 91 90 90 90 90 91 90 89
68 72 67 60 67 75 69 72 76 78 70 73 73 64 72 75 74 76 76 76 76 76 75 73 74 76 77 77 76 74 77 81 82 92 96 92 90 91 91 91 91 90 90 89
74 65 67 68 70 73 73 72 72 71 75 70 67 67 71 73 74 75 76 75 74 73 75 75 76 75 77 77 76 76 78 79 83 79 85 88 92 91 91 90 90 90 90 90
72 64 65 64 66 68 66 70 69 71 71 74 70 64 73 74 75 73 74 74 72 72 73 75 76 76 77 78 77 73 75 76 80 75 77 83 81 86 88 89 89 89 89 89
66 67 62 57 67 64 59 68 70 71 73 73 67 68 72 70 70 71 71 71 71 71 72 73 75 76 77 79 79 77 73 76 75 73 70 70 81 80 81 84 84 85 86 88
64 63 64 60 61 48 65 71 75 71 71 73 69 70 72 71 72 72 72 70 70 71 72 73 76 76 78 81 80 78 79 75 72 71 70 70 70 74 77 80 80 81 83 84
70 65 59 56 57 62 61 64 65 67 62 70 69 68 70 71 74 69 71 71 71 71 73 74 76 76 77 77 79 77 77 78 75 71 71 69 71 72 71 75 77 78 80 82
67 66 60 59 52 51 62 68 71 72 58 68 70 68 67 69 66 64 69 71 72 73 73 73 74 76 77 76 78 75 76 76 76 75 73 71 73 71 73 73 72 76 79 83
56 57 54 56 54 60 65 67 69 53 56 67 69 67 66 67 66 68 70 69 71 72 72 73 73 73 74 75 74 72 73 74 75 77 77 75 73 71 73 73 75 77 78 78
55 51 54 57 53 48 68 65 58 61 66 66 66 66 65 66 67 68 68 67 68 68 69 71 71 71 73 73 72 70 70 72 73 75 75 75 76 77 78 75 77 76 79 78
50 61 53 59 53 64 69 67 69 70 66 66 66 67 66 66 66 66 66 66 66 66 66 68 68 68 70 71 70 68 69 71 71 71 72 73 74 75 75 74 75 78 78 80
60 63 55 57 63 63 66 67 68 69 67 67 68 67 67 65 66 65 66 66 64 65 63 65 65 64 63 65 66 66 68 70 71 69 71 73 73 73 74 78 80 81 82 84
62 62 57 57 62 64 65 67 67 67 68 67 67 67 66 66 65 65 64 63 63 62 63 61 59 60 61 63 63 65 67 69 69 70 71 74 75 73 76 76 78 78 78 76
65 60 54 52 64 63 65 67 68 66 65 67 66 65 67 66 63 63 62 63 61 58 58 56 57 58 60 61 61 63 62 62 64 68 72 74 76 76 75 76 77 64 58 55

GFSCGP_sfc_temp_096.txt.gz
Temp
82 75 73 79 83 85 85 83 77 76 77 74 67 65 69 80 82 82 83 84 85 87 91 93 94 94 94 91 88 88 86 84 85 85 85 86 83 83 82 75 83 85 85 86
79 72 83 87 87 84 83 83 77 77 80 72 68 62 70 81 82 83 83 82 83 82 86 91 92 93 92 88 87 86 85 84 85 86 86 86 81 85 83 75 80 89 84 86
75 80 87 85 84 81 82 82 76 67 68 84 76 60 55 79 85 83 83 85 85 83 83 89 91 91 92 87 86 86 84 83 85 87 88 78 74 74 81 80 83 86 87 88
79 87 84 83 81 84 77 88 85 78 76 73 84 64 69 76 74 71 73 82 84 86 89 91 92 91 91 89 89 86 85 83 85 85 84 83 78 76 80 81 83 85 86 87
77 81 81 79 81 86 80 90 81 81 78 80 80 71 75 76 65 64 66 81 85 89 90 91 89 91 93 91 90 87 85 83 85 85 84 83 81 76 74 79 74 82 85 89
82 90 87 85 87 88 89 85 85 82 79 69 77 76 71 70 62 67 68 83 84 85 87 88 91 94 94 92 91 88 84 82 84 84 85 82 76 74 75 77 76 78 83 85
78 81 87 87 81 86 84 80 68 64 66 66 81 76 67 65 64 76 75 86 80 78 79 89 89 91 89 89 90 87 83 81 83 84 84 84 82 82 72 75 75 82 84 78
68 66 79 86 82 79 80 80 69 57 62 68 80 65 71 85 89 91 89 90 81 73 72 90 89 90 78 90 89 87 82 81 83 84 83 84 84 82 85 79 87 86 86 81
69 70 84 86 87 84 78 73 85 75 77 71 69 72 79 84 85 87 83 80 74 83 83 72 86 91 85 83 86 86 83 82 83 84 84 84 84 84 86 86 86 86 85 78
74 63 81 81 85 84 79 86 72 75 60 60 65 65 66 75 74 78 75 76 72 76 76 70 70 73 72 78 90 88 85 83 84 85 85 85 85 85 85 86 85 86 82 77
77 71 71 79 74 73 75 73 76 78 75 64 58 62 79 77 74 72 71 71 72 75 76 75 70 69 67 74 80 89 87 86 85 86 85 85 85 86 85 86 87 86 84 80
78 74 65 71 81 83 82 77 78 67 65 71 56 60 68 75 76 72 70 70 72 74 77 77 77 74 72 72 72 72 74 82 89 88 87 86 86 86 86 85 87 86 85 84
72 71 62 66 73 78 74 78 81 81 80 61 60 59 67 67 71 73 70 71 72 73 74 76 77 77 75 75 71 72 73 74 72 84 89 85 86 86 85 85 86 87 85 85
71 71 63 55 62 73 69 74 78 78 69 71 61 65 71 67 68 72 74 75 75 74 74 75 76 76 76 76 75 72 71 76 79 73 74 83 83 85 87 86 85 86 86 84
74 62 67 69 71 73 74 73 76 72 74 60 62 64 65 70 69 71 74 74 73 73 73 73 74 75 76 76 75 75 74 72 75 73 72 73 72 82 84 84 85 86 86 86
74 63 66 65 70 71 69 75 76 75 75 68 67 58 65 70 71 70 73 72 71 72 73 73 74 75 76 75 75 75 75 75 72 72 70 72 74 73 82 84 84 84 85 85
67 66 62 58 67 64 60 69 71 72 75 69 59 60 71 70 71 70 71 71 70 71 72 73 74 74 76 77 75 75 76 76 73 72 71 70 73 73 72 78 81 83 82 82
66 63 63 58 62 48 65 74 76 74 75 74 72 69 72 72 73 73 73 71 70 71 72 73 75 75 77 78 77 75 77 76 73 72 71 70 69 71 72 72 74 76 78 79
72 65 59 54 56 62 65 66 69 70 68 74 72 71 73 74 72 68 72 73 71 72 73 74 75 76 76 76 76 74 75 74 75 73 71 70 70 67 70 72 72 72 74 76
69 67 60 59 52 48 62 71 74 73 59 73 72 71 71 72 62 64 71 73 72 73 73 73 74 76 76 74 76 72 72 73 72 73 74 73 73 71 69 69 70 73 75 75
57 58 55 56 54 58 67 69 73 54 55 72 74 72 71 66 66 69 71 70 71 71 71 72 72 72 72 73 72 70 71 70 71 72 74 74 74 73 73 72 74 74 71 73
56 53 53 56 53 49 70 68 60 63 69 70 69 70 69 68 69 69 69 68 68 67 68 70 69 69 71 71 70 68 67 69 70 71 70 72 72 74 75 72 72 72 73 73
51 57 54 54 53 65 69 66 69 70 66 67 66 68 68 68 68 68 67 67 67 67 66 67 66 66 67 66 65 62 63 65 67 67 69 69 71 72 72 71 70 73 74 74
62 66 56 58 61 65 66 69 71 71 68 69 70 68 68 67 68 67 67 66 65 65 64 64 63 62 62 63 64 64 64 65 65 65 67 69 69 71 71 73 75 75 75 76
62 64 59 58 63 65 67 68 69 70 70 70 70 69 68 67 66 66 65 64 64 63 63 62 60 60 60 62 62 63 62 63 60 63 65 67 71 71 73 72 74 74 74 72
66 61 56 54 65 64 65 68 70 67 67 69 68 67 69 68 65 64 63 63 62 61 61 59 59 58 58 58 58 60 59 61 59 59 63 65 66 69 72 74 73 65 57 56

GFSCGP_sfc_temp_099.txt.gz
Temp
73 61 56 63 69 73 74 70 67 70 72 67 65 64 68 77 79 78 79 78 81 81 83 87 87 87 85 82 80 78 79 77 77 76 75 76 75 72 72 74 76 78 78 80
64 58 70 76 77 75 74 71 65 70 77 66 61 65 70 77 78 78 80 79 82 83 83 84 85 85 83 80 79 78 77 77 77 76 75 76 78 74 74 74 76 78 79 79
61 69 78 76 74 73 71 67 65 64 67 68 61 59 61 67 76 78 81 79 84 80 83 82 83 83 82 80 78 77 76 77 77 77 74 75 71 70 72 72 74 78 81 81
67 77 77 74 72 74 61 78 78 71 64 54 65 50 57 63 69 74 78 79 78 81 81 85 82 81 81 81 80 77 77 76 78 78 75 74 73 70 71 74 75 77 81 81
66 72 72 72 75 78 71 80 73 71 65 55 57 52 56 60 61 69 72 78 78 81 83 85 85 83 82 83 81 79 77 76 77 77 75 74 72 72 73 73 74 76 76 80
73 81 77 74 81 81 83 76 74 70 61 56 64 56 52 57 62 68 72 74 78 80 83 86 86 85 83 84 83 81 77 75 76 76 77 74 72 72 72 71 71 72 74 75
70 73 78 81 68 76 73 59 51 52 54 52 66 64 54 63 66 70 70 70 72 76 83 85 83 85 83 82 82 81 76 75 75 77 77 76 73 72 72 71 71 72 73 74
56 55 71 79 68 64 66 61 52 46 48 56 64 54 57 69 71 72 71 72 72 72 76 80 85 85 82 83 81 80 76 75 76 75 76 76 75 72 74 75 72 76 79 79
59 60 78 80 79 74 66 61 68 58 57 54 57 61 67 72 69 71 68 70 70 74 72 69 69 71 73 78 78 80 77 77 77 75 75 76 76 74 74 73 75 77 77 77
64 53 69 77 79 76 66 67 56 55 48 44 54 54 58 64 64 67 67 68 67 69 66 67 68 69 69 72 72 77 79 78 79 79 78 76 76 76 76 76 77 77 76 75
63 55 61 69 61 60 63 58 58 58 57 49 45 51 63 61 62 63 66 66 67 64 63 65 69 69 68 71 70 72 72 74 79 80 79 79 77 76 75 76 77 76 76 74
64 56 50 59 69 73 67 65 61 51 50 51 47 46 60 64 63 64 64 65 67 69 68 69 70 70 69 70 68 69 71 73 72 72 76 79 78 77 76 76 77 77 75 74
60 53 47 52 55 64 61 66 62 61 56 54 49 47 63 61 63 63 64 65 67 70 70 69 69 68 68 68 68 70 69 72 71 72 72 72 77 79 76 76 78 76 76 76
63 59 52 46 49 58 58 66 67 58 56 55 55 51 58 61 61 65 66 68 68 69 70 70 70 69 67 69 68 69 70 72 71 72 71 70 72 73 76 77 77 79 79 78
60 54 53 57 63 65 65 67 69 59 56 53 51 53 55 61 64 66 67 68 67 66 66 65 68 68 70 68 68 68 69 69 70 69 69 71 72 72 72 74 76 78 77 79
62 53 56 54 66 65 61 66 69 67 62 60 56 52 63 68 67 67 66 66 64 64 66 66 66 66 65 65 66 68 67 67 67 67 67 70 71 71 72 72 74 75 76 77
55 54 51 44 58 57 50 58 63 63 64 60 50 55 65 64 66 64 63 65 63 64 64 63 64 64 64 65 65 65 67 69 68 66 67 68 70 69 70 71 72 73 74 74
53 52 48 44 48 39 54 64 67 66 67 62 60 61 62 65 67 64 64 63 63 63 63 63 63 65 66 65 65 65 66 65 65 65 65 66 66 68 70 69 70 70 71 71
59 51 45 41 41 51 63 62 62 61 58 65 61 61 63 66 64 60 65 65 63 63 62 63 64 64 64 64 65 64 64 64 64 63 64 65 65 66 68 69 69 70 70 71
59 57 49 47 39 39 51 64 69 68 51 66 67 65 63 64 52 56 63 64 63 63 61 62 64 64 62 62 63 62 62 62 61 62 63 65 66 65 66 66 68 70 70 70
47 47 44 44 44 50 59 65 69 49 49 62 65 62 62 52 53 58 62 61 61 61 61 62 61 59 60 60 60 58 58 57 60 63 63 63 64 65 64 64 64 65 65 69
45 42 42 44 41 40 63 62 51 54 57 60 61 61 59 59 60 60 60 59 60 58 59 60 57 57 57 58 57 54 54 56 58 59 60 61 62 65 67 63 63 63 63 64
41 47 43 45 44 54 58 57 59 59 56 57 57 60 61 61 59 59 57 57 58 57 56 57 55 54 55 55 54 53 54 56 57 57 58 59 61 63 64 63 62 62 63 63
52 56 46 48 54 57 59 61 62 62 60 61 61 61 61 58 61 58 56 55 55 55 54 54 53 52 51 53 54 53 55 55 54 54 56 59 58 60 61 63 64 62 62 62
52 54 51 50 54 57 61 60 61 61 63 63 63 62 61 59 58 56 54 54 54 53 53 52 50 49 49 50 51 52 52 54 57 54 55 56 58 58 60 63 64 63 63 62
55 51 44 43 55 54 54 58 63 60 61 61 61 60 62 59 56 56 53 53 52 51 51 50 49 49 49 50 50 51 52 51 50 52 54 54 55 56 58 58 60 59 56 54

GFSCGP_sfc_temp_102.txt.gz
Temp
66 59 54 61 62 65 64 63 64 64 68 62 63 59 63 68 69 69 77 75 76 79 81 83 82 82 81 79 76 77 75 74 73 73 71 69 70 69 70 72 75 76 76 77
60 54 65 69 69 67 65 62 59 64 68 65 64 62 66 68 70 74 76 74 77 78 79 81 80 81 80 78 77 76 76 74 74 74 73 74 73 71 71 72 74 76 77 77
56 63 72 69 66 65 64 59 60 60 63 64 64 61 61 65 73 77 79 76 80 78 77 79 79 80 80 76 77 76 75 75 73 75 72 71 70 71 71 71 72 75 77 78
62 71 71 66 64 66 54 71 71 64 58 54 63 48 58 63 63 72 78 77 78 79 80 79 79 79 79 77 78 77 76 75 74 74 73 72 71 69 70 72 72 74 77 78
61 66 66 65 68 71 66 74 73 66 57 56 57 51 53 62 62 69 71 77 79 82 82 79 79 80 81 79 78 78 76 75 74 75 73 72 70 70 72 73 73 73 75 77
66 74 70 69 75 75 77 70 66 60 53 46 56 54 54 55 64 66 72 72 77 80 83 82 81 82 80 81 79 78 76 74 73 75 73 72 72 71 71 71 70 71 72 74
63 66 72 75 66 69 68 56 45 44 48 47 57 55 59 64 68 71 71 72 72 69 73 79 80 78 78 79 78 77 75 72 73 74 74 73 72 71 72 71 70 71 71 72
50 52 66 73 68 62 59 58 48 44 45 49 59 51 59 69 72 73 74 70 70 70 71 69 74 79 78 79 78 78 74 72 72 74 74 73 73 71 72 73 71 72 73 73
50 54 71 74 75 71 59 55 62 54 48 51 52 55 64 67 65 70 67 71 70 69 68 68 70 74 72 71 73 77 75 73 72 74 73 73 73 72 73 73 72 73 73 76
57 50 61 70 72 69 65 65 59 52 44 41 47 49 48 57 61 66 66 64 67 65 67 68 69 69 70 70 70 71 77 75 73 74 75 75 74 73 72 71 72 73 75 76
53 52 57 63 58 58 60 55 54 54 49 44 42 44 60 60 62 62 64 65 63 64 65 66 67 70 69 70 70 71 69 73 74 74 73 75 75 75 74 73 74 75 74 74
55 51 47 55 65 69 63 58 54 49 47 47 44 48 62 61 62 63 63 63 64 65 66 67 66 67 70 68 69 69 69 70 71 72 73 72 73 75 74 74 75 74 74 73
58 49 46 51 56 61 58 59 54 53 49 47 45 46 61 62 61 63 63 64 64 64 64 65 66 66 66 68 67 68 69 69 71 71 70 70 70 72 72 74 75 74 73 73
61 48 49 46 48 53 54 60 59 53 47 45 45 52 56 58 58 60 63 65 65 65 66 66 66 66 65 68 68 68 69 72 70 71 70 69 69 71 70 72 72 73 75 74
58 47 49 53 59 60 59 59 60 54 55 50 50 53 58 59 59 59 63 66 66 66 66 66 65 66 67 66 67 68 68 68 70 69 69 69 71 71 69 70 71 73 74 75
54 47 51 51 59 59 56 61 60 60 58 54 53 51 60 64 63 62 64 64 63 64 64 64 65 67 66 65 66 66 66 66 67 67 68 71 71 70 69 69 70 71 73 74
51 47 47 44 52 53 48 55 59 58 59 57 50 55 62 61 62 60 62 62 61 61 62 61 61 62 66 63 66 66 66 68 68 68 66 67 69 69 70 70 70 70 70 70
50 46 43 44 46 38 53 61 63 59 59 58 57 60 61 61 62 59 62 61 61 61 61 59 59 60 60 61 63 64 64 64 64 64 65 66 67 68 68 68 69 70 70 70
52 44 42 40 40 49 57 60 59 54 52 61 59 60 60 61 61 58 62 62 59 58 58 59 60 59 59 60 61 61 60 61 62 61 62 63 64 65 67 67 67 68 69 69
51 46 43 39 37 40 51 63 68 61 44 59 62 60 59 61 50 53 61 61 60 60 59 59 58 57 56 55 58 57 55 57 57 58 59 60 62 62 62 63 65 67 68 68
42 44 39 38 37 44 55 62 66 46 46 59 62 61 59 51 53 57 60 59 60 59 57 57 57 54 53 53 54 52 52 52 54 57 59 59 60 60 62 61 61 61 61 63
40 36 38 41 38 35 58 58 51 49 51 56 58 56 54 56 57 56 56 56 58 57 56 56 54 52 52 53 53 50 50 52 53 54 55 57 58 61 63 60 60 60 60 61
39 44 40 42 41 50 54 53 54 54 52 53 57 58 58 57 56 56 53 53 53 53 52 53 50 50 49 50 50 48 50 51 52 51 51 53 56 58 59 59 60 60 59 59
46 48 42 44 48 51 54 57 59 60 57 56 57 56 57 55 55 54 53 51 51 51 50 50 48 47 46 48 49 49 50 51 50 49 50 52 52 54 55 58 60 59 59 60
46 47 45 43 47 52 56 57 58 58 60 60 61 59 56 55 53 53 50 49 49 48 48 48 46 45 46 47 47 48 49 49 48 48 48 48 50 49 52 54 54 57 57 52
46 45 39 39 47 46 50 57 59 58 58 59 59 56 55 56 51 51 49 48 48 47 47 46 45 45 45 46 46 47 47 47 45 45 46 46 46 48 51 51 53 53 52 52

GFSCGP_sfc_temp_105.txt.gz
Temp
63 56 52 59 61 63 62 62 57 61 64 62 59 61 63 68 68 68 69 70 75 75 77 78 79 79 78 76 74 74 73 72 72 71 69 69 68 69 69 70 73 74 74 76
57 53 63 67 66 64 62 61 56 60 65 62 59 61 64 68 67 69 70 70 74 75 75 78 78 78 77 75 74 73 73 71 72 71 70 71 70 70 70 71 73 75 76 74
54 61 69 67 62 63 56 56 56 57 63 64 59 59 61 67 70 71 73 73 76 75 74 76 76 77 76 75 74 75 73 72 72 73 70 70 70 70 70 70 71 74 76 76
58 67 67 61 61 63 48 66 66 61 55 52 65 48 56 62 65 69 72 75 74 76 76 76 76 76 76 76 77 76 74 72 72 72 72 70 69 69 70 70 71 73 76 76
58 62 62 60 63 67 62 72 67 61 54 53 57 50 50 60 59 63 70 75 76 77 77 75 76 78 77 78 77 76 74 71 72 71 71 71 69 69 70 71 71 72 73 75
63 69 67 65 69 70 74 66 61 55 50 45 56 53 50 55 61 64 68 75 77 78 79 79 80 80 79 79 77 76 74 71 72 72 71 71 68 70 70 70 70 71 72 73
59 63 67 71 60 64 63 54 42 41 43 44 51 52 57 63 68 69 69 72 76 78 77 77 76 78 79 77 76 76 73 70 70 72 72 72 71 70 71 71 70 70 70 71
47 49 63 68 64 59 56 56 45 39 40 45 52 48 56 65 72 72 76 69 70 71 74 73 76 78 78 77 76 76 72 71 70 72 72 72 71 70 71 71 70 71 72 73
46 51 67 70 69 69 56 53 58 48 44 47 48 52 61 65 63 67 65 68 68 69 70 69 69 70 73 73 72 75 74 71 70 71 72 72 71 71 71 72 71 72 72 74
53 47 57 66 69 65 61 63 53 48 41 38 45 45 48 56 59 61 63 62 64 66 68 68 69 69 69 70 70 70 72 70 71 72 72 73 72 72 71 71 72 72 72 73
50 49 55 59 55 56 58 53 51 50 46 41 39 45 61 60 63 62 62 63 64 65 65 67 68 68 69 71 71 70 68 70 71 72 72 72 72 73 72 71 71 73 73 72
53 48 46 52 61 62 56 54 52 47 43 42 43 47 61 62 63 64 62 63 64 64 64 65 66 68 68 68 69 68 69 69 69 70 71 71 71 71 71 71 72 74 72 72
55 47 44 50 54 59 56 56 47 49 46 43 42 47 61 62 61 63 62 63 63 64 66 65 64 65 66 67 67 68 68 69 69 70 69 68 69 70 70 71 72 72 72 71
59 45 45 43 47 50 50 55 54 49 47 43 45 52 57 58 58 59 61 63 63 63 63 63 64 65 66 66 66 66 68 69 69 69 68 68 69 69 68 69 70 72 72 71
55 48 49 54 56 57 54 55 57 51 53 48 52 54 56 59 59 58 60 63 63 62 62 62 63 65 66 66 66 67 67 69 70 68 68 68 68 70 70 70 68 70 71 72
53 47 48 49 58 57 54 58 57 55 54 52 55 54 60 62 59 60 63 62 60 61 63 64 64 65 65 65 64 65 65 65 69 68 68 69 70 69 69 69 68 69 70 70
51 48 45 41 51 56 48 53 54 53 56 58 53 56 58 57 59 61 62 62 60 61 61 62 62 61 62 64 65 63 64 66 65 65 65 65 69 69 69 70 68 68 70 70
50 48 45 41 46 38 51 60 59 54 55 56 56 57 58 60 59 58 59 59 59 59 58 58 61 61 61 62 61 61 61 62 61 61 62 63 65 66 67 67 68 68 69 68
50 45 40 38 38 48 54 57 55 51 52 59 58 60 58 60 61 58 60 61 58 58 57 56 56 56 56 57 58 58 58 59 60 59 61 61 62 63 64 65 66 65 65 67
49 45 43 39 36 37 48 59 63 59 47 58 59 58 58 60 48 51 59 59 58 59 58 56 55 55 54 52 55 56 54 54 53 55 57 60 62 62 63 62 63 64 63 63
38 38 38 36 35 42 53 59 63 47 46 57 59 59 58 53 52 54 56 57 56 56 54 54 53 51 50 51 51 50 51 50 51 53 55 56 58 60 60 59 60 60 62 61
38 34 35 36 35 35 55 55 50 53 53 59 58 58 51 52 54 54 55 55 55 52 53 53 50 48 49 50 50 48 48 49 50 51 52 53 54 58 59 58 60 60 59 60
37 42 38 40 39 49 50 49 51 51 53 56 56 53 55 54 53 53 51 52 53 53 52 52 50 48 47 48 48 47 47 49 49 49 48 49 52 54 54 54 55 58 58 58
43 45 41 42 46 49 52 55 55 54 53 54 56 56 57 54 54 52 51 50 50 49 48 48 46 46 46 46 47 47 47 48 47 46 46 47 47 49 51 53 54 53 53 53
44 44 41 41 45 49 52 53 55 55 56 57 58 58 56 56 54 52 49 49 49 47 46 45 44 44 44 45 46 46 46 47 45 45 45 44 45 45 47 48 49 51 50 49
42 42 39 38 45 45 48 52 55 55 56 56 56 54 55 55 51 51 50 49 48 45 44 43 43 43 43 45 45 45 45 45 43 43 43 43 43 43 45 44 46 50 50 49

GFSCGP_sfc_temp_111.txt.gz
Temp
71 68 64 69 72 72 71 70 67 65 67 65 60 61 65 67 74 73 75 77 78 80 84 85 85 85 85 84 82 82 81 80 81 80 80 80 82 82 83 85 83 84 84 85
67 64 70 73 71 71 70 69 63 66 69 67 63 62 65 67 71 75 76 77 79 82 82 82 83 84 84 83 82 81 81 80 81 82 81 84 82 83 84 84 83 85 85 84
65 69 72 71 70 69 69 68 64 66 67 70 67 61 63 67 72 74 78 80 82 82 80 82 82 83 84 83 82 81 81 80 81 82 81 81 81 81 82 82 83 84 85 86
69 72 70 70 69 72 67 73 69 66 66 60 67 50 59 64 67 70 74 79 81 82 83 83 84 83 84 83 84 83 81 80 82 81 82 79 80 78 82 83 85 85 85 85
66 68 68 67 71 73 69 74 71 69 65 65 62 59 65 64 61 68 72 77 81 84 83 83 84 85 86 85 85 84 82 80 82 81 82 79 80 80 84 83 82 82 82 84
70 75 75 74 74 76 74 70 68 67 64 58 66 62 60 60 63 68 73 75 80 83 84 85 86 87 83 87 85 85 81 80 81 81 82 81 82 78 82 82 79 79 81 82
67 69 74 76 71 73 73 69 56 53 54 59 63 61 69 70 73 73 71 75 79 82 83 83 83 83 83 82 84 84 81 79 80 81 81 82 81 79 81 81 83 82 83 82
60 57 69 74 73 69 68 71 62 51 54 61 62 59 66 70 75 79 76 75 78 81 82 83 83 83 79 82 76 83 81 80 81 81 81 81 81 83 84 82 84 83 84 82
60 60 71 74 76 76 67 63 74 63 61 62 62 65 69 70 72 76 76 76 77 79 82 82 83 80 81 82 79 82 81 80 80 81 80 80 80 80 81 81 82 82 82 85
65 59 69 73 76 73 73 77 64 65 53 53 57 59 66 64 64 73 73 74 77 79 80 80 80 75 75 76 73 82 81 80 81 82 80 81 81 81 81 81 80 78 80 82
69 64 65 69 69 69 68 67 66 70 64 60 56 60 66 66 66 69 73 73 76 78 77 75 73 72 72 75 73 74 79 80 81 82 82 80 82 81 81 82 81 80 80 82
66 66 61 65 69 70 72 73 71 64 58 61 60 61 67 69 70 70 68 69 71 73 73 75 72 77 76 72 71 73 77 78 81 82 81 80 81 81 80 81 82 82 79 81
65 59 58 60 67 69 67 66 68 69 68 61 62 61 66 67 68 69 66 66 66 67 69 71 68 70 72 70 70 69 74 77 78 78 79 79 79 80 80 81 81 82 82 82
66 60 58 59 60 64 62 63 66 69 66 64 65 59 61 64 65 65 65 65 65 66 66 68 69 70 71 69 68 69 69 70 71 74 75 76 77 78 79 79 80 81 82 82
66 56 60 61 64 65 62 62 64 66 66 66 66 63 64 67 65 65 66 65 65 63 64 65 67 67 68 68 69 68 70 73 75 75 75 76 77 77 77 77 78 78 80 82
65 56 57 58 63 63 63 65 65 64 63 63 66 62 70 69 67 63 62 63 61 62 64 65 65 65 65 65 65 66 67 72 75 73 71 71 75 75 76 76 77 77 78 79
60 60 55 52 60 60 59 59 61 61 63 64 62 67 68 64 63 61 62 62 61 62 62 62 60 60 61 62 63 62 63 66 66 67 71 70 67 73 75 76 76 76 77 77
58 55 57 51 58 48 58 64 64 61 61 64 65 66 65 62 60 62 65 63 61 61 60 60 60 59 60 61 61 62 63 62 62 64 69 69 66 66 69 72 72 73 74 75
60 57 51 48 51 55 59 60 61 60 60 63 63 63 61 59 60 59 65 66 64 63 63 62 61 60 60 59 59 58 60 62 63 63 67 68 69 67 68 69 67 69 71 72
61 58 57 51 49 47 57 62 67 64 59 65 65 62 59 60 56 60 61 61 62 65 62 61 61 61 60 60 60 58 57 58 60 65 66 66 66 67 66 67 68 69 69 69
53 53 52 51 51 55 60 63 65 53 56 65 67 65 62 61 64 63 62 60 64 66 64 60 61 62 63 64 65 63 62 61 62 64 65 65 66 65 65 63 65 67 68 68
51 50 51 49 48 47 61 63 58 60 63 66 66 67 65 62 61 62 63 62 62 61 62 64 63 62 63 63 63 60 59 60 62 63 64 63 63 65 65 64 63 63 64 64
49 55 52 53 53 57 60 60 64 63 60 64 66 67 64 61 61 62 60 58 60 62 62 64 62 60 60 61 62 59 58 60 61 61 60 60 61 62 62 62 61 64 62 64
54 54 53 53 57 59 61 63 63 62 62 64 66 64 64 61 61 60 59 58 56 58 58 61 61 60 58 59 59 58 58 59 59 58 58 60 60 60 62 64 64 63 62 62
57 56 54 55 58 59 62 63 62 62 62 63 64 64 62 61 59 60 59 57 57 57 59 59 60 60 58 58 58 59 58 59 58 58 58 59 60 60 60 59 60 61 57 56
57 57 54 55 58 59 59 61 64 62 62 63 63 61 62 62 58 57 55 54 56 59 59 59 58 58 57 57 57 57 59 59 58 58 59 59 60 60 60 60 58 47 47 45

GFSCGP_sfc_temp_114.txt.gz
Temp
80 76 73 79 82 80 81 80 74 73 68 66 68 64 65 65 69 79 81 85 87 88 91 92 92 93 92 91 89 87 85 85 88 87 89 89 89 90 91 93 90 90 90 90
75 71 81 84 81 79 80 78 74 72 73 69 66 69 73 66 67 82 82 83 86 88 87 90 90 91 92 89 88 87 86 84 84 87 88 91 90 92 92 92 90 91 91 90
75 79 82 79 78 77 79 77 76 73 74 77 72 63 67 65 70 82 86 87 86 86 89 89 89 90 92 90 88 87 87 85 85 88 86 88 87 89 89 89 90 91 91 91
78 80 77 77 77 80 76 80 78 75 73 64 77 54 67 64 69 77 84 87 89 90 92 92 91 91 91 91 91 89 87 86 87 86 88 84 83 83 91 90 92 91 90 91
74 76 75 74 77 81 77 81 79 79 78 73 71 62 62 68 63 66 77 84 90 92 93 92 93 93 93 93 93 91 88 86 88 87 84 87 86 90 92 91 86 88 87 90
77 85 82 81 83 81 81 79 78 77 77 66 74 73 64 67 71 74 75 78 87 92 93 94 95 93 93 94 93 92 87 85 86 86 86 85 86 87 87 86 83 88 89 90
73 75 82 84 78 82 80 76 65 63 65 67 76 72 75 80 79 78 77 78 86 91 93 93 93 89 92 92 92 92 87 84 86 86 87 86 86 86 85 86 88 87 88 89
67 63 76 81 79 75 76 75 65 55 63 69 72 67 73 82 87 85 82 78 87 90 92 93 92 91 83 91 91 90 87 85 86 86 86 87 86 89 89 89 88 92 88 90
68 68 81 82 83 83 76 72 81 71 77 71 73 75 73 78 80 82 83 81 76 86 89 91 93 93 91 90 90 89 87 86 87 88 86 86 86 85 85 88 88 91 90 92
73 65 78 81 84 83 81 84 71 74 62 59 69 71 73 71 77 80 81 81 75 81 85 90 91 91 91 80 89 86 89 86 87 89 87 89 87 87 86 85 86 86 89 89
79 73 72 79 74 74 75 74 77 80 75 67 65 71 81 75 77 81 83 81 80 81 85 86 90 89 88 86 80 87 86 87 88 89 87 88 88 88 87 87 87 87 86 87
78 76 68 71 82 85 83 78 78 69 66 73 72 67 77 79 78 81 82 81 84 83 87 86 84 85 84 81 79 76 80 87 88 89 88 86 87 88 88 88 89 88 87 87
77 71 64 67 74 79 76 80 83 82 81 70 69 73 76 77 78 78 73 74 76 79 80 78 76 73 74 79 78 75 78 79 87 87 88 86 87 87 87 87 88 89 88 88
71 72 68 62 69 77 72 75 79 80 72 74 74 73 72 74 72 69 69 71 73 77 76 71 71 69 72 75 72 74 75 80 84 85 85 84 84 86 88 88 87 87 87 88
74 64 70 71 73 74 75 75 76 75 77 73 76 77 79 78 77 71 71 70 71 71 72 73 71 72 72 70 69 70 72 73 73 80 81 82 83 83 85 85 86 87 87 88
74 64 69 66 71 73 71 73 76 75 76 77 78 74 80 81 77 74 70 67 65 71 69 68 72 73 73 73 70 69 69 69 71 73 73 77 79 78 80 82 83 83 85 86
67 66 64 62 68 69 64 67 71 72 74 76 74 75 79 73 71 66 64 64 64 64 64 63 62 62 64 67 69 68 68 71 73 73 75 76 77 76 78 79 82 82 82 83
67 64 65 63 64 54 66 73 71 70 71 75 75 75 77 71 66 67 67 66 63 63 63 63 63 62 62 63 64 66 66 67 69 71 74 76 75 69 68 72 77 79 81 81
72 65 58 57 56 59 65 67 67 66 69 73 74 74 69 69 69 63 68 70 68 67 64 63 61 61 61 62 63 64 65 65 65 66 71 75 74 67 66 69 73 75 78 79
70 71 65 58 54 49 60 69 73 72 64 74 73 71 69 70 65 61 69 68 66 65 63 63 64 62 59 60 61 59 60 62 64 68 73 75 76 75 75 73 73 72 73 73
63 63 60 62 58 60 66 70 73 58 58 72 74 73 72 67 74 70 65 63 64 65 63 64 65 63 62 62 62 58 58 57 62 68 71 72 74 74 74 73 74 74 74 74
59 58 61 60 56 52 68 70 63 65 71 74 74 75 72 65 68 70 68 69 68 64 62 64 65 63 65 65 64 62 62 65 65 65 68 68 71 75 74 71 72 72 72 71
56 63 60 61 60 65 69 69 72 73 71 71 72 76 75 70 68 69 68 69 69 71 71 72 67 67 70 70 70 68 65 68 69 69 68 68 70 71 71 70 70 72 71 74
63 65 64 61 65 66 68 71 73 73 72 73 74 74 73 71 70 68 69 70 70 71 70 71 70 69 66 67 67 66 66 67 67 66 66 68 68 68 71 75 75 75 76 74
67 65 62 63 66 67 69 70 70 72 73 72 72 73 72 71 69 68 67 68 68 68 68 70 68 68 66 67 66 67 66 67 67 66 68 68 69 69 67 65 64 67 59 57
68 65 62 63 67 67 66 69 70 70 71 72 71 70 71 71 68 68 66 66 63 66 67 67 66 67 66 66 65 65 66 66 66 66 68 70 71 71 71 68 62 46 47 44

GFSCGP_sfc_temp_117.txt.gz
Temp
85 79 76 82 86 84 84 81 69 66 68 64 60 61 69 71 70 79 87 88 90 90 92 95 96 96 96 94 85 89 86 88 86 88 86 86 81 83 84 95 92 91 92 92
81 76 86 89 88 85 84 81 65 68 66 61 61 65 71 67 69 80 83 85 87 89 89 91 91 94 95 93 91 83 86 87 86 90 79 85 82 85 83 84 92 93 92 91
78 83 88 86 85 80 83 76 67 67 64 66 66 62 65 69 68 70 80 85 87 85 90 85 88 92 92 90 91 90 86 86 87 87 90 90 86 86 88 85 91 89 92 93
81 89 85 83 81 83 77 84 71 70 67 59 73 56 63 64 64 67 71 82 86 90 86 92 89 91 95 94 94 92 89 86 86 87 86 84 87 87 81 86 83 87 90 91
78 82 81 78 80 86 78 87 67 62 73 56 69 64 66 67 61 63 70 80 83 87 88 95 95 92 94 96 95 93 90 87 85 84 85 88 86 90 92 82 87 86 89 90
84 90 86 84 88 88 87 84 82 78 77 62 67 71 63 59 62 70 79 85 90 90 94 93 94 94 91 98 97 94 89 87 87 86 87 86 88 85 86 87 89 91 90 91
78 79 87 89 83 86 83 79 63 62 64 64 76 75 67 76 78 80 79 86 92 95 94 95 93 89 92 94 96 94 89 85 87 88 88 88 88 88 86 87 89 91 92 91
71 67 81 86 84 80 80 78 66 57 65 71 80 72 73 86 88 87 85 87 87 90 96 97 92 88 92 91 95 94 88 85 87 88 88 88 88 90 91 89 81 92 93 93
72 72 85 86 88 87 80 72 85 73 79 64 68 75 83 89 86 87 85 83 83 88 92 96 95 95 91 94 87 93 89 87 88 89 86 87 87 88 89 86 90 91 89 92
78 70 83 85 87 87 84 88 74 75 63 63 67 60 72 78 82 86 84 87 86 89 84 96 92 85 94 92 90 92 91 88 89 91 89 89 88 88 89 89 87 88 88 90
82 77 75 82 78 78 79 78 80 80 79 66 68 63 84 81 84 84 87 87 87 81 70 82 94 92 77 94 92 92 91 89 90 91 91 90 91 90 89 89 88 89 89 88
82 78 71 76 86 88 86 81 82 72 69 78 72 65 78 86 88 87 87 87 86 83 77 87 90 85 90 87 84 82 90 90 91 91 89 89 90 91 90 89 90 90 87 86
80 74 67 67 80 84 80 83 85 85 83 73 71 62 79 84 83 88 86 83 79 80 81 85 87 79 83 83 83 84 84 81 89 88 90 89 88 89 89 90 90 91 88 87
76 77 71 63 69 79 74 79 83 84 74 76 78 71 77 81 79 79 82 81 80 82 83 81 82 81 83 83 83 79 76 81 83 80 83 83 87 88 90 90 90 89 90 89
79 69 73 72 74 80 79 78 81 79 81 75 75 73 80 81 78 73 76 76 77 78 79 77 76 74 75 72 77 76 78 72 71 74 78 82 84 85 86 87 88 89 88 89
80 65 72 62 72 78 77 81 80 81 82 82 79 79 68 87 82 75 71 73 73 72 73 76 77 71 72 73 75 74 73 73 74 71 74 81 82 83 83 84 84 85 86 88
67 65 68 64 75 74 66 74 78 80 84 82 75 68 71 78 75 71 69 66 69 66 67 73 75 74 76 77 76 73 74 74 69 73 73 79 78 79 81 81 81 80 81 82
70 63 64 61 64 57 64 69 79 76 79 82 80 82 73 76 72 73 73 68 64 64 63 64 63 64 70 73 72 70 71 74 73 75 76 75 75 76 77 78 77 78 81 80
77 66 50 53 42 60 70 71 73 73 69 79 80 79 77 76 75 70 72 72 72 69 64 62 63 61 61 62 66 68 70 73 74 71 75 77 78 76 73 67 67 69 73 72
75 72 65 65 56 48 61 73 79 78 65 76 80 78 76 73 71 69 71 71 70 70 65 62 61 62 61 60 62 63 63 65 66 69 72 73 75 74 70 66 69 72 72 72
65 66 63 62 58 52 67 68 78 62 60 76 78 79 78 69 72 71 72 69 72 71 68 66 65 62 61 63 62 59 59 59 63 67 69 75 77 76 76 75 74 73 71 70
63 59 62 63 58 43 73 74 65 68 76 77 79 79 71 70 71 71 71 72 70 70 69 70 67 66 70 66 62 60 58 60 62 64 69 71 72 76 75 74 75 74 73 72
60 67 58 63 59 70 75 73 76 78 75 76 77 80 75 73 68 67 65 69 70 71 71 72 71 68 69 68 67 61 62 63 62 62 63 68 71 74 74 73 73 75 75 77
69 71 66 65 69 70 72 76 77 78 77 79 80 81 80 75 69 67 67 70 70 70 68 68 68 67 65 67 66 65 65 68 67 65 65 65 68 71 73 77 77 79 78 77
72 70 67 67 69 71 72 74 75 76 78 78 79 78 78 77 70 69 69 69 71 74 75 75 73 71 70 71 70 70 69 70 71 70 72 71 71 70 69 63 58 69 57 54
74 69 66 65 72 71 70 73 75 75 75 76 76 75 78 73 69 70 68 70 72 71 70 69 71 70 70 69 69 68 70 70 71 70 72 74 75 74 73 68 62 46 46 45

GFSCGP_sfc_temp_120.txt.gz
Temp
83 76 73 79 83 82 78 75 65 67 66 62 60 60 64 77 84 84 86 87 87 89 92 93 94 91 87 88 85 82 79 81 83 83 75 83 83 85 82 86 87 88 88 85
80 74 83 87 87 82 78 72 60 64 64 63 59 59 65 72 74 80 86 86 86 88 88 91 91 91 88 85 79 80 83 82 81 78 79 76 83 83 84 87 86 89 90 89
76 81 88 85 83 81 79 73 69 62 65 66 62 57 62 73 71 77 81 83 89 85 86 87 89 90 91 85 83 83 82 83 81 73 74 76 80 78 82 81 85 86 89 90
80 88 85 83 81 83 76 82 77 66 63 55 62 50 57 65 68 72 77 81 82 83 87 90 90 87 91 89 87 85 84 83 83 83 78 74 76 74 81 80 84 83 86 87
78 81 82 80 82 87 79 74 76 69 64 58 59 58 60 62 64 64 71 77 83 86 88 87 89 90 90 91 90 86 84 82 81 83 84 81 83 83 74 80 79 85 84 86
82 91 87 85 88 87 88 77 70 63 55 48 65 60 58 60 67 70 72 77 81 82 86 87 87 91 89 94 92 89 83 81 82 82 82 82 82 77 78 78 78 83 85 85
78 81 87 89 81 87 84 78 56 49 47 50 65 63 66 72 74 76 75 79 83 84 89 84 75 90 90 91 90 88 83 81 82 83 84 83 83 78 80 80 85 81 82 84
69 67 80 87 83 80 79 79 65 55 57 56 68 60 70 79 80 82 80 82 85 87 87 88 86 87 81 90 89 87 83 82 83 84 82 82 83 84 84 85 84 86 82 84
71 71 86 87 88 87 80 73 84 70 74 66 60 60 77 81 78 80 80 84 85 86 85 87 89 85 78 86 84 85 83 82 84 85 82 83 83 82 80 84 81 87 84 84
78 67 83 85 88 87 83 87 73 73 58 55 61 63 62 69 73 79 81 85 87 90 90 86 85 85 88 88 89 87 85 83 84 86 85 85 84 84 83 84 86 83 82 87
82 76 74 83 78 76 78 76 79 80 76 65 51 53 67 61 63 80 84 85 88 87 89 85 86 86 81 84 81 88 86 85 85 86 84 84 85 85 85 86 86 86 85 84
81 77 68 73 85 87 85 80 80 70 67 72 71 64 68 62 66 66 85 86 84 87 89 82 80 83 80 80 79 84 86 87 87 87 84 85 85 85 85 85 85 87 87 83
78 72 64 68 76 84 78 81 83 83 81 70 64 64 72 67 66 84 84 86 81 84 82 80 76 73 72 72 71 77 75 70 83 87 86 84 85 85 85 85 85 84 85 83
76 73 69 60 65 72 74 78 82 81 72 73 75 69 74 79 80 81 81 84 83 80 78 79 73 71 70 71 72 77 77 73 74 78 73 76 82 84 87 86 85 85 83 83
78 67 71 73 72 75 76 78 80 77 78 73 76 74 70 60 78 83 80 81 81 80 81 80 78 72 70 67 70 76 80 79 77 74 77 74 73 76 83 81 85 85 85 83
78 66 71 67 73 75 73 78 80 80 81 81 81 67 65 62 62 67 76 79 76 78 81 80 77 74 71 72 73 74 73 76 77 73 75 73 73 75 78 80 80 83 82 85
71 67 62 60 67 66 65 67 74 79 83 82 72 68 69 62 59 62 67 75 74 73 76 76 74 72 72 72 77 76 76 76 75 74 75 73 71 72 73 79 80 80 79 80
69 66 60 56 58 47 65 76 75 76 72 69 71 70 67 68 68 68 70 64 64 64 65 65 67 69 77 77 75 74 76 74 74 73 74 74 72 72 71 75 77 78 78 77
76 70 59 51 54 56 61 70 69 67 64 69 68 68 68 73 71 65 71 70 67 63 62 61 62 62 64 65 68 70 72 74 74 73 73 73 74 71 71 69 71 71 71 69
75 72 65 60 49 43 56 65 72 76 58 71 71 68 64 68 60 62 68 69 68 67 62 60 60 60 61 62 66 66 65 67 68 70 73 74 73 74 72 71 70 70 69 66
57 65 61 55 54 52 57 65 74 58 58 76 76 74 61 62 65 67 70 69 69 66 62 62 60 59 59 61 61 59 61 61 65 69 69 71 74 73 72 71 70 67 67 65
48 46 60 56 48 46 71 73 63 67 76 77 74 75 70 71 70 70 69 67 67 65 65 65 62 61 62 62 61 59 58 62 63 64 66 68 72 73 73 71 71 70 68 67
45 45 51 60 58 71 74 72 77 77 74 76 76 76 76 73 67 66 65 66 67 68 68 69 68 67 68 66 63 59 59 61 61 61 61 65 67 71 72 72 71 70 71 70
70 73 62 62 68 70 73 76 77 78 76 79 80 80 75 71 69 67 64 64 65 68 68 69 69 66 65 67 65 65 66 63 63 60 60 61 62 62 64 69 68 65 61 64
71 71 68 66 69 71 74 75 76 77 78 78 80 80 79 73 69 67 65 65 67 67 67 67 65 65 65 65 65 67 68 66 64 63 62 62 63 62 55 51 52 56 49 49
75 69 67 63 72 69 69 74 76 76 76 77 77 77 77 75 71 69 67 69 69 68 70 69 67 65 64 64 65 65 69 69 67 67 67 68 66 65 63 61 53 46 46 45

GFSCGP_sfc_temp_123.txt.gz
Temp
72 61 58 65 71 75 74 65 62 61 65 62 60 62 65 68 72 77 77 81 80 81 82 85 85 84 82 79 78 76 74 75 75 73 72 74 75 76 75 78 80 80 78 78
63 60 71 78 78 76 68 65 58 61 64 62 59 61 65 67 67 74 77 81 80 82 81 83 83 83 82 77 78 75 75 75 74 72 72 73 77 76 79 77 79 80 80 79
62 70 80 78 75 75 64 60 60 58 63 64 60 56 58 66 67 72 74 80 81 82 80 79 80 80 80 76 77 75 74 74 73 74 73 73 73 73 73 75 76 78 81 82
68 79 79 74 73 74 60 64 68 61 59 51 61 48 56 61 65 67 71 76 78 82 83 82 78 79 79 78 79 77 75 74 72 71 71 71 71 70 73 76 76 79 80 80
66 73 72 72 75 80 61 64 63 64 57 55 56 52 56 61 60 65 69 74 76 82 83 82 82 80 81 81 80 79 75 74 74 72 72 70 71 72 73 74 77 78 77 80
73 82 77 75 82 80 76 63 62 60 55 48 54 53 54 56 60 67 71 72 76 77 83 84 83 84 82 82 82 80 77 74 75 74 73 72 73 74 72 72 74 75 76 77
69 73 78 83 69 75 72 59 45 43 46 45 56 53 59 68 70 71 71 72 75 81 80 82 80 81 82 83 80 79 77 75 75 75 75 75 73 73 73 73 74 73 73 75
56 55 71 78 71 66 67 65 53 43 44 50 60 54 60 74 76 74 78 75 76 78 80 80 81 78 81 83 80 79 76 75 76 76 75 74 74 72 72 73 73 74 77 77
59 61 77 80 80 75 66 60 73 55 53 47 52 58 66 75 72 74 74 76 75 78 80 81 81 82 78 81 81 78 77 75 76 76 75 76 75 75 74 75 76 76 78 82
65 55 71 77 80 78 69 72 56 57 47 43 52 55 56 61 62 68 73 74 76 78 79 81 80 79 79 82 82 80 79 77 77 77 76 77 75 76 76 76 76 77 77 78
65 58 63 71 65 65 65 61 60 60 59 52 46 52 64 62 66 64 66 71 76 78 80 81 81 81 80 80 80 79 78 77 76 77 76 76 76 77 76 76 78 78 77 77
67 59 53 61 76 78 71 66 63 52 53 58 56 54 70 67 66 67 65 69 70 80 81 78 79 80 80 74 77 78 78 78 77 77 76 76 76 77 77 76 78 78 77 77
63 55 49 55 64 70 65 69 61 63 59 53 56 54 65 67 63 65 66 70 69 73 73 74 73 74 71 72 70 71 72 71 73 74 76 75 75 75 75 76 76 77 76 76
66 57 52 51 56 66 61 68 70 60 51 54 57 56 60 63 64 65 67 69 71 74 72 71 68 67 69 69 69 69 69 73 72 73 72 72 71 72 74 76 77 76 76 76
62 52 58 63 68 69 66 68 70 64 62 55 59 60 60 60 59 60 61 65 72 71 67 68 67 67 67 67 69 71 70 69 71 71 71 71 72 71 72 73 75 75 76 76
63 54 57 56 64 69 67 70 66 68 64 64 61 56 60 62 62 60 62 62 63 68 68 68 69 68 69 69 67 70 70 69 71 70 71 70 70 69 71 72 72 74 75 75
54 55 51 46 59 60 57 56 60 60 64 61 57 57 62 58 58 58 61 59 63 65 68 68 67 67 67 67 71 70 70 69 69 69 71 71 69 69 72 72 73 73 72 72
55 53 51 45 51 42 55 65 68 61 62 62 64 63 63 61 60 62 63 62 62 62 62 63 67 69 69 70 71 69 70 69 69 69 69 70 70 69 70 71 70 69 70 70
63 55 46 42 42 50 57 60 59 55 56 64 64 62 67 66 65 61 65 63 61 60 60 60 62 63 65 67 68 69 69 70 69 68 69 70 69 68 68 67 68 69 68 67
60 56 51 46 38 37 51 63 67 63 48 66 66 62 62 61 54 58 64 64 61 60 60 59 61 62 61 63 66 64 64 64 65 68 69 70 69 68 67 67 68 67 66 65
48 46 42 48 45 48 58 66 71 50 51 65 62 61 61 57 60 62 64 61 62 60 60 60 60 60 60 61 63 61 61 61 63 66 68 68 68 67 67 67 66 64 64 63
44 43 43 45 43 42 65 65 57 58 66 66 60 60 60 61 63 62 62 62 61 61 61 61 59 58 60 60 60 58 58 61 62 63 64 66 68 69 69 67 66 65 64 61
44 48 45 48 47 57 64 61 67 68 66 67 64 67 66 64 60 62 62 62 63 63 63 64 61 61 61 61 60 58 59 61 61 61 61 63 64 62 66 67 67 66 65 62
55 55 47 51 56 61 65 68 69 70 69 70 69 70 65 62 62 62 62 62 63 64 64 65 63 61 60 59 62 61 61 62 61 60 60 60 57 54 56 58 56 55 54 59
57 56 49 53 58 64 65 66 68 70 71 71 72 69 66 65 62 61 61 62 62 63 60 60 58 58 58 57 58 59 61 62 61 61 61 61 59 52 48 47 50 52 46 46
61 58 52 51 60 59 59 66 71 68 69 70 69 68 69 65 61 63 62 62 62 59 59 57 57 57 57 57 57 59 63 62 62 58 61 58 59 57 55 51 47 47 47 45